GFSWCAN_250_spd_000.txt.gz
Wind_Speed
136 136 115 105 96 88 79 70 66 63 60 55 52 47 44 44 42 42 41 49 52 57 57 57 58 67 76 83 90 92 85 80 72 66 61 62 58 59 79 89 87 81 83 88 90 91 89 86 84 84 80 79 73 70
135 111 94 84 82 75 68 59 56 51 48 44 41 38 36 34 34 35 40 43 47 54 50 51 56 62 72 80 88 91 83 79 72 64 62 64 60 60 78 82 70 78 77 77 86 87 86 85 83 81 79 78 74 75
95 90 80 76 69 63 53 49 45 41 38 37 33 31 29 29 30 31 37 39 45 47 44 48 54 60 68 78 83 88 85 82 77 69 61 63 62 61 85 76 71 72 70 69 80 86 83 82 82 80 80 79 77 75
82 76 71 61 56 50 46 43 40 36 33 30 27 25 25 26 27 31 34 36 39 40 44 47 52 58 67 76 83 85 85 84 84 72 64 66 64 60 82 85 73 76 76 61 66 73 78 81 79 78 79 81 81 80
71 66 57 52 48 46 42 38 36 33 29 25 22 20 20 23 26 29 30 33 35 37 42 48 52 57 64 71 77 81 83 82 79 70 66 67 64 64 82 88 75 66 66 74 67 64 65 63 80 81 79 80 82 80
59 52 50 48 45 41 37 34 31 28 23 20 18 18 19 21 23 25 28 31 33 36 42 46 50 55 60 66 73 78 81 81 78 72 68 67 64 66 88 93 90 81 71 68 80 67 67 54 55 66 74 79 78 76
50 48 46 42 39 35 32 27 24 19 17 15 14 14 16 18 20 22 25 27 30 35 40 45 49 53 57 61 66 69 73 75 72 70 70 62 62 65 77 93 91 86 63 78 76 76 74 72 76 77 73 76 74 74
46 44 41 37 33 28 25 20 16 13 10 8 10 12 14 17 19 21 24 25 28 32 37 41 46 50 54 58 64 68 71 73 72 70 68 67 63 63 77 81 85 85 75 73 66 65 67 63 74 77 72 74 73 76
42 40 36 31 26 23 20 15 11 8 5 5 7 9 12 15 17 20 23 26 30 34 38 41 46 49 51 56 60 65 70 72 70 66 67 63 61 61 72 84 87 96 91 82 73 67 73 76 80 82 76 69 72 74
38 35 30 25 22 20 16 10 5 2 2 4 7 10 13 16 19 22 25 29 33 37 39 42 46 49 53 57 61 64 68 69 66 65 66 66 70 73 71 75 79 82 84 78 81 73 67 70 69 65 63 64 71 71
33 27 23 22 21 16 10 5 4 3 4 7 9 12 14 16 18 21 24 28 31 34 37 40 45 49 54 57 60 65 69 69 68 67 68 72 72 73 73 62 60 66 66 75 77 70 67 66 65 64 63 63 66 66
27 22 20 19 16 12 9 9 8 8 9 10 12 14 15 17 20 22 25 27 28 30 33 38 44 48 50 54 58 65 70 68 67 66 70 75 79 73 70 68 65 63 69 66 68 67 65 65 64 64 64 61 64 64
23 19 17 15 13 11 10 11 10 10 11 13 16 17 19 21 23 25 26 27 29 31 33 37 42 45 49 53 58 63 66 66 64 70 72 77 78 77 70 68 66 61 59 61 61 62 61 61 61 62 61 61 62 61
20 18 17 16 14 12 11 11 11 11 12 14 16 18 20 22 23 25 26 27 29 31 36 42 44 46 50 56 59 62 62 64 66 69 73 77 77 73 70 67 64 64 61 57 58 61 62 62 60 59 59 57 58 58
21 21 19 18 17 15 13 14 14 14 15 17 18 19 21 23 25 26 26 26 28 31 34 38 43 46 50 54 55 57 59 61 60 64 74 77 81 78 77 77 70 67 64 63 62 60 58 57 56 59 59 58 61 60
25 24 21 19 18 17 17 17 17 16 15 15 17 19 20 19 20 21 23 25 28 31 32 36 39 42 45 47 47 50 53 56 56 62 73 77 82 78 70 67 71 71 68 66 64 61 59 61 62 61 59 60 60 59
30 26 23 22 19 18 19 19 20 21 19 18 19 21 20 19 20 19 20 25 30 31 32 33 36 38 38 38 42 45 47 49 50 57 63 73 76 69 67 69 67 64 65 67 68 70 70 68 64 63 63 65 66 67
30 28 28 26 23 21 20 19 19 20 21 23 23 22 19 19 21 21 20 23 28 31 33 34 34 34 33 34 33 33 37 45 50 52 52 54 62 68 67 63 61 62 62 64 67 67 65 65 69 71 71 71 71 71
35 33 31 29 28 26 24 21 18 21 21 22 24 23 20 17 18 20 20 22 25 29 32 32 33 28 31 30 32 33 33 39 47 49 51 54 57 57 55 55 57 59 60 61 61 62 62 63 64 67 69 70 70 71
40 39 37 35 32 29 27 25 22 20 21 21 21 21 19 18 17 18 18 20 22 25 29 32 31 27 31 33 30 28 31 34 36 40 45 48 49 51 54 56 58 60 60 62 63 63 63 63 64 65 66 67 67 68
47 44 42 40 39 36 31 27 25 23 22 22 21 20 19 17 16 17 18 20 21 22 24 26 27 25 24 30 36 36 31 29 28 31 34 39 46 53 56 57 56 57 57 58 59 62 62 63 65 67 70 71 72 72
52 50 49 47 47 44 41 36 33 29 27 24 22 21 21 20 18 17 16 19 20 21 23 24 25 25 26 26 29 32 37 41 42 41 39 40 43 44 46 49 51 54 56 60 63 66 68 68 68 68 69 70 72 75
51 50 51 51 50 50 49 44 40 37 35 31 28 25 24 21 19 17 15 14 14 16 18 21 23 24 24 25 26 28 29 32 35 39 43 47 51 54 56 58 58 58 59 62 64 66 70 72 74 73 73 71 69 64
47 46 48 49 49 47 48 49 45 42 42 42 36 32 32 29 24 21 18 17 15 14 14 15 15 17 18 20 21 23 25 27 31 35 38 41 45 47 50 52 53 55 57 58 59 60 59 57 54 52 51 50 49 48
39 37 37 40 41 42 43 42 43 42 42 42 41 41 41 40 36 32 27 22 19 17 14 11 8 7 7 10 12 15 18 20 23 25 27 28 30 32 34 35 36 36 37 38 38 38 39 40 40 41 40 41 42 43
29 27 27 29 30 32 32 32 33 35 35 35 34 34 34 34 32 28 27 25 25 23 21 19 17 14 11 9 7 4 3 4 6 8 10 10 11 13 15 17 20 22 26 27 29 31 33 35 36 37 37 38 40 41
26 26 24 23 22 23 24 24 24 25 26 25 23 22 22 24 24 21 20 19 18 17 16 14 12 9 7 6 4 4 6 8 10 11 11 12 14 16 17 18 20 23 25 27 30 32 35 38 40 42 44 46 49 51
24 23 23 24 24 22 22 21 21 22 23 23 21 20 20 18 15 14 12 11 10 8 6 5 3 2 0 2 4 6 10 14 17 20 22 23 24 25 27 29 32 35 38 39 41 43 45 47 50 52 54 56 58 60
25 23 21 21 21 21 19 18 17 17 17 17 16 13 12 11 10 10 8 7 6 8 10 11 12 13 14 15 17 20 22 24 26 29 32 34 37 39 42 44 46 48 49 51 52 54 56 58 60 62 63 65 66 68
23 22 20 18 17 17 17 17 17 16 14 11 10 10 9 9 8 8 9 11 14 16 18 19 19 22 25 27 28 30 34 37 40 42 44 45 48 49 51 53 54 55 56 58 59 59 60 62 63 64 65 66 67 68
25 25 24 23 22 20 18 15 14 15 16 17 16 15 16 17 18 19 20 20 20 20 24 27 29 31 33 35 38 40 42 43 44 44 45 47 49 50 52 54 56 57 58 59 60 61 61 62 63 63 64 64 64 64
29 28 28 28 28 26 25 23 21 20 20 20 19 17 16 19 17 14 16 18 18 21 23 28 33 35 37 40 40 40 42 43 44 46 47 48 49 50 51 53 55 58 59 60 61 61 62 62 62 62 62 63 64 64
32 33 32 31 31 32 31 29 26 24 24 23 25 27 24 23 25 26 27 28 29 30 31 30 30 32 35 37 39 40 42 42 44 46 48 51 52 54 56 57 58 59 59 59 60 60 60 60 60 60 60 59 59 58

GFSWCAN_250_spd_003.txt.gz
Wind_Speed
148 140 125 105 96 87 78 71 67 64 60 56 51 46 43 41 38 40 37 40 46 54 57 55 52 60 67 70 79 89 91 89 93 91 86 77 71 67 63 60 61 65 63 68 70 80 86 92 94 94 91 89 88 83
129 111 101 93 84 76 68 63 59 55 51 47 42 39 37 34 32 31 32 37 41 49 43 43 46 52 59 64 69 78 83 86 88 86 85 79 72 63 61 59 60 56 56 61 66 77 82 87 90 91 89 90 88 82
98 91 86 77 71 64 60 55 52 48 44 40 36 33 31 29 28 26 29 32 38 38 35 41 42 47 56 65 68 73 73 81 83 87 82 77 73 62 57 57 59 54 53 55 46 71 64 80 84 89 88 87 84 82
87 78 70 65 59 55 52 49 45 40 36 33 29 28 25 23 22 23 23 26 29 29 35 39 42 46 52 61 68 69 72 80 82 86 81 76 69 64 58 55 58 48 57 62 57 45 50 51 69 82 85 85 83 81
74 67 62 56 52 50 46 43 38 33 29 26 23 20 18 17 17 18 21 22 23 27 33 37 40 46 50 55 61 67 73 83 82 80 79 74 69 61 56 57 57 58 64 64 60 62 58 52 48 67 77 83 81 80
62 55 51 48 46 42 39 34 29 26 22 18 15 14 13 13 12 15 18 20 23 28 32 36 41 45 48 51 55 61 67 76 82 81 81 76 66 58 52 59 56 66 66 66 66 49 46 51 45 48 57 75 81 81
54 49 46 42 38 35 30 27 24 19 15 13 10 8 8 10 11 14 17 20 23 27 30 35 40 43 46 49 53 58 65 73 77 80 79 73 62 59 54 62 63 71 68 57 55 55 53 54 47 45 56 58 61 68
49 44 40 35 32 29 26 22 16 12 11 7 4 0 4 7 9 11 16 21 25 28 31 35 39 42 45 49 52 58 64 72 77 77 72 66 61 58 56 62 75 75 76 69 66 61 62 68 49 62 52 54 62 54
44 39 33 29 28 26 21 14 9 7 6 4 3 2 4 8 12 16 20 23 26 30 33 36 39 42 44 48 53 57 62 72 76 72 67 68 66 62 58 66 77 80 75 77 73 70 66 65 68 59 56 62 53 58
40 34 29 27 26 22 16 10 7 6 6 6 6 7 9 12 15 18 22 25 28 31 36 38 40 42 44 47 52 57 64 67 71 70 67 66 64 61 61 67 70 87 82 80 72 66 63 57 73 63 64 65 64 65
37 31 27 25 23 19 14 10 9 8 9 10 11 13 14 15 17 19 21 25 29 32 35 37 40 42 44 47 50 55 61 65 70 69 66 68 62 56 50 65 67 62 93 87 90 85 74 73 78 71 72 78 70 67
34 30 25 23 21 18 14 12 11 11 11 12 14 16 17 19 19 21 23 24 27 31 34 36 39 42 44 46 50 55 61 65 66 67 69 65 61 63 53 67 71 80 70 100 100 93 83 81 77 77 74 74 77 69
32 29 25 23 21 18 16 15 14 13 13 14 15 17 18 20 22 23 26 27 29 29 31 35 38 38 38 42 47 53 58 62 67 68 67 63 65 66 62 57 65 77 90 85 99 97 87 83 81 78 76 76 73 64
30 28 25 23 21 20 19 18 17 15 13 14 17 20 22 22 23 25 26 26 28 29 29 31 33 34 36 38 42 49 57 62 64 64 64 64 64 66 70 68 65 67 70 81 91 104 96 88 90 82 84 71 68 71
29 30 28 25 22 22 22 23 24 24 21 15 15 18 21 21 22 23 23 24 25 26 28 30 32 35 38 40 46 53 58 60 62 63 64 64 62 64 66 72 65 60 65 63 75 89 94 83 79 81 83 85 78 72
29 31 28 25 25 23 23 25 27 23 19 20 21 21 20 21 22 21 22 22 21 22 25 28 32 36 38 42 47 51 59 61 62 64 63 61 61 62 73 74 74 71 67 63 62 61 61 65 70 74 65 64 66 67
30 28 27 27 26 25 23 21 22 22 20 21 22 23 24 24 21 20 21 21 22 23 26 28 30 35 37 38 42 50 56 60 63 61 61 60 54 56 70 74 77 75 71 69 67 70 69 67 64 66 65 64 65 65
30 28 27 28 27 26 24 22 20 21 22 23 22 22 23 24 23 20 20 21 23 25 25 26 26 30 34 38 42 47 54 55 57 57 56 59 57 56 67 75 78 79 75 75 72 68 66 67 68 64 63 64 66 67
33 32 31 31 30 30 26 23 21 22 24 24 24 24 23 22 23 22 21 23 25 26 26 25 23 23 27 30 34 38 43 45 46 48 48 49 56 57 59 71 72 76 78 74 70 78 72 71 71 71 75 74 74 75
35 34 34 34 33 32 30 27 24 24 24 23 23 23 22 22 23 22 21 23 24 25 25 25 22 21 21 21 25 30 30 34 35 38 39 42 45 48 51 58 70 76 79 81 78 75 71 72 76 78 77 79 79 77
43 40 37 35 34 34 33 31 29 27 25 24 23 22 21 21 21 21 21 20 23 23 24 25 23 23 21 18 17 16 17 20 24 30 33 33 36 39 43 48 56 68 82 82 80 77 75 75 78 76 74 73 75 76
48 46 45 43 40 36 35 34 32 30 28 26 23 22 21 19 18 17 18 19 19 19 21 22 19 17 16 19 19 17 17 18 21 25 29 34 39 43 46 48 50 53 58 65 71 78 79 76 75 75 75 75 74 75
47 48 47 45 47 46 44 42 38 33 31 29 27 24 21 19 17 15 13 12 12 13 14 14 15 15 14 15 16 18 22 26 29 30 31 33 34 36 38 42 45 49 53 57 61 64 67 69 69 68 68 67 67 67
37 40 41 41 42 43 43 42 40 39 36 34 33 32 30 27 23 18 13 11 9 7 6 7 9 12 13 15 17 19 21 24 28 31 34 37 40 42 44 47 50 52 54 57 59 62 64 66 67 70 71 73 75 74
33 31 30 31 33 33 34 36 37 39 38 37 35 35 36 36 34 30 25 20 16 12 8 5 4 6 9 12 14 17 19 22 24 27 28 30 33 35 38 40 43 45 48 50 53 55 56 58 59 60 60 59 59 57
29 26 25 27 29 30 29 30 32 31 31 30 29 28 27 27 28 25 23 22 20 18 17 14 12 9 6 3 1 2 5 8 9 12 14 16 18 21 23 25 27 30 32 34 37 39 40 42 43 44 45 46 47 48
25 24 25 27 27 26 25 24 24 25 24 23 22 20 19 19 18 16 14 13 11 9 7 5 3 1 2 5 7 9 11 12 14 16 18 21 23 25 27 29 30 31 32 33 35 36 38 40 42 44 46 49 50 52
25 24 22 20 20 20 20 19 19 18 17 16 15 14 13 13 13 12 12 11 10 10 9 9 10 11 13 16 19 21 22 23 26 28 29 30 32 34 36 37 39 40 41 43 45 48 50 52 54 56 57 59 60 61
26 26 25 22 21 19 17 16 16 16 15 15 15 14 13 12 12 12 12 11 11 12 13 14 16 18 21 24 27 30 33 36 37 38 39 41 43 44 46 47 49 50 51 52 54 56 57 59 60 62 64 65 67 67
24 24 24 24 23 22 21 20 19 18 18 18 17 16 16 16 16 16 17 19 20 22 24 26 28 31 33 34 36 38 40 42 44 46 49 51 52 53 54 55 55 55 56 56 57 58 59 60 61 63 64 65 66 68
26 25 25 23 20 18 16 15 16 17 17 18 18 16 14 17 20 17 19 22 25 29 31 34 37 38 38 40 43 45 44 43 43 43 45 46 48 50 51 53 54 55 56 57 58 59 59 59 60 60 60 60 60 60
32 32 31 29 27 25 25 25 23 20 20 21 20 20 20 17 18 20 19 19 20 21 23 25 27 29 31 32 34 38 40 43 46 48 50 50 51 51 52 53 53 53 53 53 53 53 53 53 54 54 54 54 53 53
32 34 34 35 34 32 30 29 29 29 29 28 29 28 28 29 29 30 31 31 31 32 34 35 37 39 40 40 42 43 44 44 44 45 45 46 46 46 47 49 50 51 52 52 53 53 52 51 51 50 50 49 49 48

GFSWCAN_250_spd_006.txt.gz
Wind_Speed
125 122 108 102 96 85 77 70 65 63 59 54 52 49 46 42 39 39 35 34 38 43 44 48 48 53 59 64 69 74 83 94 98 96 89 84 81 77 73 68 66 63 61 61 61 62 66 67 72 82 86 90 97 96
112 102 94 83 76 70 66 62 58 55 52 50 46 42 39 36 33 33 29 29 33 35 36 39 43 45 51 54 57 63 75 86 95 94 88 83 77 75 69 68 65 63 60 58 59 61 54 55 64 67 73 82 92 96
97 81 79 71 67 62 58 54 50 48 46 42 38 35 32 29 27 25 24 24 26 25 31 35 36 42 45 49 51 58 65 76 87 90 83 81 78 75 69 72 67 63 60 55 53 53 46 51 55 61 69 75 83 91
77 72 67 64 58 53 50 47 44 41 38 34 30 27 24 21 20 18 18 19 19 23 27 30 33 37 42 49 51 51 57 67 79 84 82 80 77 75 73 67 61 59 58 50 47 46 46 48 53 56 60 67 74 83
65 62 58 55 51 48 44 40 36 33 30 26 22 18 14 12 11 11 11 14 18 22 25 28 32 37 42 46 47 50 54 62 75 82 83 81 75 78 74 71 52 49 45 50 43 42 34 38 47 57 54 59 71 76
63 58 53 49 45 40 37 33 30 27 22 16 12 8 6 5 6 6 12 16 18 21 25 28 32 36 42 45 47 49 55 63 70 76 75 74 72 77 72 68 64 58 43 43 45 39 34 33 30 39 43 49 48 65
62 56 48 43 39 36 33 30 25 18 13 9 6 1 3 5 7 11 15 18 19 21 25 29 32 34 38 42 45 48 52 55 62 69 74 77 77 73 70 66 62 59 51 41 41 49 39 28 30 39 38 36 41 49
57 49 44 38 35 32 27 22 16 11 9 7 6 7 7 8 10 13 16 18 20 23 26 30 33 34 36 40 43 45 51 58 64 70 73 79 78 72 69 64 61 53 46 39 52 60 52 45 44 31 36 43 38 34
51 45 39 35 31 29 25 19 14 11 9 7 6 6 7 8 10 14 17 19 22 25 27 29 32 36 38 40 44 49 53 60 66 74 73 75 71 68 66 64 57 49 48 53 68 62 62 56 53 49 50 50 43 39
47 41 36 32 27 25 22 19 15 12 10 9 9 10 11 13 15 18 20 23 25 27 29 31 33 36 38 42 47 52 57 63 68 70 78 77 65 63 64 61 56 53 48 57 60 65 61 57 66 77 63 47 51 48
43 36 33 29 26 23 21 19 17 15 14 13 13 13 14 15 17 20 22 25 27 29 30 33 35 38 43 47 49 54 63 66 69 70 74 71 62 62 64 61 59 52 55 54 68 67 69 71 70 67 61 54 53 55
39 33 31 29 25 22 21 20 19 17 16 16 16 16 16 17 19 22 23 24 27 31 32 33 36 38 41 45 51 59 67 69 71 72 72 64 61 60 60 63 60 55 57 57 71 74 72 67 59 68 69 68 63 65
35 31 31 28 24 22 21 22 20 18 16 17 18 19 20 21 22 22 24 26 29 31 33 34 36 39 43 46 51 61 66 68 68 70 68 65 62 61 61 62 58 56 54 64 77 80 75 69 66 56 61 60 62 69
32 30 29 25 23 21 20 22 24 22 18 17 19 22 23 23 23 24 25 26 28 28 30 31 34 37 40 46 52 60 63 65 66 60 61 61 62 63 62 59 58 57 60 58 76 80 76 80 74 73 61 63 66 62
30 28 29 27 25 24 22 23 23 23 23 21 19 22 26 26 26 25 24 23 26 29 30 34 34 35 39 42 49 53 56 61 63 62 56 55 56 58 56 51 55 50 56 58 52 72 84 84 87 79 78 80 78 76
29 28 28 27 26 27 25 27 23 19 23 24 19 23 24 25 26 26 25 24 24 27 28 31 34 36 36 39 42 47 51 56 61 63 60 57 56 56 57 66 61 62 64 62 59 63 67 76 80 86 91 92 92 89
29 28 27 26 26 26 27 26 22 23 23 22 21 24 23 23 23 24 25 25 26 27 26 29 31 33 35 37 40 44 51 55 57 62 64 61 61 66 69 63 62 65 65 70 72 70 69 68 70 70 76 88 100 104
32 29 27 26 27 28 26 23 24 25 23 22 23 24 23 23 23 22 24 25 25 26 26 27 32 34 35 36 39 43 50 55 57 58 60 58 59 67 68 69 68 63 64 68 71 79 79 75 73 66 70 74 80 86
33 31 30 28 28 26 24 24 23 24 23 23 23 23 23 24 23 22 23 26 27 27 26 24 25 28 31 33 35 38 43 47 53 58 59 60 60 61 64 70 68 68 70 71 75 74 74 76 74 76 73 71 73 72
35 34 32 30 29 28 26 25 24 23 23 24 23 23 24 24 24 24 24 26 27 28 27 25 23 21 21 22 25 28 35 43 48 51 53 55 57 60 58 60 65 66 66 73 79 74 72 76 74 76 74 78 78 77
43 42 39 34 32 31 29 27 26 25 24 24 23 23 24 24 24 24 25 26 25 26 25 24 22 19 17 18 20 23 26 32 40 48 51 53 55 59 58 59 60 65 67 67 66 71 81 81 82 83 81 84 80 82
41 44 44 42 39 35 31 29 28 27 26 25 24 23 22 22 22 22 23 23 22 21 20 21 23 22 20 18 19 20 22 26 29 33 37 40 43 45 49 52 51 52 53 56 60 62 61 62 74 84 87 89 90 85
31 34 38 41 40 36 36 36 33 29 26 24 24 24 23 20 18 18 17 16 17 18 18 17 15 14 14 15 15 16 18 20 22 25 28 31 34 37 40 42 44 46 49 52 54 57 59 62 65 68 73 78 85 91
25 30 34 31 28 30 35 35 36 36 32 29 27 25 23 21 19 17 14 12 12 12 13 14 14 14 16 16 17 19 21 23 26 29 31 33 35 37 39 42 45 48 51 55 57 60 63 65 67 69 71 73 75 78
28 27 25 24 25 26 28 30 31 31 31 32 31 28 25 24 23 20 15 12 9 6 5 5 7 10 12 14 17 19 22 25 27 30 32 35 38 40 43 46 48 51 53 55 57 59 61 63 65 67 69 71 73 75
25 23 22 22 23 25 25 25 24 24 24 25 26 25 23 21 21 18 15 13 11 8 6 3 1 2 5 8 11 13 16 19 21 25 27 30 32 34 38 40 42 43 46 47 49 51 52 54 56 57 59 61 62 63
24 23 23 23 23 22 22 21 20 18 18 18 17 15 13 12 12 10 8 7 7 7 7 7 8 10 12 14 17 20 22 24 26 28 30 31 33 34 35 35 37 39 40 43 44 46 47 48 49 50 51 53 54 54
24 24 23 22 22 21 20 20 19 18 17 15 13 12 12 11 11 10 10 12 13 14 16 18 19 21 23 25 28 29 31 32 34 35 36 38 39 41 41 42 44 46 46 49 50 50 52 53 55 57 59 60 62 63
24 24 24 23 22 19 18 18 20 19 18 17 16 17 16 16 17 17 19 20 21 23 26 29 31 32 33 34 36 38 37 37 38 40 40 39 38 40 42 44 46 47 48 48 49 52 53 52 53 55 57 58 60 62
29 27 28 30 31 31 29 26 24 22 21 19 19 19 19 18 18 21 23 25 27 29 31 33 33 34 35 35 36 36 38 39 38 38 38 40 41 42 44 45 46 47 48 48 49 49 51 54 54 56 57 58 58 60
32 31 31 29 29 28 25 24 23 22 22 22 21 20 21 22 22 22 21 24 26 28 29 32 34 35 37 39 40 41 41 43 45 47 47 47 48 48 48 48 48 47 47 47 47 47 47 48 48 49 49 51 51 52
30 31 29 29 28 28 27 28 29 30 30 30 30 30 30 31 32 32 33 34 35 36 37 37 36 36 36 37 37 38 39 39 39 39 39 39 40 40 41 42 43 43 44 45 46 46 46 46 45 45 45 45 44 44
33 32 30 29 28 28 29 30 31 31 31 32 32 31 31 31 31 32 33 33 34 35 38 39 39 40 40 39 38 38 37 37 37 35 35 37 37 37 38 38 39 39 40 40 40 41 41 41 41 41 41 40 40 39

GFSWCAN_250_spd_009.txt.gz
Wind_Speed
122 121 113 101 96 88 83 79 73 65 59 56 52 48 46 44 43 43 40 38 40 37 36 39 41 44 45 48 55 59 67 76 91 101 101 98 90 87 83 81 75 69 66 65 64 65 63 54 57 63 69 68 74 90
109 103 98 87 81 75 67 62 58 53 49 46 43 42 40 38 36 34 32 32 31 30 32 33 35 38 42 46 50 53 58 66 77 91 99 100 91 88 83 83 77 70 64 62 66 65 58 51 59 66 68 67 66 76
98 94 84 78 67 61 57 53 47 41 38 36 35 33 31 29 27 25 24 25 25 26 28 28 30 33 39 44 45 50 51 55 65 81 90 94 90 85 82 81 72 63 66 67 70 58 52 56 59 61 62 60 60 64
91 80 71 63 58 56 51 45 41 37 33 31 29 26 24 21 19 18 18 19 21 24 24 24 26 30 35 39 41 45 48 50 59 75 87 90 88 83 82 72 64 53 55 55 61 56 56 54 56 54 54 53 53 54
75 66 60 57 55 51 46 42 38 33 29 25 22 18 15 12 10 10 11 13 15 16 16 18 21 27 31 35 38 41 44 49 57 68 76 82 81 79 78 68 64 68 63 52 45 62 56 49 48 48 46 40 30 38
65 60 55 52 49 45 41 37 30 25 21 18 16 13 9 6 5 5 7 9 11 14 16 20 24 28 33 35 38 43 48 53 59 66 71 75 73 75 76 81 69 52 56 51 56 60 59 48 44 44 42 40 36 35
61 56 52 48 43 39 35 30 26 22 18 15 12 8 3 0 2 3 8 11 12 15 17 21 27 30 32 35 40 43 49 57 63 69 73 77 78 80 81 82 80 63 59 50 46 42 43 42 38 36 39 44 39 35
57 54 51 44 38 35 32 27 23 19 15 12 10 7 6 6 7 9 12 15 16 17 21 26 30 32 33 37 42 46 50 57 63 70 74 73 75 74 72 72 73 77 72 68 54 38 33 31 29 26 27 29 26 32
55 52 46 39 35 31 28 25 22 19 15 12 10 8 8 10 11 15 17 17 18 18 22 24 28 33 38 42 44 47 47 55 64 75 81 79 76 70 68 70 71 61 64 66 44 31 27 39 33 29 28 33 27 29
54 50 42 37 32 28 25 24 22 20 18 15 14 12 11 12 14 17 19 23 24 24 27 29 30 36 39 40 48 51 51 58 68 73 73 72 75 74 66 61 62 60 56 51 52 51 43 46 43 40 52 51 45 39
51 45 40 37 32 27 24 24 22 21 18 17 16 16 15 15 19 22 24 27 30 30 32 33 34 42 44 49 54 60 64 64 67 67 67 70 72 67 67 62 62 56 60 56 51 48 54 56 52 49 55 42 49 44
46 40 35 34 30 26 23 24 23 21 19 18 19 20 19 17 20 25 26 29 32 35 34 39 39 44 47 50 56 64 68 70 70 68 63 62 68 64 65 65 59 53 52 52 49 49 63 60 62 64 60 56 54 51
41 36 33 32 29 25 23 24 24 22 20 19 17 17 21 22 18 18 27 32 35 37 37 40 45 48 51 59 60 59 64 63 60 64 60 55 64 63 69 68 55 53 53 53 54 56 69 67 68 63 62 60 66 68
38 34 31 31 27 25 23 24 23 22 21 20 20 20 20 23 23 23 24 28 33 38 38 39 47 50 57 65 66 70 67 62 59 62 60 65 61 58 59 53 50 58 57 56 55 55 76 67 62 74 73 68 68 70
36 32 30 28 26 23 26 25 22 20 21 23 20 21 22 22 25 26 29 30 30 35 37 45 46 52 60 66 68 65 65 69 62 67 65 55 55 51 48 44 51 56 58 58 52 52 56 61 70 66 75 79 78 79
35 32 29 28 26 23 25 24 21 18 20 22 18 18 22 25 25 24 28 33 35 33 32 40 47 54 61 66 68 68 64 67 53 54 59 59 55 44 44 47 48 55 61 59 60 57 63 65 68 72 68 69 69 67
34 32 29 27 24 24 24 23 19 19 21 20 19 19 20 22 25 25 26 30 33 36 37 42 49 55 57 62 62 58 57 64 57 56 54 52 55 45 53 54 56 56 54 62 64 62 63 71 69 67 74 77 79 77
34 32 29 26 24 23 21 22 23 24 23 21 21 20 20 21 24 25 26 28 29 29 32 34 36 44 52 57 59 58 59 58 59 58 56 57 52 53 62 63 66 65 61 59 56 56 59 63 70 78 79 76 78 84
34 32 30 28 24 22 21 23 23 25 24 25 26 26 25 24 24 25 29 31 30 29 29 31 34 37 43 48 51 54 55 63 64 61 57 50 47 51 59 61 64 63 62 59 57 61 68 76 73 74 75 75 79 84
39 37 34 31 27 23 22 21 22 24 23 25 28 29 28 28 29 29 30 31 30 28 26 24 25 27 28 29 35 43 47 54 59 62 61 59 54 50 52 56 60 58 59 59 63 65 70 76 76 79 82 82 81 83
37 40 41 37 32 27 23 22 22 22 23 24 26 28 30 32 30 31 32 31 28 26 24 22 22 24 22 19 20 22 26 34 48 51 50 53 57 61 65 60 54 63 64 67 69 69 74 78 81 85 86 88 88 89
31 34 36 40 43 35 27 22 20 20 21 21 21 23 25 27 29 30 29 27 26 25 25 23 21 20 21 23 25 27 29 32 38 43 48 52 55 56 60 61 60 61 71 75 75 77 78 78 79 82 85 86 87 87
27 29 36 37 36 35 34 32 27 23 19 17 17 18 17 17 17 18 20 22 23 23 23 22 21 22 23 24 25 26 27 29 32 36 41 47 53 57 62 67 69 69 71 74 78 83 84 86 90 91 92 94 93 93
25 29 32 30 28 28 31 31 33 33 30 24 19 15 11 10 10 9 11 12 12 15 15 18 20 21 21 23 24 25 26 28 30 32 34 37 40 44 51 58 64 68 70 71 73 76 78 80 80 82 83 83 82 82
22 23 22 22 22 22 23 24 25 24 23 23 23 23 20 17 12 8 3 4 9 13 15 18 20 22 24 25 27 29 31 33 35 37 38 40 43 45 48 51 52 56 61 60 62 65 66 68 69 70 72 73 73 76
22 21 20 19 18 18 18 17 18 18 18 17 16 15 13 13 12 10 9 7 6 5 5 7 9 13 17 20 24 28 31 33 35 37 39 40 41 43 45 46 48 51 56 57 58 59 63 66 68 69 71 73 73 75
20 21 19 18 18 18 18 17 16 15 14 14 13 14 13 12 12 12 13 13 13 15 17 19 21 22 24 26 28 29 30 31 32 33 33 33 35 40 39 38 40 46 42 47 50 51 54 56 57 59 61 63 64 65
24 23 22 21 20 18 19 19 17 15 14 14 16 15 15 15 18 19 18 18 21 23 25 28 30 30 32 33 33 34 35 35 36 39 39 38 39 44 50 43 42 48 49 49 53 53 56 58 59 60 62 64 64 65
26 24 24 20 20 22 25 24 23 23 22 21 20 20 21 21 23 25 25 25 27 28 29 31 33 34 35 34 34 33 36 38 37 37 39 39 38 39 43 46 47 47 48 49 50 54 58 57 58 59 60 60 61 63
28 28 27 28 29 28 26 26 27 27 27 27 26 26 26 27 28 28 28 27 27 26 26 27 29 31 33 36 38 37 37 40 41 41 41 41 41 41 42 42 43 44 45 46 47 46 49 52 52 53 54 54 54 54
30 28 27 25 25 26 27 28 30 32 32 32 31 31 31 31 31 30 29 28 29 32 33 34 35 35 35 36 37 35 31 33 35 36 36 36 37 38 39 40 41 42 42 42 42 42 43 43 45 46 46 47 48 48
36 36 35 33 30 30 30 30 31 34 37 37 35 32 30 31 32 31 30 31 33 36 37 35 34 33 33 33 33 32 30 28 28 29 30 30 31 32 33 34 35 36 36 37 37 38 38 39 39 39 40 41 41 40
35 36 37 38 37 35 33 32 33 33 35 39 39 36 33 33 32 30 31 37 42 43 40 38 37 36 35 35 34 32 30 26 25 25 24 25 25 25 26 26 27 28 28 29 30 31 32 32 33 33 34 34 34 34

GFSWCAN_250_spd_012.txt.gz
Wind_Speed
122 122 118 110 100 92 83 78 74 67 61 56 53 50 48 46 43 42 41 40 41 40 37 41 40 39 40 43 46 52 54 57 61 64 69 76 96 110 112 109 100 91 84 73 74 68 67 67 60 48 58 55 54 59
114 109 101 94 85 78 73 66 60 55 51 48 44 41 39 37 35 32 32 32 33 31 33 33 33 35 36 38 42 46 48 46 53 59 68 69 80 92 103 100 87 84 85 73 71 63 65 66 68 69 68 58 54 58
106 97 89 81 75 68 60 54 51 49 46 41 36 33 30 28 27 25 23 23 23 24 24 24 25 27 29 32 36 38 38 44 47 55 61 61 68 77 83 82 79 81 78 74 71 67 70 67 68 64 62 57 57 55
97 87 79 71 64 56 51 48 45 40 35 30 26 23 22 20 18 16 14 13 13 13 13 16 19 22 23 25 27 32 37 39 46 51 51 55 64 70 77 79 82 77 74 66 63 65 63 62 63 59 57 54 53 47
88 78 69 59 53 50 46 41 37 33 29 26 24 22 18 15 13 10 7 7 8 10 12 14 16 18 20 22 26 32 35 38 43 45 48 59 66 71 76 75 77 75 67 65 61 60 52 52 55 52 57 55 47 42
80 69 60 54 49 46 41 36 32 29 27 26 24 20 15 11 10 7 4 1 4 10 13 15 17 19 22 25 28 31 35 38 43 47 53 65 77 75 76 74 73 68 68 61 61 55 44 43 44 52 45 38 39 40
72 62 55 51 46 42 37 32 29 26 24 21 20 17 13 12 11 11 12 10 10 10 12 17 22 27 28 28 30 32 37 41 46 52 63 73 75 70 72 74 70 64 67 62 48 44 42 45 47 40 35 32 33 35
64 57 52 49 45 40 35 30 27 25 22 18 16 15 15 15 16 17 17 17 16 15 18 20 25 30 33 33 36 36 41 46 52 59 66 72 71 72 70 77 70 61 50 49 50 54 49 55 62 47 38 41 35 40
61 54 50 46 42 37 33 29 28 24 21 19 16 14 14 15 16 20 22 24 24 20 22 30 37 38 36 40 39 40 42 47 52 62 69 75 65 53 56 65 64 61 61 67 61 64 62 47 46 40 38 36 34 39
57 51 48 43 38 35 30 29 28 25 21 18 15 13 15 15 20 22 28 29 29 30 23 27 36 43 43 43 42 42 44 51 57 63 71 78 80 68 60 66 72 69 76 75 69 64 56 55 48 40 35 33 33 28
55 50 44 39 35 30 28 29 27 23 21 18 16 16 15 17 20 26 32 34 35 34 32 31 34 48 48 50 49 52 58 60 63 73 78 71 72 65 72 67 78 70 67 76 73 67 67 63 53 48 43 34 31 32
51 46 42 36 32 28 26 29 28 25 21 20 17 18 15 17 21 30 36 42 42 40 41 47 50 50 49 52 56 53 56 61 67 73 70 73 79 76 76 72 70 70 71 72 70 69 69 69 44 46 43 43 42 39
47 43 38 34 29 26 26 28 28 24 20 18 16 16 18 21 25 28 37 47 52 48 53 56 57 54 51 56 57 54 55 60 64 68 74 74 79 83 83 82 77 80 76 75 70 68 69 72 66 52 51 51 45 46
44 39 35 32 28 26 25 26 27 25 22 20 16 15 17 20 23 29 37 44 49 52 52 57 61 67 63 56 58 50 57 59 62 65 66 69 71 72 75 77 73 70 63 75 79 69 69 63 54 58 61 60 49 43
42 38 33 31 28 26 25 24 25 23 23 22 21 18 19 20 21 26 35 47 44 44 50 53 61 69 63 55 58 58 57 51 61 59 62 68 68 68 68 64 64 70 67 57 56 63 65 58 51 51 58 65 59 57
41 36 32 28 26 24 24 23 23 21 21 23 20 18 20 19 21 24 31 35 35 51 55 60 66 65 59 50 53 50 50 51 50 52 57 57 53 59 60 63 63 60 62 59 53 52 46 49 53 57 59 62 66 66
38 33 28 26 25 25 24 22 20 21 22 22 20 20 21 22 20 27 30 29 39 47 50 60 62 66 58 53 48 50 45 45 47 47 47 53 52 48 48 53 62 66 59 61 61 56 57 57 55 60 64 62 67 69
39 33 28 27 25 23 22 22 21 22 21 19 20 20 22 21 19 22 27 33 39 45 50 55 58 60 62 59 53 47 49 42 42 41 39 37 40 47 50 50 55 62 60 63 64 61 61 66 62 66 67 66 69 70
38 34 30 28 25 24 23 24 21 23 22 21 20 20 18 20 20 22 27 30 32 40 52 52 52 53 54 55 55 49 53 50 49 44 47 52 47 47 48 48 44 45 48 52 55 65 66 68 67 68 69 73 74 76
34 36 32 31 28 26 25 23 22 21 22 24 22 23 22 21 23 23 23 23 23 26 33 44 51 54 52 52 54 53 52 55 57 58 56 49 47 52 54 51 46 46 54 55 56 61 65 69 72 72 74 74 75 75
31 34 34 34 32 27 25 23 21 19 22 24 23 26 27 25 25 28 26 23 23 22 23 29 37 40 49 57 57 54 54 55 56 57 63 60 59 56 52 53 53 46 62 66 65 66 67 68 68 71 78 81 77 78
30 28 28 31 37 35 28 22 19 17 20 18 19 19 20 21 20 21 21 20 22 23 22 23 25 24 24 29 34 39 48 48 49 54 56 63 69 64 62 58 55 52 55 73 73 73 73 75 76 78 80 82 80 79
24 24 26 31 32 29 28 29 24 21 18 14 12 12 13 12 12 12 11 12 13 15 17 20 21 24 25 25 28 32 34 38 43 50 56 60 62 64 70 70 68 68 65 66 67 72 78 81 80 80 80 83 83 83
22 22 24 26 24 23 23 23 24 22 23 21 16 11 6 3 0 5 8 9 11 12 13 16 18 21 24 27 30 33 36 38 41 42 44 46 49 51 54 58 60 63 68 66 67 70 72 75 81 83 83 86 87 88
19 19 19 19 19 19 19 19 18 17 16 15 14 13 11 9 7 5 2 5 10 15 18 21 23 25 28 31 33 35 38 40 42 44 45 45 46 49 50 52 55 58 66 64 66 69 72 75 77 79 83 83 84 88
22 20 22 22 20 17 15 16 16 15 15 13 12 11 8 11 13 13 12 12 13 14 15 17 18 22 26 29 32 35 38 41 43 44 45 44 46 51 51 48 46 53 59 58 61 62 62 66 69 72 74 77 79 80
24 28 32 36 36 27 31 28 21 19 18 19 19 17 16 16 18 19 19 20 21 22 24 26 27 29 31 33 34 35 36 41 42 44 42 38 40 46 54 51 45 51 49 49 55 58 60 62 64 66 67 69 71 73
25 22 17 8 21 23 6 16 22 23 23 22 21 21 20 20 21 20 21 20 21 22 23 25 27 28 29 31 32 32 35 41 41 44 44 39 40 45 53 54 50 49 49 50 54 56 58 59 61 63 65 66 67 67
26 23 16 7 8 18 21 23 27 28 28 28 28 28 28 28 29 28 26 24 23 23 25 28 31 32 32 32 31 32 38 41 43 44 43 40 36 37 42 47 50 51 52 51 52 54 56 54 57 58 60 61 62 62
33 32 29 26 24 24 24 26 27 29 32 35 35 35 34 33 33 32 30 29 30 31 35 38 36 34 32 31 28 27 30 32 35 37 38 38 37 36 36 36 37 39 41 43 45 45 48 50 51 50 51 52 52 53
36 36 35 35 36 35 32 31 31 31 33 35 39 39 38 38 38 36 33 30 30 33 37 35 33 32 29 28 27 25 26 26 28 30 30 30 31 31 31 33 34 36 37 39 40 41 42 43 44 44 45 45 46 47
34 35 37 38 39 40 40 37 37 37 36 33 35 36 36 35 36 37 36 33 31 35 39 38 35 32 29 27 28 27 27 28 26 26 26 26 26 26 27 27 28 29 31 32 33 35 36 37 37 37 38 39 39 40
33 33 33 34 34 35 38 39 37 37 39 41 40 41 45 45 42 40 36 34 33 35 38 38 37 36 33 31 30 30 30 28 28 28 27 27 26 25 25 26 26 27 28 29 29 30 31 32 32 33 33 34 35 36

GFSWCAN_250_spd_015.txt.gz
Wind_Speed
120 115 113 101 91 80 73 69 66 60 54 50 49 47 44 40 36 34 34 32 34 32 32 38 37 37 38 39 42 45 47 49 52 57 68 77 87 97 103 107 117 121 121 112 107 99 95 88 89 86 78 75 61 56
114 110 98 88 77 71 66 61 56 49 46 44 41 37 33 29 25 24 25 26 26 25 29 26 29 30 32 34 35 36 37 40 42 47 58 63 65 73 82 97 107 110 114 104 104 106 99 90 84 78 71 70 59 44
109 98 88 78 72 66 60 54 48 43 40 35 32 29 25 21 17 15 15 15 16 17 16 17 19 22 25 29 30 30 30 34 39 45 48 56 58 65 72 84 98 102 106 100 93 96 94 88 80 78 68 49 41 42
103 91 80 74 65 59 54 49 44 39 34 30 28 27 23 18 14 12 10 8 6 8 9 12 15 16 16 20 24 24 25 27 33 39 43 48 57 66 71 78 85 91 93 90 86 82 76 72 69 37 39 37 36 38
95 85 78 68 60 54 49 44 39 34 31 28 27 26 23 20 16 13 10 6 2 4 6 9 11 15 16 17 17 20 26 29 31 34 39 46 57 58 64 71 77 87 84 79 85 76 65 60 62 34 37 43 56 53
91 81 72 63 56 49 44 40 35 32 29 27 26 24 21 19 18 15 13 10 6 3 4 8 10 14 16 18 19 21 23 27 31 35 39 41 45 49 52 57 64 61 72 72 70 57 56 60 52 54 61 53 59 55
85 77 66 59 52 46 41 36 33 31 29 26 24 23 20 17 17 19 19 16 13 11 10 12 14 16 22 21 22 23 27 31 34 37 40 43 44 46 47 54 58 64 69 66 66 61 61 54 48 52 56 60 53 47
81 69 61 54 47 42 39 33 31 29 29 27 23 22 20 19 20 22 23 21 18 17 18 22 24 28 29 29 30 34 35 38 45 47 47 48 47 50 58 62 61 69 67 62 64 67 63 54 50 54 54 59 50 39
75 63 55 49 43 39 36 30 30 29 28 25 21 20 20 24 26 27 26 27 25 23 23 22 26 33 35 32 34 38 41 44 47 48 49 53 55 57 58 58 57 69 68 63 64 57 63 65 59 55 58 66 59 42
68 56 50 43 39 35 32 28 29 25 25 24 18 21 22 27 30 31 33 28 24 26 31 34 37 40 39 38 37 38 36 40 44 49 51 55 56 61 62 59 54 55 58 64 66 63 68 70 64 52 51 46 48 50
63 52 45 39 35 32 29 28 26 24 22 18 20 17 25 31 37 39 40 39 37 40 45 45 44 44 44 44 42 41 44 47 61 59 54 55 55 57 57 56 62 63 59 57 59 73 68 57 58 58 53 50 50 50
58 48 41 35 32 30 27 27 26 22 19 16 15 15 27 33 39 45 48 47 49 55 56 54 52 49 43 48 45 47 53 55 59 57 58 53 56 58 63 62 62 67 64 61 59 61 63 53 53 54 49 48 46 42
55 45 37 33 30 28 26 26 24 25 20 17 10 15 28 30 43 47 54 52 54 57 57 57 52 44 42 42 46 49 50 48 56 60 56 55 52 52 61 59 59 57 55 54 55 53 57 60 62 59 54 55 47 45
51 42 35 32 28 24 23 23 23 24 20 18 14 19 26 28 35 40 49 50 52 55 55 51 47 42 40 42 46 48 48 51 55 61 59 55 57 62 61 61 62 58 57 56 55 59 59 61 63 60 60 53 47 39
46 39 33 30 27 26 23 20 20 20 17 17 12 14 14 16 26 37 46 51 50 53 51 46 44 43 40 37 38 42 46 54 54 57 59 54 55 62 66 63 64 61 59 58 61 61 64 65 67 66 69 60 49 50
41 34 30 29 27 25 24 21 20 18 17 15 15 12 15 17 23 35 45 47 48 47 49 43 38 39 40 38 36 35 34 41 56 62 61 62 54 63 62 63 63 64 71 65 62 61 62 68 70 69 70 73 69 65
38 32 28 28 28 27 26 21 16 17 16 14 15 18 17 20 23 26 38 45 43 41 40 45 38 35 37 33 36 35 37 37 43 42 57 56 58 63 65 64 60 59 73 75 72 67 68 69 73 76 78 73 70 70
36 31 26 26 27 26 24 26 20 20 18 16 17 17 14 18 18 17 32 40 43 39 37 42 44 34 34 35 33 35 32 37 41 45 53 47 55 62 67 69 68 67 68 69 76 77 74 71 76 75 78 78 76 79
37 34 29 26 25 24 25 26 24 23 18 16 18 16 13 11 17 14 28 42 42 44 40 37 35 41 36 36 38 40 41 39 36 41 45 52 60 63 69 71 76 73 72 75 77 79 82 83 82 80 78 76 65 60
33 33 33 28 25 25 25 24 26 22 20 19 18 16 14 9 12 12 24 46 43 40 39 39 35 37 43 36 37 41 40 38 40 44 42 42 45 50 54 56 58 64 67 73 76 77 77 79 74 73 76 73 69 69
27 32 29 27 28 27 25 22 19 18 22 21 19 17 15 15 10 7 8 25 41 41 42 40 45 41 43 48 45 38 41 42 46 46 40 43 44 44 44 44 42 44 48 49 52 59 68 75 74 75 83 77 75 79
26 25 24 24 26 30 29 24 19 16 17 13 12 11 11 10 8 8 8 11 16 23 29 33 37 47 52 50 50 52 52 53 52 53 52 54 57 57 57 57 58 58 60 57 56 56 61 62 69 77 82 78 73 73
25 27 26 27 29 28 25 25 23 21 16 13 12 10 10 8 5 1 4 8 12 15 16 18 22 27 35 43 48 50 50 51 54 58 58 59 60 61 61 61 67 67 64 64 63 64 63 66 64 74 76 76 80 83
26 24 26 28 30 32 35 33 30 24 18 15 13 13 18 13 10 12 14 16 15 17 20 22 25 28 30 32 35 37 39 40 43 47 50 52 54 58 58 60 62 61 60 61 64 68 69 71 74 75 77 85 93 94
21 29 34 29 24 26 32 35 33 27 21 16 12 10 9 16 15 14 17 19 19 20 23 26 28 28 31 32 34 36 42 44 44 46 47 50 51 48 52 57 61 58 54 56 60 61 60 64 68 71 71 73 79 85
20 27 30 33 31 32 37 44 33 27 23 19 15 14 14 20 23 25 23 22 22 23 24 27 29 30 32 33 34 35 41 47 42 39 39 44 49 54 55 48 49 56 54 57 60 60 61 62 64 66 67 68 69 73
23 26 30 28 16 20 28 25 25 26 26 25 24 22 21 21 21 21 21 20 21 22 22 22 23 25 26 28 32 34 39 41 39 40 38 39 44 49 54 54 55 54 48 50 53 58 60 60 61 61 61 61 63 65
17 10 13 28 25 22 23 25 25 26 28 31 33 33 32 30 28 28 26 25 21 18 19 22 25 28 29 29 31 35 38 38 39 38 36 37 38 40 43 45 46 50 51 50 48 47 47 51 55 57 59 61 62 62
21 16 19 21 24 24 25 27 29 30 29 31 33 35 36 38 38 36 33 29 25 24 25 29 34 35 32 29 28 31 29 29 33 35 34 33 32 31 33 35 37 38 39 40 43 44 43 45 45 46 48 50 53 54
25 26 29 31 33 34 35 36 36 35 36 36 37 39 42 43 42 39 38 35 32 30 29 30 35 36 33 30 26 26 28 28 30 31 31 31 31 31 31 29 29 29 30 31 34 37 39 41 43 43 44 44 45 45
28 28 30 31 31 34 36 35 36 36 33 32 33 35 37 41 42 40 39 39 35 31 28 28 31 33 33 31 28 25 26 27 27 28 29 29 29 29 29 29 29 28 28 28 29 30 32 33 35 37 38 38 38 38
32 34 33 33 32 32 33 35 36 37 35 34 36 38 39 42 43 45 45 44 41 35 31 30 30 31 32 32 31 29 29 28 28 27 27 28 29 28 29 29 29 29 29 29 29 30 31 33 34 35 36 37 37 37
33 35 33 33 32 34 37 37 37 39 40 40 40 40 42 43 44 45 42 41 40 38 36 34 32 31 31 32 33 32 30 29 29 29 29 29 29 30 31 29 28 29 29 29 29 29 29 29 30 30 31 31 32 32

GFSWCAN_250_spd_018.txt.gz
Wind_Speed
117 115 110 96 84 72 64 58 54 50 47 43 41 40 39 37 34 29 25 26 25 26 33 33 35 37 41 46 49 53 58 61 66 70 74 82 87 97 112 129 135 137 135 133 127 124 115 105 102 99 89 85 75 69
115 113 101 90 76 68 62 56 51 49 45 41 37 34 32 28 24 21 19 16 15 19 20 25 27 29 31 34 37 40 43 48 52 57 59 62 70 77 84 102 124 134 134 130 128 127 120 107 103 99 92 85 78 69
114 109 96 82 74 66 58 54 48 44 40 36 33 30 27 23 18 14 11 9 8 10 13 15 18 22 26 28 30 32 35 37 38 41 47 55 59 67 76 88 99 117 123 122 127 124 118 104 102 96 93 84 79 69
113 102 92 79 71 63 57 51 44 40 38 35 33 31 28 24 19 14 10 7 3 2 3 7 10 14 18 22 26 29 31 30 30 36 44 50 60 64 71 76 87 101 113 115 118 120 114 100 95 91 83 75 66 56
109 95 86 75 67 60 55 48 43 38 36 34 32 31 28 24 20 17 14 9 5 3 5 4 5 10 16 20 24 27 26 26 29 34 37 44 49 57 66 70 80 94 102 104 102 108 104 92 88 72 73 62 62 65
102 90 79 71 62 55 51 45 39 36 36 36 34 32 29 27 23 21 18 15 11 7 5 7 9 11 12 16 19 22 25 30 33 33 36 40 44 54 61 64 75 87 93 100 102 99 90 75 78 71 53 55 55 56
93 85 73 64 56 50 46 42 38 36 32 32 31 31 30 30 29 29 26 24 20 16 11 7 7 10 12 14 19 20 24 27 29 31 35 36 41 49 54 67 82 86 86 90 96 96 75 71 69 68 64 47 40 46
88 78 69 58 51 47 41 38 35 32 29 30 29 30 31 29 32 31 28 26 24 20 16 16 15 13 15 18 23 24 26 29 31 34 37 41 45 46 49 54 66 67 77 82 84 87 74 68 68 64 62 53 45 39
83 71 64 52 45 41 36 32 32 29 27 26 27 29 33 32 30 33 33 32 29 28 28 25 25 25 24 20 25 29 32 34 35 39 40 40 42 43 44 47 46 49 59 64 68 67 57 62 63 64 60 53 61 55
75 66 58 47 40 35 31 28 28 26 26 23 22 32 27 30 33 34 39 38 37 36 37 38 37 35 33 34 36 38 39 41 41 43 45 45 43 45 46 45 43 47 51 49 44 48 56 57 58 67 67 63 69 68
69 61 53 43 36 31 27 24 24 22 24 18 17 22 28 29 39 41 42 47 45 39 37 38 43 44 42 43 42 46 47 46 45 43 41 43 45 43 38 37 40 44 50 48 47 49 58 61 58 63 64 63 67 57
62 56 48 39 32 27 24 23 20 21 20 15 11 17 30 33 22 28 38 43 38 43 40 39 41 42 43 44 45 49 56 54 50 47 46 49 53 45 41 38 38 50 51 53 52 56 60 58 68 64 65 64 58 52
57 50 43 36 30 26 23 20 16 16 19 9 7 20 33 24 26 28 38 41 40 34 38 34 34 40 39 42 47 54 53 52 52 49 48 45 39 44 47 45 47 48 50 52 50 56 58 62 60 59 56 64 55 48
53 46 40 33 27 23 19 18 16 12 11 5 7 18 22 28 25 25 30 31 33 32 32 32 28 28 35 39 48 55 53 52 52 52 52 47 48 44 42 48 51 51 55 57 61 61 59 54 60 59 63 66 60 54
51 43 37 31 24 21 20 19 16 10 10 6 9 12 19 23 21 23 32 31 32 28 24 23 25 27 27 33 37 41 47 47 44 45 44 45 47 46 41 41 42 44 49 51 52 57 61 63 56 49 52 55 54 57
48 40 35 30 25 26 23 19 15 12 8 4 3 10 19 18 21 21 29 32 28 29 24 16 14 24 25 26 29 26 39 48 44 40 43 46 45 43 43 43 41 46 51 54 51 51 61 61 59 56 56 57 61 58
46 38 32 29 27 27 25 17 16 14 10 5 3 6 20 16 21 15 30 29 29 23 19 17 12 13 21 24 27 29 26 41 42 38 39 44 44 44 45 46 51 51 51 50 47 48 50 52 54 53 55 57 63 63
42 37 32 28 26 27 24 24 19 19 17 12 7 6 10 16 20 21 20 26 28 24 21 17 20 14 15 17 22 31 32 30 38 45 47 46 48 47 47 49 50 47 55 53 53 51 53 53 53 56 60 64 66 69
36 34 33 31 28 25 30 30 30 25 21 18 16 13 6 11 15 21 20 22 27 29 24 19 18 22 26 23 21 22 27 35 39 44 46 48 50 45 46 53 54 52 60 60 64 64 62 63 67 68 68 68 69 71
27 28 32 35 30 30 31 29 28 25 26 25 22 16 8 6 5 12 25 22 24 23 28 32 23 23 26 31 33 33 31 30 33 36 43 55 55 58 58 57 56 64 66 66 68 67 68 70 70 68 70 73 75 76
18 20 26 27 26 33 35 32 27 23 22 23 19 15 14 9 5 2 19 31 23 24 29 30 31 40 34 31 32 34 38 41 42 41 39 42 52 63 67 67 71 68 71 75 77 79 76 75 78 81 80 81 83 83
16 19 23 22 25 34 37 27 25 22 16 13 10 7 6 5 6 8 8 15 33 38 32 34 36 36 36 36 37 41 42 42 41 42 45 48 49 49 53 57 67 77 84 81 79 83 88 89 91 92 92 89 89 93
17 18 20 23 31 34 35 30 23 20 19 19 20 21 22 15 11 10 11 13 14 19 26 33 39 43 43 42 42 42 43 45 46 48 51 52 56 57 58 59 59 61 60 61 62 65 70 76 85 92 96 102 99 100
20 19 14 20 30 35 36 35 32 26 19 14 19 24 27 22 14 13 16 18 19 20 21 23 26 29 30 36 37 35 36 38 40 37 39 47 52 53 51 51 51 54 57 58 61 67 72 74 73 72 74 77 76 77
13 22 31 35 36 37 33 30 30 28 27 25 24 23 25 26 27 27 27 26 26 25 24 24 27 27 26 31 39 35 28 29 36 42 43 43 43 48 51 50 48 49 49 50 51 54 58 62 64 65 65 71 74 75
24 28 33 35 31 28 26 25 23 22 22 22 24 26 28 27 26 24 24 24 25 25 25 24 21 20 21 27 31 35 36 35 35 36 39 40 42 42 45 49 49 49 47 47 48 49 52 56 59 60 61 63 66 70
30 31 27 27 27 26 25 24 22 22 24 27 29 30 32 32 30 28 27 26 26 25 23 20 20 21 23 28 33 32 33 35 36 39 39 38 39 40 41 43 45 46 47 45 44 45 46 47 49 53 55 55 55 56
25 23 25 29 30 31 31 32 32 32 30 30 31 32 32 34 35 34 34 32 28 22 20 21 20 20 26 31 30 28 27 27 25 26 30 32 33 34 35 37 38 39 40 40 41 42 42 42 42 43 46 49 51 53
28 28 28 28 29 29 30 32 34 35 36 35 33 33 35 35 36 37 37 34 35 34 31 28 27 24 26 31 31 30 29 27 24 23 24 26 28 31 32 33 35 36 38 38 38 38 37 36 37 39 40 42 44 46
30 28 28 26 27 30 32 34 34 35 34 35 38 40 38 40 40 41 43 43 40 40 39 34 31 29 26 26 31 31 29 28 28 28 27 27 27 28 29 30 31 31 33 34 34 34 34 34 34 35 35 36 37 39
25 29 31 35 38 40 41 40 40 39 39 38 35 35 37 38 42 41 41 44 46 44 42 38 34 33 31 27 25 27 28 28 28 28 29 30 30 30 31 32 32 32 32 33 34 34 33 33 33 33 33 33 33 34
28 34 36 36 37 40 41 39 39 37 34 35 36 38 40 41 44 47 45 44 45 42 39 37 34 33 31 29 27 26 25 26 28 28 29 30 32 33 32 32 33 33 33 33 32 32 31 30 30 30 30 31 32 32
27 31 33 36 37 39 42 41 42 42 38 38 40 42 42 40 41 46 50 48 45 42 38 36 35 33 31 29 27 26 26 27 27 28 30 30 31 32 35 35 33 32 31 30 30 30 29 28 28 28 28 28 29 29

GFSWCAN_250_spd_021.txt.gz
Wind_Speed
115 115 114 106 92 79 69 60 57 53 50 44 40 37 33 31 29 26 24 21 19 20 21 24 32 38 43 48 52 58 65 69 74 84 96 109 122 129 126 118 121 121 123 115 106 102 94 95 94 92 85 80 76 73
114 112 110 97 86 75 65 59 55 51 46 41 37 34 32 30 27 22 20 17 14 13 13 15 19 25 31 37 43 49 53 57 62 67 72 78 88 102 121 130 130 128 124 116 113 106 99 100 98 95 89 82 82 77
111 107 104 90 77 70 61 58 53 48 43 39 36 35 33 30 28 23 19 16 12 9 7 10 15 19 23 28 33 38 41 43 47 52 56 63 68 76 89 102 118 128 127 122 116 109 106 105 103 96 90 81 81 81
108 107 97 83 72 62 58 53 49 45 42 38 37 35 33 30 27 25 21 16 14 11 6 4 7 12 16 19 21 24 28 30 34 40 46 52 58 63 69 75 80 95 110 122 125 121 116 110 105 95 82 80 80 79
105 103 90 76 66 58 54 49 45 43 39 37 37 35 34 33 31 28 24 20 17 16 12 6 0 4 7 11 14 19 23 25 30 33 37 43 48 52 55 56 65 80 88 101 119 122 120 116 109 104 93 87 75 81
104 95 87 72 60 53 49 45 42 39 36 37 32 33 34 32 29 28 28 26 22 18 15 11 10 6 7 10 11 13 18 22 23 26 27 32 37 40 42 48 57 62 61 73 92 106 110 102 80 70 84 107 89 88
103 88 81 66 55 49 43 41 36 37 33 33 28 31 32 32 31 29 28 27 25 20 18 14 14 13 12 14 16 17 20 21 21 22 23 26 31 29 35 39 46 50 53 64 76 98 98 87 86 109 78 72 79 83
98 84 76 60 51 45 40 36 32 35 29 26 24 29 31 34 36 33 30 33 31 29 27 23 20 18 16 17 20 20 21 23 23 23 26 28 28 30 40 39 33 36 53 55 67 89 95 99 101 98 97 79 71 76
90 81 72 57 47 39 35 31 27 27 21 29 23 23 30 31 30 29 29 31 29 32 35 34 30 24 19 21 23 24 23 26 24 22 19 19 37 38 44 46 36 11 40 58 63 86 92 95 93 83 80 74 76 74
80 77 66 55 46 38 32 29 26 24 16 22 15 15 22 26 24 26 27 30 31 33 35 39 37 36 33 29 25 27 32 31 31 29 29 29 40 43 45 55 54 42 34 48 58 79 84 91 82 85 86 69 61 63
74 72 62 53 46 37 30 26 21 19 25 16 5 12 25 22 20 17 22 26 30 38 40 38 38 39 41 41 41 44 45 43 43 42 39 29 29 34 37 31 30 31 40 41 58 69 80 89 89 82 66 55 62 63
70 68 59 49 43 34 29 23 19 15 17 12 9 15 17 18 14 14 19 23 31 38 38 38 42 44 47 49 54 54 53 54 54 50 44 39 31 24 22 23 24 14 23 36 55 71 86 86 93 92 83 60 61 55
65 62 56 45 38 31 24 21 17 12 15 9 2 16 5 8 11 18 20 22 31 35 35 33 37 45 48 42 46 54 52 49 49 46 45 42 36 36 27 15 22 32 30 37 43 58 79 76 84 87 59 65 60 57
58 57 51 42 35 30 22 18 14 16 14 8 5 7 5 2 6 17 21 24 27 25 30 32 36 38 40 42 41 43 45 43 45 48 41 43 41 33 27 25 21 23 29 39 39 35 34 36 35 51 62 70 64 58
52 50 46 38 33 28 19 15 13 11 13 16 6 2 1 4 4 18 18 17 19 23 23 24 33 36 33 30 33 37 45 39 43 40 39 46 46 44 43 41 41 38 32 30 42 44 34 38 37 42 54 66 69 75
45 44 40 34 32 29 21 18 13 13 17 12 13 4 3 2 7 18 19 16 17 21 21 19 22 26 25 26 32 32 23 30 35 39 42 44 43 48 49 45 42 40 40 39 34 39 45 44 45 50 57 56 62 66
41 39 37 31 29 27 22 16 14 18 13 14 12 11 10 1 6 11 10 13 14 18 19 18 14 10 13 24 20 19 24 24 28 40 44 40 36 35 39 39 34 34 36 36 38 38 39 45 49 48 49 44 54 59
36 33 31 31 31 26 20 20 17 16 11 10 7 8 11 14 6 12 9 10 10 7 9 15 16 13 13 16 16 19 23 24 26 31 39 39 36 34 35 34 35 37 42 41 43 42 46 47 51 54 58 55 54 55
29 27 26 27 28 23 20 25 21 16 13 10 8 3 7 16 18 17 10 16 22 19 15 14 13 13 16 19 24 28 26 36 33 30 35 40 37 41 41 42 39 45 42 43 47 46 47 49 55 59 61 63 64 65
22 23 23 27 26 24 25 25 22 20 19 16 13 7 2 5 19 21 20 25 24 23 26 22 20 21 21 23 22 26 32 38 45 44 46 45 47 49 49 51 55 56 53 54 56 59 58 59 60 63 64 64 67 73
16 18 25 24 26 23 22 23 21 21 23 18 16 13 12 14 14 13 13 18 22 25 26 26 24 22 29 32 31 31 36 35 34 38 44 54 58 58 59 61 57 58 63 65 62 62 63 66 68 68 69 71 69 68
17 16 21 25 25 23 24 25 21 16 14 17 13 8 8 8 9 13 17 19 21 24 27 31 33 34 35 32 27 23 30 36 37 40 42 44 48 50 54 64 69 69 69 75 73 72 72 73 75 77 78 78 79 80
20 18 20 22 26 24 25 24 24 27 27 27 26 24 22 21 19 16 18 21 24 25 26 29 32 29 30 29 27 23 23 26 30 34 39 44 47 48 50 53 54 57 67 80 82 80 81 86 88 87 88 89 90 93
19 23 25 24 25 26 25 23 22 23 23 23 25 25 25 24 23 24 24 25 24 23 24 26 29 29 28 25 26 28 30 31 32 34 36 36 37 37 40 46 52 58 60 62 66 72 80 87 92 95 94 94 95 95
26 29 30 30 30 29 29 28 26 24 23 23 23 23 23 24 25 25 25 25 26 25 25 28 29 25 22 21 21 24 28 30 31 33 37 41 39 35 34 36 37 40 45 50 56 60 63 66 70 73 77 80 83 88
28 28 27 28 28 28 29 29 29 30 28 26 26 26 28 29 28 29 30 29 27 27 29 30 29 26 24 22 22 23 28 31 31 30 30 32 34 35 35 36 37 38 39 40 42 44 49 54 57 59 62 65 67 69
27 27 27 28 29 30 31 31 31 31 28 28 29 28 28 30 31 30 31 31 26 27 29 29 27 26 25 24 24 24 26 31 32 30 28 26 27 28 29 29 31 33 34 35 37 39 41 44 46 47 49 53 57 59
28 29 30 32 33 33 34 34 33 31 31 31 29 29 30 30 33 34 35 36 36 35 35 35 34 30 26 24 23 23 24 26 29 31 29 26 25 26 27 28 31 32 32 33 33 34 36 37 39 40 40 42 44 46
29 31 31 31 34 38 38 37 35 33 33 33 33 34 35 33 34 39 43 46 46 43 40 37 33 30 26 25 25 25 24 24 25 27 27 27 28 29 29 30 31 32 32 34 35 36 36 35 35 35 36 38 39 40
29 31 32 32 33 35 35 37 37 36 35 36 38 41 43 44 43 42 43 46 47 46 44 41 37 35 32 30 27 25 23 22 23 23 24 25 25 27 28 29 30 32 33 34 36 37 38 37 37 36 36 36 36 37
29 33 34 34 36 36 38 42 48 49 48 47 46 47 47 46 43 44 43 46 48 46 44 41 38 36 35 33 30 28 27 26 27 27 27 27 27 28 29 30 32 33 33 34 34 33 33 33 33 33 33 32 32 32
22 28 32 33 37 40 42 44 45 46 45 44 44 45 47 46 43 44 48 49 48 46 41 40 41 40 36 32 30 28 28 28 29 29 30 32 33 33 34 34 34 34 34 34 33 32 32 31 30 30 28 27 26 27
25 26 29 33 39 41 41 42 43 44 43 43 44 45 47 45 46 50 51 50 48 45 43 43 42 41 38 35 32 31 31 31 31 32 32 32 33 34 36 36 33 33 32 31 31 30 29 29 27 25 24 23 24 24

GFSWCAN_250_spd_024.txt.gz
Wind_Speed
106 108 113 109 103 90 76 67 61 58 53 51 48 44 39 35 32 29 24 20 19 16 13 16 22 29 35 43 48 53 58 66 75 85 95 109 114 107 101 106 108 107 107 101 103 97 91 87 85 85 74 72 71 68
108 106 112 106 95 86 72 63 57 53 52 52 46 43 37 34 32 30 23 19 17 16 12 9 10 14 21 30 36 40 43 49 56 66 74 86 97 106 114 109 109 105 99 101 99 87 87 87 92 86 79 77 77 77
105 108 108 105 89 81 67 59 53 51 49 47 42 40 39 39 36 32 27 21 18 15 14 11 6 5 8 14 20 26 32 37 44 52 59 67 76 89 101 111 112 105 105 103 99 90 86 90 93 91 87 83 81 81
103 109 104 101 87 74 62 54 49 45 46 41 40 40 38 39 38 35 33 26 20 18 16 14 8 2 4 9 12 16 22 27 33 39 45 52 60 68 79 86 95 106 113 106 103 96 92 90 90 91 91 90 87 87
104 108 101 94 83 68 57 50 45 41 43 38 35 36 38 38 38 39 34 29 26 22 20 17 14 10 7 7 9 9 11 18 21 26 32 38 43 50 54 61 71 79 88 95 103 103 95 94 94 93 89 86 89 83
103 102 100 84 79 62 51 46 43 37 34 33 33 33 33 34 36 37 36 32 29 26 21 18 18 14 14 16 16 14 13 12 13 15 20 26 32 39 43 50 56 61 67 77 90 96 104 101 95 96 93 91 79 72
102 97 98 79 73 59 48 44 38 30 30 32 36 33 34 33 39 32 33 36 32 33 29 24 23 21 20 18 17 17 19 18 16 16 16 18 22 25 30 37 44 49 55 62 69 76 93 106 105 100 92 89 90 89
100 96 90 75 67 53 42 38 31 27 21 26 31 36 34 37 39 33 31 35 35 34 32 29 27 25 22 23 21 18 16 15 17 18 17 14 14 19 23 28 35 37 38 44 52 59 73 93 99 101 101 93 94 93
95 96 82 71 63 48 39 34 23 23 19 20 27 30 37 32 34 31 29 32 33 34 35 35 31 32 32 31 31 30 30 26 26 25 20 23 28 26 21 19 21 27 30 34 41 50 58 72 85 97 97 90 86 88
90 93 75 66 60 46 37 30 21 18 17 17 22 27 38 29 29 26 27 26 28 34 42 45 47 50 52 45 39 41 41 37 40 36 32 35 26 29 26 18 18 21 27 40 36 41 50 59 76 86 80 75 72 64
90 84 69 61 57 47 36 28 17 14 15 16 15 22 32 32 28 21 24 28 33 42 46 49 53 56 58 56 55 52 46 41 45 44 39 32 24 27 27 21 25 32 15 10 28 41 48 47 70 75 73 80 86 79
89 72 61 56 53 42 32 25 13 11 10 13 18 25 30 18 20 20 21 25 30 41 47 53 51 52 52 53 52 54 51 43 44 41 36 34 24 18 21 23 30 19 19 12 24 35 53 76 78 78 96 93 90 82
81 66 56 53 49 38 28 20 10 8 9 10 19 25 17 15 21 16 18 24 32 39 44 42 44 40 43 45 45 46 47 46 41 34 34 33 27 29 27 29 24 20 11 13 12 29 46 63 62 67 74 69 80 97
68 58 53 48 46 35 23 17 8 10 6 4 18 19 9 8 16 18 20 25 31 32 30 34 36 35 33 34 38 34 34 36 39 42 37 32 24 25 17 21 21 16 19 17 15 42 32 52 71 75 75 76 73 69
60 54 48 46 43 31 21 13 10 9 6 2 14 7 7 16 18 18 21 21 25 28 26 25 22 23 26 29 30 25 23 26 28 27 34 36 28 13 20 16 21 17 13 12 18 49 51 53 66 83 79 90 90 73
51 49 44 43 36 29 21 14 11 6 4 2 7 2 6 5 10 10 13 13 17 20 23 22 24 18 13 14 19 10 12 13 29 31 30 32 33 28 26 19 16 9 7 6 15 31 58 60 53 60 71 81 73 62
45 42 42 38 30 30 22 13 8 6 8 5 5 4 4 12 7 4 6 2 6 8 17 21 20 15 18 17 15 11 8 11 20 25 28 24 27 29 35 31 32 27 20 16 20 17 29 37 37 37 34 35 59 73
34 34 35 37 34 31 23 15 13 9 8 5 6 10 12 5 8 11 11 14 11 6 7 16 24 19 14 21 18 14 15 15 13 33 31 28 30 26 36 35 34 32 30 25 28 31 33 41 40 30 34 42 40 39
24 28 33 37 30 24 21 22 20 15 9 5 2 7 13 15 18 19 18 16 19 20 19 18 20 25 26 29 29 26 26 22 31 28 39 39 34 38 35 36 36 34 33 32 33 31 30 31 35 37 40 40 42 46
27 29 29 28 28 24 20 18 17 14 12 12 13 11 10 12 13 13 15 20 22 20 16 17 21 24 24 23 30 40 37 37 36 36 43 45 46 45 45 44 46 43 43 42 43 48 46 48 48 47 48 49 52 56
26 27 24 22 21 19 19 20 20 16 17 16 16 18 17 19 21 22 24 26 23 21 20 19 17 15 21 28 32 32 32 36 43 48 49 49 51 53 54 51 51 52 52 56 54 53 55 58 58 60 60 61 62 63
25 22 21 20 22 23 20 20 18 16 13 15 17 17 17 16 14 16 18 22 25 27 28 27 25 22 20 20 21 27 33 40 44 45 48 50 56 63 63 60 64 63 65 67 67 65 66 70 73 72 71 74 74 75
23 26 27 27 27 26 26 26 24 22 21 22 22 22 22 22 23 23 23 26 27 28 28 27 24 25 25 25 24 24 27 32 36 39 41 43 46 49 53 58 63 71 76 75 76 76 78 79 81 82 82 83 84 86
23 23 25 26 27 27 26 24 24 24 23 22 22 24 25 26 28 28 27 29 30 28 25 24 24 25 25 25 27 28 29 29 30 32 32 33 36 39 44 48 52 56 60 66 73 80 82 84 85 86 87 89 90 91
24 25 27 29 30 31 31 30 28 26 26 27 28 28 28 28 27 29 31 32 33 34 32 27 22 25 28 27 25 24 24 27 28 29 28 28 29 31 34 36 39 45 49 52 54 57 61 66 71 75 77 81 85 89
26 27 28 31 32 34 35 34 32 29 28 28 28 30 33 32 30 32 34 36 38 36 32 30 26 23 24 26 28 26 26 25 26 28 29 29 30 32 33 35 35 37 39 42 45 48 52 55 57 59 61 64 67 70
29 30 30 31 32 34 37 38 36 34 32 30 29 30 34 36 36 34 35 35 37 39 37 34 33 32 30 29 27 26 26 26 26 27 28 29 28 27 28 29 29 30 31 33 35 37 41 45 47 50 53 56 58 60
26 30 31 32 32 34 36 37 38 39 38 37 34 32 34 36 35 36 40 44 46 46 43 39 36 34 31 29 28 29 28 27 28 27 26 26 26 26 27 27 26 26 28 30 31 33 34 36 39 42 45 47 49 50
26 28 31 31 33 37 38 38 39 40 39 38 38 38 40 42 39 41 46 48 49 47 45 43 41 38 36 33 31 29 28 27 26 26 27 29 31 30 30 29 28 27 27 27 28 29 30 32 33 35 38 39 41 42
25 28 28 31 34 38 41 39 38 38 36 37 42 43 45 47 47 46 48 50 48 45 45 46 45 41 37 33 28 27 26 25 25 25 26 27 29 30 31 32 32 32 31 31 32 32 33 33 33 34 34 34 34 36
26 29 31 32 35 40 44 42 44 43 41 42 41 44 46 48 49 50 49 49 47 45 46 48 47 43 38 36 32 30 29 28 28 29 29 28 28 28 28 28 28 29 30 31 31 31 31 32 32 31 31 32 32 32
28 30 32 34 37 40 40 40 43 42 43 43 44 44 46 48 49 50 49 48 48 46 46 47 46 44 40 37 36 34 33 33 32 31 31 30 31 31 30 30 31 31 30 29 29 29 29 28 28 27 28 28 28 28
26 28 31 33 35 34 33 38 40 42 42 41 42 43 43 44 47 47 48 48 48 49 48 47 45 44 43 41 39 38 37 36 35 34 32 30 30 30 30 29 29 29 28 27 26 26 25 25 24 24 23 23 24 24

GFSWCAN_250_spd_027.txt.gz
Wind_Speed
91 95 101 105 109 102 94 84 68 58 53 50 48 49 46 44 41 37 31 26 21 17 12 7 7 11 18 25 29 35 43 52 60 71 79 92 100 103 99 99 99 96 97 98 99 96 90 91 92 87 82 78 74 70
91 95 102 107 108 101 83 77 61 53 49 47 45 45 46 49 45 43 33 27 23 19 14 8 5 3 6 14 21 27 32 41 49 57 66 75 85 96 104 102 99 94 90 96 96 90 91 94 90 88 88 85 80 75
92 95 103 108 105 101 78 70 55 49 42 44 43 43 45 43 45 43 38 29 27 26 21 15 11 9 6 2 10 18 25 30 37 45 52 62 71 81 94 102 101 96 97 87 89 90 92 92 92 89 87 83 81 77
92 97 104 108 102 96 77 64 51 43 37 41 41 41 41 40 44 43 37 32 30 25 22 20 18 14 11 10 11 13 17 21 25 32 40 47 57 67 76 89 100 103 96 91 85 84 93 97 96 94 89 87 84 80
91 99 104 107 101 86 72 57 46 40 32 35 36 38 36 40 42 42 39 34 32 31 29 25 21 19 16 15 15 14 14 16 18 22 29 38 46 54 62 73 84 96 104 99 89 92 89 99 100 96 94 94 91 85
92 98 103 103 100 76 68 53 42 37 27 31 33 33 35 39 39 39 38 35 35 33 31 28 23 22 22 21 21 19 17 15 15 15 18 24 31 41 50 59 69 83 100 108 104 97 90 94 95 94 94 94 90 87
91 97 103 98 94 71 64 49 36 31 24 27 28 29 33 36 33 32 31 32 36 35 34 32 28 27 25 23 23 22 22 23 22 19 17 18 22 27 34 43 52 61 72 86 102 102 93 91 90 92 94 94 90 88
91 97 100 94 81 66 57 43 32 24 20 27 27 30 29 33 32 29 25 25 29 36 36 34 32 32 31 28 28 27 26 26 25 26 24 23 19 15 20 29 36 40 45 54 70 91 102 94 91 91 92 94 94 94
92 97 94 92 69 59 52 39 29 22 18 23 26 26 31 34 29 22 25 28 35 36 36 34 33 33 35 37 34 33 32 35 32 33 34 33 28 21 16 14 19 23 28 35 49 66 86 100 97 92 91 93 94 96
92 96 89 80 64 53 44 34 25 18 18 18 21 24 33 36 25 26 37 41 39 39 40 38 34 30 35 41 40 41 41 43 42 36 37 36 34 33 27 20 16 19 23 29 39 50 64 79 93 104 103 98 95 97
92 89 87 63 55 45 40 29 23 13 14 21 17 22 34 34 24 27 30 35 36 39 41 36 34 34 37 35 37 38 38 38 36 31 32 39 39 36 34 37 41 36 31 35 42 48 56 66 75 92 106 106 102 99
87 85 69 58 47 40 32 24 16 8 13 20 17 32 29 24 20 20 25 28 32 34 38 40 38 33 30 29 27 30 33 31 32 36 38 46 42 38 35 38 41 42 44 47 40 30 48 56 64 75 83 96 100 104
82 77 59 50 40 36 28 22 11 7 18 13 26 25 20 13 17 13 18 21 30 33 37 37 35 35 30 26 23 23 22 26 30 36 30 27 32 35 35 34 32 40 40 45 39 35 42 45 47 52 52 43 73 93
79 64 50 40 40 33 26 20 10 8 10 14 16 16 13 8 7 10 11 14 20 28 27 28 27 25 25 21 18 18 14 14 9 13 10 23 31 31 27 25 18 25 48 44 41 37 36 57 58 55 57 59 56 58
66 53 41 40 37 30 22 16 9 8 6 5 15 5 10 4 4 6 6 13 14 13 17 28 27 21 20 18 20 17 15 16 12 16 13 12 14 18 21 25 22 21 17 20 12 30 37 47 52 69 78 78 76 72
55 42 36 38 37 29 20 14 6 9 10 6 7 5 6 6 5 3 9 12 11 8 10 17 24 23 22 22 22 20 18 18 19 16 14 13 15 13 18 24 19 17 20 24 27 42 51 51 55 60 58 78 80 87
43 34 32 32 32 27 21 15 14 7 9 5 1 5 9 8 9 10 5 2 9 16 12 13 16 20 21 20 19 21 26 29 27 23 18 22 13 13 12 12 13 21 27 33 35 34 56 60 62 62 64 68 76 83
36 33 32 30 28 25 20 16 12 9 7 9 12 14 14 14 14 15 18 18 15 13 16 19 23 22 24 25 26 29 29 26 29 36 30 23 15 19 23 20 19 18 16 19 31 45 48 57 68 71 72 75 69 86
30 31 30 27 27 25 21 16 14 14 13 14 15 17 17 19 20 19 19 17 17 19 22 23 26 29 31 32 33 34 35 34 35 39 42 38 31 30 33 31 31 31 29 27 29 26 27 41 54 60 60 60 67 77
27 28 25 24 24 23 22 20 17 16 16 18 21 20 23 23 21 18 16 17 18 18 19 20 19 24 30 35 39 41 42 45 44 41 43 48 45 45 44 43 44 41 44 46 41 39 40 41 40 37 49 59 61 63
25 25 25 25 25 25 24 22 18 16 17 16 16 18 20 20 20 20 18 19 21 23 25 25 23 22 23 27 32 37 42 44 46 50 51 49 46 51 53 52 51 55 56 52 52 51 48 48 49 47 49 59 60 56
22 23 24 25 25 26 26 25 24 23 22 23 22 21 21 21 21 20 19 20 21 22 24 26 28 29 28 26 24 29 33 36 39 44 46 50 54 53 53 58 61 60 63 64 64 63 62 61 61 60 60 61 64 70
22 24 27 29 31 30 28 26 24 23 22 22 23 25 26 26 25 24 25 26 27 27 28 29 29 29 28 26 25 25 25 28 33 37 40 43 46 49 52 55 59 64 67 66 68 70 71 70 70 72 71 70 72 73
24 27 29 29 31 33 34 32 30 28 29 29 29 29 28 28 27 27 28 30 32 33 34 32 29 27 29 30 28 26 27 27 26 27 30 34 39 43 45 46 48 52 57 63 68 71 73 74 75 77 77 78 79 81
27 27 27 28 31 33 33 33 32 31 30 31 32 32 33 33 31 30 33 37 37 34 31 28 26 26 26 25 25 25 26 26 26 27 27 28 29 31 36 39 42 45 47 49 53 58 61 62 64 67 70 73 77 81
25 28 28 28 31 34 35 34 34 33 30 29 31 33 35 36 35 34 35 37 37 32 28 30 31 30 30 29 28 25 23 23 25 26 26 27 29 30 31 33 36 38 41 43 45 48 52 54 56 57 58 58 60 62
27 27 28 28 30 33 38 38 36 36 33 30 30 31 33 35 36 36 38 39 39 38 35 36 37 37 36 35 32 28 25 24 23 23 25 27 29 29 31 32 33 34 36 36 38 40 42 44 46 49 51 53 55 56
25 25 27 30 31 33 35 39 37 36 34 34 33 34 34 35 37 39 40 41 42 43 44 43 42 42 41 40 38 35 31 29 29 28 26 24 24 25 27 29 31 32 33 35 36 37 38 38 39 41 43 44 46 49
22 24 26 29 31 32 35 35 35 36 35 35 34 35 37 38 38 39 41 43 43 44 45 46 44 43 42 40 38 37 36 33 30 28 28 29 30 30 28 27 27 27 27 28 31 33 35 36 37 38 39 41 42 44
23 25 28 30 32 34 34 35 37 38 38 38 39 39 40 41 42 44 45 46 47 47 47 47 46 46 45 41 39 37 36 35 35 33 31 30 29 28 28 29 30 30 30 29 28 29 30 31 33 35 36 38 40 41
23 24 26 29 30 31 34 37 40 42 42 42 42 43 44 44 45 47 48 48 49 48 47 48 48 48 45 42 40 38 36 34 33 32 32 31 29 27 27 26 26 26 27 28 29 30 31 31 31 32 32 33 33 34
24 25 25 25 28 33 38 43 46 46 45 42 41 40 41 44 46 47 48 49 49 48 48 49 50 48 44 42 40 37 35 33 31 30 30 30 30 29 27 26 26 25 24 23 23 24 25 25 26 26 27 27 27 27
22 20 22 27 32 35 40 44 47 49 47 43 41 41 42 44 45 45 48 49 50 50 50 51 50 47 45 42 39 36 34 33 32 31 30 29 28 29 28 26 24 24 24 23 22 21 20 20 20 21 21 21 22 22

GFSWCAN_250_spd_030.txt.gz
Wind_Speed
86 94 91 91 96 101 107 103 85 75 60 50 45 46 42 44 40 35 32 29 28 25 21 18 12 6 4 10 17 24 30 37 47 56 69 82 92 97 97 97 91 92 93 94 98 96 89 88 88 85 88 83 80 74
87 93 90 92 96 101 105 100 77 68 54 44 42 39 39 39 38 35 34 31 30 29 25 19 15 11 6 3 8 15 22 30 37 44 53 67 82 91 97 98 96 89 91 92 92 92 94 91 93 92 87 86 84 81
86 92 90 92 96 101 102 94 73 61 47 37 36 34 35 38 36 36 35 33 32 32 28 23 20 21 17 10 5 9 16 22 29 34 41 51 67 82 93 96 94 93 90 88 88 88 91 92 91 94 93 90 88 85
86 90 89 92 95 100 98 82 71 54 40 33 30 30 31 31 33 33 31 32 31 28 26 25 25 23 24 21 16 12 12 15 20 28 34 41 52 65 81 92 97 98 93 87 84 85 88 92 98 99 97 96 94 90
88 89 88 91 96 98 95 69 63 44 34 28 23 27 28 27 27 28 27 28 26 28 28 28 27 27 30 30 25 22 17 17 18 22 27 33 42 55 69 83 94 99 100 92 88 91 91 92 99 103 103 98 96 93
89 86 87 90 96 94 85 67 53 37 27 22 20 22 24 25 21 23 25 25 24 27 28 29 28 32 36 33 29 25 23 19 18 18 21 25 32 42 55 72 87 96 100 98 98 93 88 90 95 100 98 100 99 96
87 83 87 90 93 90 71 63 44 31 21 21 21 22 21 20 19 21 23 24 24 25 28 31 30 32 38 36 34 31 30 28 23 17 16 18 24 32 42 56 71 88 99 104 106 97 89 91 91 95 99 102 102 100
82 84 85 90 88 79 67 54 35 25 16 19 22 22 19 22 20 22 29 27 22 23 28 29 33 37 39 37 36 38 34 34 29 25 19 14 14 20 27 34 45 62 81 94 95 89 93 87 85 85 92 96 99 99
80 82 84 86 82 66 58 43 28 19 11 15 21 20 20 20 20 26 29 23 21 22 25 32 35 36 39 37 37 38 34 33 30 27 24 22 15 10 15 19 26 38 51 65 78 87 90 88 81 80 84 89 94 97
79 81 84 81 71 56 49 31 22 11 9 14 13 17 22 19 21 23 27 22 16 19 29 28 28 30 33 34 37 36 35 38 41 32 36 35 29 28 19 16 9 15 25 36 52 68 84 92 90 85 81 84 86 91
77 81 81 77 59 51 37 24 15 7 10 11 6 20 16 17 22 24 23 16 14 18 29 26 30 30 32 31 29 28 29 32 40 41 46 45 43 43 36 38 33 22 22 27 36 49 65 83 91 89 86 89 87 90
77 79 78 62 50 44 32 20 10 4 6 8 12 16 14 16 11 8 10 12 13 10 23 19 19 27 25 23 22 20 21 21 29 37 45 46 43 40 39 41 47 45 41 35 37 42 53 67 81 90 93 88 81 82
74 76 65 53 46 39 29 18 7 3 6 7 14 13 14 10 7 3 9 11 13 13 16 18 18 18 18 15 13 15 21 17 19 29 40 44 41 42 42 37 46 51 54 55 51 44 43 51 68 78 88 96 103 98
72 62 53 47 40 31 26 17 8 7 4 10 4 8 6 5 3 8 9 11 12 13 16 17 17 16 18 17 13 9 13 15 13 11 12 33 36 41 35 37 40 39 51 56 57 56 56 52 63 72 81 84 85 92
61 54 43 35 29 28 24 18 10 8 5 1 5 2 3 7 9 10 10 15 17 15 14 13 13 16 18 20 20 17 14 11 10 9 10 19 20 32 26 39 29 24 32 47 55 62 62 53 47 54 64 78 87 94
50 44 38 30 23 23 19 16 13 14 8 4 7 5 4 6 12 17 20 18 18 21 20 22 20 20 19 20 24 24 20 19 12 14 16 20 19 22 18 25 33 35 33 34 34 44 58 54 49 52 57 59 60 58
39 36 30 28 26 24 21 18 14 13 11 10 8 9 12 14 13 15 19 22 27 27 24 23 23 30 27 28 28 27 26 26 21 18 18 21 23 26 30 28 26 35 35 36 41 48 62 62 62 57 61 60 63 63
32 31 29 28 26 23 22 21 20 17 16 16 14 13 12 16 15 13 13 13 14 20 25 31 34 35 31 32 35 36 35 35 34 32 29 23 19 20 25 34 37 36 38 39 42 41 41 65 61 61 59 69 74 69
30 28 27 27 26 25 24 23 21 20 18 20 22 23 21 23 22 20 17 14 13 13 15 19 21 26 31 36 39 40 42 41 42 40 40 37 37 34 30 32 33 36 36 36 38 39 45 49 50 56 60 67 71 76
26 25 26 27 26 26 24 23 23 23 22 21 18 16 16 19 20 21 21 19 19 19 20 21 22 22 22 23 27 30 35 41 43 46 48 51 47 45 43 40 43 40 39 38 39 42 45 49 48 53 65 66 68 82
22 24 26 28 30 30 29 27 26 25 24 22 21 21 20 20 20 20 20 21 22 24 27 30 30 27 25 24 22 24 28 30 30 34 42 46 51 58 57 53 50 50 50 48 46 44 43 45 51 56 59 56 63 73
23 24 25 28 30 31 30 30 28 26 25 24 24 25 25 25 24 21 19 21 24 26 27 27 28 29 29 27 25 24 22 24 27 30 32 36 43 49 53 59 61 62 59 56 56 56 55 55 55 54 55 58 63 71
25 26 26 28 31 34 35 33 32 32 29 28 28 27 27 28 27 25 26 27 28 30 31 29 26 26 28 29 28 26 23 23 25 26 29 34 37 41 44 48 54 58 64 66 65 66 64 64 64 66 64 64 64 64
26 27 28 29 31 34 36 37 34 33 31 30 29 29 29 29 29 30 30 31 33 34 33 32 29 27 27 26 25 27 27 26 26 27 27 28 31 37 40 43 44 46 49 55 61 65 67 69 70 74 74 74 73 71
28 28 28 30 32 34 35 37 38 34 33 32 32 32 33 34 34 34 35 36 36 36 34 32 31 29 27 26 23 22 22 23 25 25 25 24 25 28 33 38 41 43 44 46 48 50 53 56 60 64 69 72 76 78
29 27 26 29 32 34 35 36 35 35 36 35 35 34 35 36 37 36 37 38 38 37 35 33 33 33 32 31 28 24 22 20 20 22 24 26 27 26 26 30 34 39 42 44 45 45 46 47 49 52 55 57 59 61
27 24 24 27 30 33 34 34 35 37 38 39 38 37 37 37 36 36 38 39 40 39 40 38 37 38 38 38 35 31 29 27 25 23 22 22 23 25 26 26 28 30 34 38 42 45 46 46 46 47 48 50 51 51
22 23 25 27 29 31 31 34 37 39 40 39 37 36 35 35 35 36 38 39 40 41 40 39 40 41 41 40 38 35 34 33 31 29 28 27 24 23 22 24 26 29 32 34 35 37 39 42 44 45 46 46 46 46
23 23 25 27 28 28 31 34 38 41 42 40 37 35 34 34 36 38 39 39 41 42 41 41 43 44 44 43 41 38 37 35 32 30 28 27 26 27 28 27 25 24 25 27 30 34 36 38 38 38 38 38 39 40
24 23 23 23 25 29 33 35 39 42 45 44 41 38 37 38 40 43 44 45 47 47 46 48 47 47 46 41 38 38 38 35 34 32 31 29 27 26 26 26 26 26 26 25 25 25 26 28 30 33 35 37 38 38
20 19 20 23 27 31 35 39 43 47 50 50 46 42 42 43 45 47 48 48 49 49 49 49 49 48 45 42 39 36 35 35 34 33 31 29 27 25 25 25 24 24 24 24 25 25 26 26 27 27 28 29 31 32
17 18 22 27 32 36 39 43 46 47 50 51 48 43 43 44 45 46 48 49 50 49 50 49 47 44 41 40 39 37 35 34 31 29 28 27 26 24 22 21 21 21 21 21 20 19 20 21 21 22 23 24 24 25
16 22 28 31 34 39 42 42 44 48 51 52 50 46 43 42 43 46 48 49 49 49 48 46 44 41 41 39 36 34 32 31 30 29 27 26 25 25 24 23 21 19 19 19 19 18 18 18 17 17 18 18 19 19

GFSWCAN_250_spd_033.txt.gz
Wind_Speed
81 83 87 89 91 95 93 94 96 90 72 61 51 45 38 35 37 37 33 34 34 35 34 32 25 16 7 3 10 16 23 31 40 49 60 76 89 99 106 103 99 94 99 100 99 97 94 95 88 91 93 86 79 75
80 82 87 88 91 95 93 94 92 82 69 53 45 37 35 31 28 29 31 32 31 29 30 30 29 24 16 9 6 11 15 24 32 41 51 60 77 90 104 104 101 94 88 97 101 97 96 97 90 91 89 85 82 78
79 80 86 87 93 92 90 92 87 72 60 46 39 33 31 28 24 22 24 25 28 27 28 28 28 28 23 17 11 6 9 15 24 31 42 52 65 78 94 101 102 100 94 91 90 91 92 92 84 87 88 88 85 82
77 81 84 87 92 89 90 89 81 66 53 41 35 33 28 25 19 15 18 23 24 25 28 27 31 32 31 28 21 13 8 9 14 22 32 41 52 66 82 95 100 101 97 90 84 88 95 94 87 86 86 90 89 88
77 81 83 87 88 86 89 86 69 62 47 37 31 28 25 23 20 14 17 19 20 23 27 26 28 31 35 34 29 22 16 12 11 15 23 32 41 55 70 86 97 102 102 97 92 89 88 96 94 91 90 94 98 96
76 80 82 86 83 85 84 76 61 57 40 31 26 26 19 21 20 15 16 19 20 26 26 31 31 33 38 37 35 31 26 19 13 13 17 21 30 42 57 75 89 97 102 101 96 96 87 87 90 88 90 93 96 96
77 79 82 83 80 81 77 60 57 46 32 24 22 21 23 23 20 17 16 20 23 25 29 31 26 30 39 41 35 33 30 28 22 14 12 13 18 27 41 60 78 92 98 99 100 100 90 84 87 94 96 95 91 93
77 80 83 79 79 76 61 53 43 31 23 18 18 22 23 19 17 18 19 22 22 25 24 24 28 30 31 36 33 34 34 35 37 36 28 19 13 15 28 41 59 78 91 98 101 96 97 96 89 90 93 95 93 94
78 80 79 78 76 69 57 45 31 20 14 13 14 16 18 16 19 21 19 22 20 22 17 16 30 31 34 37 34 33 44 43 42 41 35 30 23 13 13 24 39 56 74 85 87 90 93 90 86 83 88 90 93 95
76 76 77 76 74 65 48 36 21 12 7 7 7 7 8 13 14 23 22 22 16 15 9 17 24 27 31 32 32 36 35 34 36 34 33 32 30 19 15 9 17 31 45 58 71 84 88 89 86 84 82 84 86 90
71 72 74 74 66 55 40 29 16 9 4 4 3 6 5 9 13 15 12 9 6 13 7 6 17 20 25 26 31 33 32 31 32 31 29 32 37 35 31 23 13 17 22 32 44 58 76 86 86 83 79 78 82 86
67 69 70 65 57 46 34 24 12 7 3 3 5 10 5 7 9 3 5 4 5 5 11 8 8 17 21 21 23 29 28 26 27 30 27 32 35 35 33 34 29 20 16 22 30 39 50 66 78 82 79 78 81 84
64 67 63 54 48 38 25 22 12 10 7 7 11 10 11 4 4 3 5 8 8 14 12 16 11 12 14 14 16 19 27 23 26 26 26 27 33 31 30 30 36 32 31 27 26 32 40 51 65 76 82 82 81 83
61 60 50 45 41 30 23 18 15 14 11 12 14 18 18 12 12 13 11 14 16 16 13 18 20 19 19 15 13 19 24 26 20 18 22 25 31 30 26 30 29 31 31 34 38 33 36 40 56 70 80 85 87 82
56 47 40 37 34 28 23 20 19 15 12 12 14 16 17 17 17 17 17 16 20 23 23 21 21 20 21 21 19 20 22 27 26 26 25 25 35 33 27 30 25 35 35 43 38 39 39 42 49 59 72 86 89 88
45 39 34 30 29 27 23 20 17 16 14 14 12 14 17 18 19 22 26 26 25 26 28 30 31 29 28 28 28 28 29 32 31 28 27 34 37 40 35 29 42 36 42 41 38 44 47 49 51 60 60 72 79 89
38 34 31 29 28 27 24 21 17 13 13 12 12 13 14 13 14 15 18 25 29 31 31 34 36 37 34 37 39 37 36 34 33 35 35 31 38 36 38 38 49 51 51 48 49 51 53 59 59 65 70 67 75 79
32 28 27 28 27 26 24 22 19 18 18 17 16 15 14 14 15 15 15 17 18 18 21 28 33 37 39 40 39 37 42 42 42 38 35 35 40 38 40 42 44 55 53 55 55 56 56 63 69 74 78 84 85 91
26 25 25 26 27 27 26 24 22 22 21 22 22 23 23 23 22 22 21 20 18 18 19 21 23 27 29 31 32 33 35 41 46 48 47 42 41 40 43 50 53 50 52 62 63 70 65 65 70 78 83 87 99 101
24 24 26 27 29 29 28 27 26 25 25 25 24 23 23 25 27 26 25 24 23 24 25 26 27 27 27 26 27 29 32 34 34 35 42 49 51 45 44 42 43 47 52 58 63 69 74 74 69 76 82 94 96 105
25 25 26 26 27 28 31 33 31 29 27 25 27 27 26 27 28 28 28 29 29 30 30 28 25 21 21 21 22 24 26 29 34 36 35 37 41 49 52 52 51 50 48 52 60 63 67 76 82 82 81 82 93 104
26 27 27 29 30 30 30 32 34 32 30 28 27 27 27 27 28 28 29 29 29 31 31 29 28 27 26 26 26 26 24 22 25 30 34 35 35 37 42 46 52 57 57 55 55 55 60 68 74 77 78 86 90 91
29 30 30 30 32 33 34 35 35 33 33 32 31 30 29 29 29 30 31 31 32 32 32 32 32 30 29 29 29 31 31 30 26 23 26 33 38 38 37 40 44 48 54 58 58 60 61 61 61 63 68 72 77 83
30 32 32 29 32 34 35 35 34 35 36 35 34 33 31 31 30 31 32 32 33 34 33 33 32 29 29 31 31 30 32 34 33 31 29 27 29 37 41 42 41 42 46 50 52 55 59 62 63 65 66 67 67 68
30 31 30 28 30 32 33 33 34 36 38 38 37 35 33 32 32 33 35 37 37 36 36 36 35 34 33 32 32 31 30 27 28 31 32 32 31 30 32 36 39 41 40 42 45 48 52 54 57 60 65 67 69 70
28 28 26 28 29 30 29 32 35 38 41 43 42 38 35 34 35 36 37 39 39 37 38 38 35 35 36 35 34 31 28 26 26 27 29 31 33 34 34 33 34 38 39 40 40 41 43 46 49 51 54 56 57 59
24 25 26 26 27 26 30 33 36 39 42 45 43 38 35 34 34 34 37 40 41 41 42 41 40 40 37 35 34 34 32 29 25 25 25 25 27 28 31 34 35 34 32 33 35 38 39 40 40 41 44 46 48 50
23 24 24 22 23 27 30 34 38 40 42 45 46 42 37 35 36 36 37 39 41 42 42 41 42 42 41 39 36 30 26 27 29 29 27 25 22 21 23 26 29 31 32 31 31 30 32 34 36 38 39 40 42 43
21 19 19 22 26 30 34 36 39 42 46 49 49 45 39 35 36 37 39 42 44 45 45 45 45 43 41 36 38 42 36 31 29 28 26 24 24 23 22 21 20 22 24 26 28 30 30 30 30 30 32 34 36 37
19 19 22 25 29 32 36 37 40 44 48 52 53 49 42 40 41 40 42 47 48 48 48 48 46 42 40 38 35 33 33 30 29 28 27 26 26 25 24 23 22 20 20 21 22 23 25 26 27 28 28 29 29 30
15 18 24 29 31 33 37 38 42 44 47 53 54 50 48 46 47 49 49 51 51 51 48 45 43 41 42 41 37 34 32 31 30 28 26 25 24 24 24 24 23 21 20 19 19 20 20 21 22 24 25 26 27 28
17 21 27 31 33 34 37 41 44 44 49 53 52 49 50 49 49 49 49 49 50 49 48 47 43 41 40 38 38 37 36 33 31 29 27 26 25 24 23 22 21 20 20 20 19 18 18 18 18 19 20 21 21 22
20 24 28 30 31 33 39 41 45 48 52 55 53 51 49 47 46 49 50 50 49 47 46 44 42 42 40 39 37 37 36 33 30 29 27 25 23 22 21 19 18 17 16 16 17 16 16 15 15 16 16 16 17 18

GFSWCAN_250_spd_036.txt.gz
Wind_Speed
79 82 81 81 81 87 88 91 91 92 86 67 56 45 42 36 28 30 33 34 33 37 37 40 38 35 27 18 10 1 7 17 27 37 46 55 70 86 103 108 105 101 99 102 101 102 107 103 102 100 98 93 87 82
78 80 83 79 81 85 88 92 91 90 75 64 49 42 37 29 24 28 30 30 29 31 37 39 41 44 40 28 18 8 2 8 18 29 39 49 60 80 101 109 110 104 100 104 106 104 108 105 107 100 95 92 86 80
78 81 79 77 79 83 90 89 89 85 66 59 44 37 31 21 18 23 23 25 28 30 36 42 44 46 46 43 30 18 9 5 10 19 29 41 52 68 88 106 109 105 99 98 98 99 107 108 102 96 94 87 81 77
77 79 76 75 76 83 88 86 86 74 62 51 40 33 27 20 17 21 17 20 23 31 31 36 39 42 46 46 43 33 21 12 8 12 20 31 44 57 78 95 101 101 96 93 89 90 93 93 84 78 83 85 81 79
77 74 73 74 77 83 83 82 77 61 50 40 31 27 20 19 18 18 15 17 17 21 26 29 33 39 47 49 49 48 38 24 14 9 15 24 33 46 62 80 94 102 103 100 92 92 90 87 79 73 71 78 80 81
74 69 70 74 80 82 79 75 61 44 38 30 26 20 24 24 20 21 11 16 12 18 19 21 34 43 47 48 49 49 50 43 30 20 10 15 26 37 50 67 83 94 100 100 94 91 87 88 88 79 74 78 85 86
63 64 70 76 79 78 75 66 50 36 27 23 19 18 24 20 16 17 19 8 12 13 14 23 29 37 41 39 40 48 47 45 44 34 23 11 15 25 37 52 72 88 97 102 106 103 94 91 91 93 87 85 87 90
57 63 71 75 76 76 71 61 44 31 22 17 15 16 19 19 13 14 12 8 7 9 10 16 22 28 33 33 34 35 39 37 35 33 32 25 14 9 25 39 57 76 93 105 106 107 100 99 89 84 86 89 88 92
57 64 69 71 73 72 62 53 38 25 20 14 9 9 14 19 12 12 7 6 4 6 8 11 16 19 22 30 27 26 30 27 32 32 27 21 18 10 11 25 42 62 80 91 95 97 100 95 90 85 82 83 88 91
57 61 66 69 69 61 56 47 33 21 16 13 7 2 6 14 16 4 6 3 2 9 7 9 9 12 18 20 22 24 20 19 20 23 22 14 8 4 9 4 24 39 51 66 76 87 93 93 94 92 87 84 81 84
55 59 63 66 61 54 47 39 28 21 16 11 9 9 7 4 3 1 1 9 10 7 12 15 10 4 17 15 16 14 11 13 18 17 16 19 15 13 19 17 8 9 21 31 43 65 85 92 93 93 91 87 81 82
56 58 61 58 52 47 42 33 26 19 17 16 15 13 15 10 12 8 8 9 10 12 12 12 12 14 15 19 17 15 10 10 14 12 16 14 13 19 21 22 20 15 9 15 27 41 59 76 88 91 93 91 87 80
56 59 54 49 43 38 37 31 21 17 16 18 18 14 17 21 22 20 16 17 15 16 17 17 18 15 17 20 25 20 16 15 16 17 18 15 11 16 16 19 19 19 20 16 20 30 39 53 69 80 86 87 87 82
56 52 48 44 38 34 32 29 24 19 17 17 19 22 26 25 22 29 28 25 24 24 24 23 23 21 24 24 24 26 26 24 21 24 24 17 10 8 10 14 14 21 21 21 18 20 32 43 54 65 77 84 84 83
49 45 40 36 35 33 30 26 24 20 18 18 18 20 21 22 24 25 27 27 29 28 28 30 31 30 29 27 25 27 29 33 33 30 29 28 21 16 15 15 18 19 19 24 26 20 16 29 41 56 66 76 82 84
39 35 32 32 32 31 28 26 24 23 21 20 18 17 18 19 20 21 21 23 26 25 26 31 34 34 35 37 33 31 30 28 34 41 36 35 35 30 26 19 24 26 27 27 30 26 25 27 30 40 53 67 78 83
33 30 29 29 29 29 28 27 25 23 21 20 19 18 18 19 19 18 19 19 22 24 24 23 24 27 31 36 39 40 40 38 34 36 43 47 45 40 39 35 29 34 33 40 41 38 40 38 36 39 38 45 64 82
30 30 31 31 30 30 31 31 29 26 23 21 21 21 21 21 21 20 19 17 17 19 20 21 23 26 29 31 31 30 31 35 37 36 37 45 50 46 42 50 42 43 40 45 48 51 52 50 51 51 53 55 54 60
30 31 31 31 32 32 31 31 32 29 26 23 22 22 22 22 23 22 22 23 23 24 25 25 25 26 27 28 28 28 28 28 30 34 37 38 42 45 46 52 53 54 55 51 55 60 64 61 64 63 65 66 68 66
30 30 31 31 30 31 32 32 32 29 28 28 27 27 26 25 26 27 27 27 25 25 26 27 27 27 26 24 24 25 25 26 28 30 31 34 36 38 45 47 50 61 62 64 61 63 64 70 70 71 76 77 79 82
29 31 33 33 31 31 32 34 31 31 32 32 32 31 29 28 28 29 29 29 27 26 26 27 27 27 26 25 22 22 22 23 24 27 30 31 32 36 38 41 52 58 63 59 76 70 71 71 76 79 83 82 85 88
29 31 33 34 32 31 32 32 31 34 36 37 37 35 32 29 28 28 29 29 29 30 31 29 28 26 27 26 26 26 26 27 26 25 26 28 30 32 33 39 41 49 62 64 67 75 80 80 77 82 84 87 91 94
29 31 32 32 30 31 30 30 34 36 38 39 40 38 35 32 30 29 29 30 33 35 34 32 33 36 35 32 31 31 32 33 34 33 30 27 26 29 31 33 37 43 45 51 63 67 73 81 85 85 86 90 92 98
27 28 29 28 28 28 28 32 35 39 42 44 45 43 39 34 31 31 32 34 35 36 37 38 38 38 35 33 35 38 36 36 36 36 37 35 30 28 27 30 33 38 42 46 47 51 60 71 76 79 87 95 93 94
26 26 25 26 25 25 29 31 35 39 44 49 49 46 42 39 36 34 35 37 39 40 41 41 40 38 37 37 35 32 34 36 37 36 34 33 32 31 30 29 29 35 36 41 46 49 50 52 58 66 74 81 87 98
25 25 23 21 23 26 31 33 40 51 52 51 54 51 50 46 43 39 40 40 41 43 45 44 43 42 42 39 36 34 32 30 26 26 27 28 29 29 30 30 30 32 30 31 37 40 44 48 51 54 58 65 73 80
23 21 19 21 26 31 30 33 45 48 55 53 55 54 46 44 39 39 41 42 44 46 47 47 45 42 40 39 35 29 30 34 31 28 25 23 25 26 27 28 29 30 30 29 29 32 36 40 43 47 50 54 59 62
20 19 20 25 28 31 27 27 38 40 45 45 53 54 49 53 48 43 53 49 50 51 50 49 48 45 43 41 42 38 29 28 28 26 25 26 25 22 22 24 25 27 27 28 28 28 28 31 35 37 39 43 47 51
18 16 21 26 30 31 27 20 25 35 41 45 51 51 47 47 47 35 44 52 54 53 53 51 49 45 41 37 36 34 35 30 29 28 27 25 23 23 23 22 22 22 23 24 26 26 25 25 26 29 33 35 38 40
16 15 20 27 31 32 32 35 38 40 45 51 54 52 51 54 49 46 53 54 54 53 50 47 45 43 43 39 34 32 32 32 29 29 28 26 25 25 24 23 22 21 19 19 20 23 24 24 24 25 25 26 28 31
18 20 22 27 29 30 31 36 39 44 49 50 46 38 39 42 39 49 52 52 51 52 51 47 43 42 40 39 36 32 30 29 28 26 25 25 26 25 24 23 22 21 19 18 17 17 18 20 20 21 21 22 23 24
21 21 21 24 27 28 35 37 45 50 52 51 44 41 52 53 52 52 51 51 50 47 44 42 41 40 38 35 34 32 29 29 28 27 26 25 26 25 24 23 22 20 19 18 16 15 15 15 15 16 17 18 19 19
22 20 23 23 24 28 37 46 49 52 54 50 35 24 38 45 48 51 53 54 53 50 48 47 45 41 39 37 36 37 34 30 29 28 26 24 24 24 22 20 19 18 17 16 15 13 11 11 11 11 12 14 14 15

GFSWCAN_250_spd_039.txt.gz
Wind_Speed
79 79 81 79 82 83 77 76 80 88 87 83 66 50 38 30 19 24 24 27 30 35 39 46 51 49 45 36 26 16 7 4 14 24 33 42 54 64 74 86 95 102 104 99 95 98 98 99 99 99 96 95 91 93
84 79 79 80 82 74 70 71 81 84 83 68 52 37 31 18 15 21 20 22 28 32 33 38 47 51 53 48 36 23 15 7 9 17 25 33 43 56 67 80 94 99 106 104 101 105 104 103 105 102 102 99 96 93
81 80 78 77 69 66 66 73 78 77 66 52 40 32 23 10 15 17 16 22 25 31 29 38 44 45 47 50 46 36 23 16 9 12 19 26 33 44 58 73 88 99 101 103 98 101 101 103 102 103 106 103 98 91
79 74 71 65 62 62 67 73 73 65 53 40 32 25 12 10 14 14 12 17 19 26 17 27 32 41 46 50 52 48 37 24 15 11 13 19 27 36 45 59 81 97 102 102 101 100 95 97 96 96 98 99 94 85
68 63 57 57 58 64 69 71 68 57 41 29 24 16 13 16 13 12 12 13 13 18 14 18 29 36 43 45 49 49 44 38 25 15 11 14 23 34 45 62 82 93 98 100 98 95 92 94 93 90 85 85 84 81
55 51 51 56 61 65 68 68 58 49 32 23 22 16 10 11 12 11 8 11 15 19 6 16 21 30 37 41 42 46 46 44 38 29 18 13 19 28 41 57 71 82 88 92 95 96 91 93 92 92 88 82 82 82
46 48 52 58 62 66 66 60 54 42 28 20 20 18 13 3 9 15 9 7 10 15 8 11 12 23 30 35 35 39 41 39 40 41 34 23 13 17 29 44 63 78 91 101 107 108 99 100 96 98 92 90 90 89
48 51 54 57 63 64 61 52 45 36 21 12 14 16 16 2 2 7 8 10 10 14 11 16 9 12 20 22 24 28 29 31 27 29 30 27 19 9 18 34 50 68 83 94 102 106 106 108 103 93 86 86 83 85
49 51 56 59 60 59 53 45 40 30 22 14 10 10 12 11 6 3 5 7 10 11 11 10 8 5 12 12 13 16 19 18 14 14 17 17 15 6 9 23 36 53 71 89 100 109 113 113 102 91 84 82 83 85
50 56 59 59 57 51 47 41 38 28 18 14 11 6 4 7 6 8 11 16 11 8 9 11 9 6 3 1 3 4 10 7 9 4 6 10 5 8 9 9 23 39 54 72 91 102 104 100 94 93 85 81 81 82
54 56 59 58 51 45 39 37 32 27 23 16 14 15 16 15 13 12 15 19 19 18 13 14 19 14 10 10 9 5 6 7 6 1 3 4 7 7 4 2 9 19 34 52 64 76 87 94 96 95 93 89 84 82
54 57 56 49 43 39 37 32 28 24 21 18 17 18 18 21 22 21 22 22 23 24 21 20 24 19 17 20 18 16 12 12 14 9 6 5 3 3 3 1 4 4 15 25 34 43 55 70 90 98 99 95 90 89
55 55 47 41 38 38 37 32 27 24 22 20 21 22 25 23 22 25 25 26 26 28 30 29 29 29 22 22 26 28 24 21 21 20 15 12 12 7 7 2 4 5 5 13 20 28 35 46 63 82 93 97 97 92
54 46 40 38 37 36 35 32 29 27 25 23 22 23 21 22 22 23 21 22 24 26 27 28 31 34 31 29 27 30 35 33 27 26 26 24 18 16 13 7 6 3 5 3 9 14 28 40 50 64 79 91 98 97
47 39 38 39 37 35 35 34 31 28 26 24 24 23 21 20 21 22 21 19 19 20 21 21 23 29 31 30 30 31 31 39 42 40 36 31 33 27 21 19 11 7 2 4 7 9 14 25 41 54 67 79 89 95
41 37 37 37 36 34 33 33 34 31 27 26 25 24 24 22 21 21 21 21 21 22 24 24 24 25 25 26 30 33 34 35 37 42 46 46 40 40 29 27 24 18 14 8 11 10 5 12 22 39 54 68 79 89
38 35 36 36 36 34 34 35 35 33 30 28 26 24 24 23 23 22 22 22 21 20 21 22 23 24 26 28 30 31 32 31 30 36 42 44 48 49 46 41 35 29 26 23 21 18 16 16 17 19 33 52 66 77
37 34 35 37 36 35 35 35 34 32 31 30 29 28 27 27 25 24 24 24 23 23 23 23 23 24 25 26 27 29 29 29 30 29 31 39 47 48 49 51 47 41 39 35 33 31 27 28 29 24 22 30 49 61
38 34 34 36 36 35 34 33 32 34 35 35 35 34 31 28 27 27 27 27 26 27 26 26 27 28 29 29 29 29 30 30 27 26 27 30 32 38 47 49 49 51 49 47 45 44 41 38 38 34 32 31 31 48
37 32 32 34 34 33 33 31 30 34 37 37 36 35 33 30 27 25 26 27 27 28 31 32 32 31 31 32 33 32 30 30 30 28 27 27 28 32 36 41 46 49 52 56 57 55 51 52 49 47 45 43 40 40
35 32 30 30 31 30 29 29 34 37 41 43 43 41 37 32 29 28 28 28 29 29 29 31 33 35 36 34 31 32 31 29 27 29 30 31 31 31 32 36 40 44 48 52 57 65 62 61 62 60 58 61 60 56
33 30 28 28 27 26 25 27 29 36 43 51 51 44 40 33 32 34 35 35 35 35 33 35 36 36 37 39 37 32 30 29 31 31 30 30 31 31 33 34 34 41 44 47 52 64 67 67 68 71 70 69 72 71
30 27 26 25 24 20 22 24 32 41 46 50 52 48 38 24 25 34 33 35 37 39 41 42 44 48 48 46 45 45 43 42 42 40 36 32 30 26 26 28 31 39 36 42 47 53 62 67 73 72 76 76 74 79
28 27 25 21 19 23 26 25 36 42 43 46 56 55 54 39 40 50 39 36 41 42 43 43 43 41 40 38 35 38 38 36 35 35 36 34 31 28 24 23 27 35 31 35 42 46 51 58 66 78 71 78 82 82
28 24 19 19 23 25 25 24 31 36 40 48 51 53 47 39 42 38 26 29 47 51 55 53 54 51 47 40 35 32 32 32 31 31 33 33 32 31 27 24 27 24 28 32 36 39 44 49 53 59 74 73 79 85
24 19 17 23 26 27 24 26 32 36 38 41 45 48 43 37 46 46 40 57 60 61 61 60 58 55 51 43 38 35 34 33 29 27 27 29 29 29 30 27 26 28 25 26 29 34 38 41 46 50 57 60 64 74
22 18 18 22 28 29 23 27 31 36 39 43 42 44 42 28 43 48 51 57 58 59 60 61 59 55 52 45 41 40 33 26 28 29 30 26 25 24 27 30 28 27 27 26 25 25 29 35 39 42 49 52 55 58
21 18 19 23 27 30 29 33 35 40 42 45 47 37 38 34 46 56 59 59 62 64 63 61 56 53 49 44 41 39 38 36 33 30 28 28 28 28 25 25 26 26 26 27 26 24 24 24 28 35 39 42 44 48
19 19 20 22 24 24 28 35 39 40 45 49 48 34 28 35 41 52 56 62 63 62 57 55 52 48 45 40 35 34 35 32 30 31 31 28 25 25 25 24 23 24 27 22 23 26 23 22 23 25 29 33 36 38
19 21 21 21 24 23 28 42 44 49 51 49 47 42 26 38 51 56 58 56 59 60 55 51 47 45 43 40 36 34 36 36 31 30 29 29 28 25 24 23 22 20 21 22 20 21 23 21 21 21 22 24 28 30
19 22 20 21 20 23 30 47 50 52 55 53 47 44 35 32 43 50 53 52 50 50 47 45 43 40 39 39 36 33 32 32 32 29 26 26 25 25 23 22 20 19 18 17 16 15 16 18 18 18 19 19 21 23
17 17 19 23 23 27 34 43 49 51 50 46 45 44 42 41 41 44 50 52 52 49 46 46 41 38 38 39 36 32 31 31 29 28 28 27 26 25 24 22 21 19 17 16 14 13 13 13 14 14 14 15 16 18
16 18 22 25 23 26 33 38 41 46 48 47 46 46 46 46 46 47 46 46 47 47 48 46 44 42 39 40 40 37 32 31 31 30 29 29 28 26 24 22 21 20 17 15 13 12 11 10 10 10 11 10 11 12

GFSWCAN_250_spd_042.txt.gz
Wind_Speed
87 72 67 62 60 59 53 55 60 65 67 57 50 36 24 14 10 13 19 26 24 28 31 35 39 39 35 29 23 17 10 7 10 18 31 43 55 63 65 69 86 93 96 101 98 96 94 94 93 100 93 86 87 90
71 65 59 55 50 49 54 59 63 65 58 51 37 27 17 7 9 13 16 24 24 22 30 32 37 39 39 35 27 20 15 10 10 13 19 29 42 50 55 65 85 94 99 101 99 95 91 91 94 93 90 87 87 89
61 54 51 48 49 53 57 62 62 58 51 39 31 23 11 9 9 8 17 20 25 20 24 31 36 38 37 42 38 29 20 14 13 14 19 21 27 38 48 59 82 93 96 97 95 93 89 89 90 92 89 90 90 87
52 47 48 51 53 56 60 61 59 51 41 30 24 16 9 7 3 6 15 20 21 23 18 25 28 33 36 36 41 39 30 21 16 17 20 27 26 30 38 46 69 88 93 95 95 91 89 90 89 90 88 93 93 89
48 49 51 53 56 58 60 61 50 44 34 25 19 10 6 7 6 5 11 16 18 22 12 14 24 26 30 32 37 41 42 31 24 18 19 24 31 32 28 33 51 75 91 94 98 98 95 94 92 94 96 89 92 92
49 51 53 57 59 58 61 52 47 39 29 21 17 15 4 7 12 6 7 12 14 18 12 8 16 20 26 32 37 42 42 44 36 26 23 24 30 31 37 39 43 58 80 91 95 97 97 98 95 96 97 100 92 89
51 53 57 59 60 62 52 48 38 34 25 15 15 14 4 6 7 6 7 14 12 13 10 13 4 8 16 26 32 35 39 43 42 37 30 27 20 19 30 40 48 57 68 87 96 98 99 101 98 98 97 93 91 89
54 56 57 58 61 55 48 41 36 31 23 12 13 14 11 9 10 8 12 14 15 16 18 14 17 10 9 15 21 25 25 28 30 32 32 29 25 14 15 26 39 56 76 88 100 102 105 106 105 103 101 98 99 98
56 57 58 60 54 48 44 39 35 30 24 18 12 12 13 13 14 14 15 17 19 22 22 21 17 15 10 7 7 12 15 14 15 18 16 17 19 12 8 9 25 40 55 77 98 113 114 115 116 114 108 102 97 92
56 58 61 54 46 44 41 39 33 29 26 22 18 16 15 18 19 21 19 18 19 24 27 27 28 22 14 8 6 3 3 5 6 6 8 10 3 4 4 7 17 30 48 67 89 105 113 119 119 116 110 108 104 99
56 58 60 48 45 41 39 37 35 31 28 26 23 22 22 22 23 25 27 27 26 28 30 26 26 26 24 19 16 13 10 7 8 6 5 6 7 6 4 6 12 20 33 52 71 88 101 108 106 104 105 104 99 95
56 57 55 46 44 41 38 36 34 31 28 26 23 23 24 24 23 25 24 24 25 29 34 35 35 31 26 21 22 23 22 18 16 18 17 13 12 12 10 9 12 16 24 33 45 62 78 91 98 97 97 97 95 93
56 56 51 44 42 40 38 35 34 33 30 26 23 22 22 23 23 22 23 23 22 21 22 25 27 30 30 25 23 25 29 31 29 27 27 27 21 21 20 15 13 17 19 18 21 35 49 60 76 87 93 98 99 96
55 54 49 43 42 40 38 37 35 32 29 27 25 24 24 24 24 23 23 23 22 20 21 21 21 22 24 26 27 25 27 31 33 38 37 35 32 31 26 24 21 17 22 15 17 18 24 41 53 64 78 91 98 100
52 53 48 41 42 41 39 37 34 31 30 28 27 27 26 25 24 24 24 23 23 23 21 21 22 23 24 25 26 27 26 27 30 33 37 44 44 39 36 33 29 25 21 18 13 18 20 28 42 52 63 74 88 98
49 53 48 41 40 41 37 35 34 34 33 34 33 31 28 26 24 23 23 23 22 23 24 24 22 23 24 25 27 29 28 27 29 29 30 37 42 46 47 41 37 36 29 26 20 19 21 26 31 43 57 66 77 88
47 51 46 39 38 39 36 34 32 33 34 34 34 33 31 28 25 23 23 24 25 26 25 24 25 26 27 29 29 28 28 27 26 24 25 29 32 39 44 42 45 44 41 34 32 26 24 24 28 32 41 51 64 74
46 50 44 38 36 35 33 30 30 32 36 38 37 34 31 28 25 22 23 23 22 23 26 27 28 29 30 30 31 31 29 28 28 29 25 22 26 31 34 39 41 41 47 45 40 36 33 31 28 30 34 42 49 57
47 48 41 35 33 32 29 27 27 30 37 42 42 39 31 26 25 24 22 23 26 25 24 24 26 30 32 33 33 32 32 32 30 29 28 26 24 25 27 32 36 38 41 46 48 45 43 41 38 35 34 36 38 43
47 45 36 32 31 29 25 23 25 31 33 38 41 44 39 25 22 26 26 26 25 28 31 35 35 38 37 34 33 34 33 33 33 33 28 25 28 27 25 26 31 35 38 39 44 48 52 51 48 43 40 41 38 36
45 40 32 30 28 25 23 25 27 32 36 36 40 44 46 46 25 18 30 24 32 39 37 37 39 42 42 39 36 35 35 34 32 31 30 29 28 28 29 30 31 31 34 39 38 42 52 58 58 54 48 49 47 43
43 35 30 27 24 22 24 27 28 32 37 37 45 44 43 45 41 40 41 29 31 43 44 50 53 52 50 48 47 45 42 41 39 32 28 24 18 19 24 31 33 30 26 33 42 40 42 55 58 61 57 55 57 56
40 31 27 19 18 23 26 27 27 34 39 44 44 42 43 36 29 35 40 27 26 49 51 53 55 53 53 50 49 45 38 36 38 37 36 34 29 27 26 25 25 27 30 33 37 40 42 44 52 54 63 62 62 63
36 28 23 20 22 26 28 29 31 32 34 39 42 46 44 37 27 30 37 49 54 60 64 64 61 58 56 50 46 44 37 31 34 33 32 32 29 27 27 23 20 21 23 27 34 36 39 41 44 46 56 64 66 68
33 25 23 24 27 28 27 29 32 37 39 41 45 47 43 37 39 30 39 49 56 63 70 61 62 59 52 49 45 44 38 32 33 34 31 28 27 27 26 23 21 20 19 19 26 30 34 37 40 38 45 55 60 65
29 24 23 23 27 25 28 39 42 40 44 47 44 46 52 47 45 40 49 56 60 63 61 62 63 60 54 48 43 41 38 32 28 29 29 26 25 24 26 27 23 19 18 17 18 22 28 34 36 34 35 40 48 56
26 22 20 22 25 23 23 27 41 45 45 47 44 49 50 48 52 47 49 49 53 57 60 60 60 56 51 47 45 41 40 38 37 34 31 29 26 23 20 17 16 20 21 19 17 18 21 27 33 33 33 33 38 44
21 20 20 21 20 18 22 30 39 45 46 47 30 21 37 49 45 45 48 50 52 55 57 58 54 51 48 45 42 40 39 37 36 35 34 33 30 28 26 25 23 16 18 18 17 17 18 20 24 27 31 31 32 37
17 17 19 18 18 18 28 34 37 44 46 42 38 36 38 43 46 48 48 50 52 54 52 49 48 46 42 40 39 37 33 32 30 29 27 27 28 27 24 23 25 22 14 13 14 16 17 15 18 21 22 25 28 30
16 17 18 21 21 20 26 31 36 41 41 40 42 45 45 47 48 48 48 50 51 48 45 43 40 38 35 34 35 35 33 31 29 28 27 25 25 24 23 20 17 20 20 13 11 12 13 12 14 16 17 19 21 24
13 15 17 20 20 21 24 31 40 44 47 50 52 53 53 54 53 51 50 51 51 50 45 41 39 38 35 33 32 34 34 33 31 30 29 28 27 26 25 23 19 17 16 15 12 9 9 9 9 11 12 13 15 17
15 17 19 20 21 22 30 32 37 44 49 55 56 58 58 58 57 55 54 52 51 51 49 45 44 42 41 39 37 36 35 34 33 32 32 31 30 29 27 25 21 19 16 14 12 10 9 8 6 5 6 8 10 11
13 16 18 19 17 23 30 33 39 45 50 52 54 58 59 57 57 55 53 52 50 49 47 45 43 43 41 38 35 32 32 33 33 32 31 30 28 28 27 26 24 22 19 17 15 13 12 10 8 5 4 4 5 6

GFSWCAN_250_spd_045.txt.gz
Wind_Speed
67 55 53 55 55 57 60 60 61 59 52 47 37 25 12 8 9 12 15 21 25 31 40 40 43 47 51 50 40 26 15 5 7 13 21 32 41 50 49 52 70 94 103 103 108 109 105 99 93 93 91 93 88 88
56 55 56 57 60 62 62 61 59 51 47 39 32 19 10 10 10 14 19 21 23 23 30 39 41 42 47 49 43 28 17 7 9 15 16 18 27 34 44 54 67 88 101 103 105 106 101 98 91 89 90 91 90 90
55 57 60 61 63 63 64 62 52 47 40 34 26 15 11 14 12 11 15 18 19 26 22 31 41 42 42 43 43 32 19 11 7 14 17 15 16 28 39 51 67 91 99 103 101 99 99 95 88 84 88 91 91 90
57 59 63 64 63 64 62 55 48 39 36 29 23 15 10 14 14 13 16 16 18 25 22 22 30 39 41 37 39 32 23 15 12 12 24 22 12 19 31 45 62 82 92 96 96 96 95 92 90 85 85 89 90 88
58 62 64 65 64 61 53 51 46 40 33 26 21 20 12 17 15 17 18 16 15 16 19 17 20 28 37 44 40 32 30 22 20 14 26 28 22 18 27 38 55 76 89 92 93 93 94 91 90 85 83 82 90 87
58 62 65 64 66 59 52 49 45 40 31 25 19 18 17 19 20 19 19 19 16 14 8 12 11 14 25 34 43 49 50 37 28 18 22 29 19 16 20 30 50 70 88 93 94 92 92 89 89 87 85 91 85 84
57 62 63 62 65 57 52 46 43 38 31 27 21 18 18 17 22 26 27 24 20 19 16 11 7 7 13 21 27 35 39 44 40 35 32 28 23 21 16 20 35 59 78 90 91 92 92 91 90 87 84 82 84 71
57 61 62 61 63 56 52 46 43 38 33 26 24 22 21 20 18 18 22 25 26 25 22 19 13 9 5 8 15 20 25 28 31 33 32 32 22 12 18 30 34 45 68 86 91 94 94 93 93 91 86 84 83 82
58 58 61 60 62 54 50 46 41 39 35 30 26 22 21 22 25 27 30 33 32 28 26 22 20 15 7 4 3 8 11 16 18 17 17 16 17 15 10 21 34 50 65 79 97 100 102 99 98 97 92 94 99 97
56 58 60 59 62 53 49 44 41 39 36 34 31 26 25 26 26 26 26 26 29 30 31 27 26 21 11 8 9 10 9 10 11 12 6 5 6 2 2 8 24 36 57 73 86 98 101 104 105 105 104 104 101 102
55 56 58 58 61 53 50 47 43 39 35 32 29 27 26 25 25 25 24 24 25 26 25 24 23 20 14 15 13 19 18 16 16 18 17 14 11 9 9 10 13 24 40 57 79 94 105 106 109 112 113 113 112 109
54 53 56 56 60 52 47 46 42 39 36 33 31 30 29 26 24 22 21 22 24 25 25 25 23 20 16 13 14 20 24 25 24 26 25 26 23 21 19 18 16 18 26 40 57 80 97 107 112 112 113 115 114 111
53 52 55 55 58 50 46 44 42 39 36 34 32 31 31 30 28 27 27 26 27 26 25 24 23 22 20 18 14 14 21 29 30 30 29 32 31 31 30 29 27 27 28 29 35 49 67 91 106 108 106 108 111 111
50 52 53 55 55 47 45 44 42 40 38 38 36 34 32 30 27 25 25 25 24 24 24 23 24 23 22 20 18 16 15 18 25 33 35 35 37 39 39 37 35 35 36 35 38 40 43 57 76 93 101 105 106 108
48 51 50 54 52 43 41 40 39 39 40 39 37 34 29 27 26 25 24 21 21 21 21 20 22 24 24 24 23 22 20 19 18 22 27 32 36 39 44 45 43 43 40 40 42 41 40 41 47 57 69 81 91 99
46 49 48 54 49 39 37 36 35 37 39 42 45 40 34 30 26 24 23 23 23 24 24 24 24 25 27 28 28 29 27 23 20 21 23 25 29 34 39 41 45 49 48 45 43 40 39 40 39 41 47 57 65 74
46 48 47 52 44 36 36 34 30 31 35 37 38 37 32 29 29 30 29 28 25 21 22 25 29 32 33 35 35 34 33 30 28 26 22 22 26 29 31 35 39 42 46 51 49 48 43 38 39 38 39 42 52 60
47 47 48 49 40 36 35 32 31 33 36 37 40 39 37 39 30 25 24 23 23 28 29 29 28 26 26 28 29 31 31 31 32 31 31 29 29 28 28 32 33 37 39 44 48 50 50 46 43 39 38 41 43 49
46 44 49 44 35 33 31 28 32 34 33 35 36 36 39 39 36 27 23 18 17 28 30 29 32 31 29 28 31 32 32 32 31 30 28 29 31 31 28 29 31 31 32 36 41 48 51 50 50 48 44 42 46 48
43 43 46 37 34 31 27 28 30 29 32 34 38 39 41 40 34 23 21 21 20 26 32 41 46 44 35 29 32 34 32 32 31 29 26 22 26 28 28 27 26 28 30 33 37 42 47 49 51 54 53 50 47 45
38 43 41 33 30 26 28 29 29 31 32 36 40 42 43 42 38 36 34 26 28 37 41 44 42 35 41 43 42 36 31 29 29 28 25 22 19 22 27 29 28 26 28 32 35 37 41 43 48 51 54 56 52 49
36 41 37 29 26 27 24 24 27 32 33 36 40 40 39 42 37 37 41 38 41 47 46 46 46 48 51 50 46 42 38 37 37 35 30 27 24 18 15 20 25 29 30 30 32 32 35 39 42 48 52 56 56 54
36 39 34 27 25 26 21 25 32 35 39 42 47 45 42 37 41 50 53 48 53 55 60 61 59 53 46 44 43 41 39 35 33 34 31 25 23 22 18 15 17 22 27 31 31 29 31 34 37 43 47 49 52 55
36 38 31 25 23 25 27 27 33 38 45 51 46 44 42 38 47 52 53 52 52 51 51 53 53 53 50 47 46 41 38 34 30 30 32 28 22 23 21 18 18 18 22 27 30 31 29 29 32 37 42 45 46 48
35 35 28 25 23 25 25 31 33 41 45 49 43 47 49 52 55 56 55 52 53 54 53 52 52 49 46 43 40 40 37 34 30 23 16 20 21 24 25 22 17 15 19 22 26 29 29 27 26 29 35 39 43 43
34 29 23 23 23 21 23 33 34 35 40 41 44 45 43 44 44 44 46 48 50 53 53 51 49 46 43 40 38 36 35 34 33 32 27 21 14 10 16 23 24 21 17 17 21 24 28 27 25 26 27 31 36 39
27 20 17 20 21 19 19 27 33 37 39 40 43 44 45 47 49 50 50 51 53 52 50 48 46 45 42 40 39 39 38 37 35 32 31 29 25 20 11 8 10 15 19 20 18 19 22 22 23 24 24 26 28 32
20 18 19 20 19 20 20 26 31 37 40 43 47 50 49 50 52 53 53 53 53 51 50 46 42 40 40 39 38 36 34 33 33 33 32 31 29 27 24 20 13 11 13 15 18 19 16 16 18 20 22 24 24 24
15 14 14 15 20 19 21 27 33 37 44 47 48 52 53 54 55 55 55 56 54 52 49 46 44 43 40 39 37 35 33 32 32 32 30 28 27 27 26 23 19 13 12 11 13 17 15 12 14 15 17 21 23 22
13 13 13 15 16 17 20 25 31 38 44 47 51 54 57 60 61 60 60 60 56 50 44 39 37 37 37 35 33 29 25 23 23 25 24 24 25 25 24 21 18 15 12 10 11 12 11 9 10 10 12 15 18 19
12 12 13 12 12 16 22 27 33 39 44 48 50 51 57 62 65 66 62 61 58 52 47 41 39 38 35 33 30 29 31 31 30 30 31 30 28 26 25 22 19 16 14 12 11 10 9 8 7 7 8 10 11 13
9 11 14 13 11 16 22 28 34 40 44 48 49 51 55 60 63 67 65 61 59 56 52 47 44 42 39 39 38 37 36 35 35 33 32 31 29 27 27 26 23 20 17 15 13 12 11 9 8 6 5 5 5 7
8 12 14 16 16 18 24 30 34 37 42 46 47 49 54 57 60 62 62 59 59 56 53 48 43 40 37 36 36 34 34 33 33 34 34 32 31 30 29 27 26 24 21 19 17 16 14 13 11 9 8 7 5 5

GFSWCAN_250_spd_048.txt.gz
Wind_Speed
100 102 73 70 71 72 72 64 57 53 48 44 37 27 17 16 19 19 20 23 26 26 30 33 40 48 56 59 49 35 26 18 12 5 2 9 18 28 36 46 55 68 82 105 114 112 106 102 104 104 98 100 97 94
99 103 74 70 71 73 72 61 56 53 48 42 34 27 18 18 19 23 24 25 27 29 30 32 37 42 51 53 49 39 28 18 13 8 8 9 14 23 32 44 54 66 77 97 114 115 107 100 103 101 95 96 97 95
99 94 72 72 70 71 70 61 56 51 47 41 33 26 22 21 22 22 24 29 31 31 32 34 35 38 47 47 42 34 26 19 14 17 20 15 9 19 27 35 44 57 74 91 107 110 105 101 100 97 90 91 95 94
98 93 73 72 71 71 69 61 56 50 46 40 32 29 26 26 25 28 30 30 29 26 31 30 34 34 41 44 48 35 28 19 11 23 25 25 21 15 18 24 34 55 76 89 97 102 99 96 95 93 87 85 90 93
97 90 72 70 71 70 68 61 55 49 45 41 33 28 29 28 29 28 27 31 30 27 26 23 27 29 32 39 39 47 30 16 15 25 31 31 23 18 19 30 42 62 80 89 92 94 90 89 88 91 86 82 86 92
93 88 69 69 70 69 69 61 52 49 45 41 36 32 30 30 30 33 31 31 32 30 24 21 18 18 20 25 34 38 42 31 19 24 28 28 24 20 22 32 44 60 74 86 94 93 89 87 87 88 89 85 84 90
94 85 70 67 68 68 69 63 53 47 43 41 36 33 30 29 29 30 30 32 33 31 26 22 15 11 11 11 17 23 28 30 29 23 24 24 20 23 24 30 42 56 71 82 84 93 89 90 90 92 96 89 85 86
85 79 66 66 66 66 68 64 54 48 45 41 37 33 30 28 27 27 28 29 29 28 25 23 17 11 9 6 3 9 14 19 20 23 24 20 17 20 16 26 37 50 67 76 83 85 87 89 93 97 91 90 86 85
85 71 63 64 66 65 66 62 53 49 46 43 40 36 33 30 30 29 29 28 26 25 23 22 20 11 9 12 8 3 2 7 12 13 15 16 13 12 11 21 34 53 61 77 84 92 90 94 94 94 95 95 92 91
87 66 63 60 64 64 66 62 52 48 46 42 39 37 34 31 29 28 27 27 24 21 20 19 17 17 9 11 13 12 10 6 4 7 3 3 4 8 7 9 36 46 61 69 85 89 95 99 99 97 98 99 98 96
82 58 58 58 61 61 65 60 52 48 46 46 43 38 33 32 29 27 24 23 23 24 23 22 19 14 11 6 9 17 20 17 15 14 11 12 7 6 7 8 15 32 55 64 78 87 95 97 99 101 102 102 100 98
69 56 55 57 58 59 62 58 52 48 45 46 48 40 32 28 26 25 24 24 24 24 24 23 21 18 15 12 9 9 17 25 27 24 24 22 20 18 16 15 15 21 35 55 70 80 88 94 93 96 101 101 102 104
59 51 53 55 56 58 59 52 49 46 45 48 49 49 44 36 34 32 29 26 24 23 22 21 20 20 19 17 13 11 12 17 25 32 34 33 31 31 29 26 24 24 27 37 48 66 77 88 93 97 101 104 107 110
51 49 53 55 54 56 56 49 46 43 42 46 48 45 43 40 39 37 33 28 25 21 19 21 22 23 22 20 19 16 13 13 18 26 32 39 44 42 41 39 36 34 34 35 40 51 63 76 89 97 100 104 107 112
46 47 51 53 52 56 52 45 43 40 41 44 43 37 39 40 36 31 31 28 26 22 20 22 23 23 24 26 25 22 19 14 13 17 24 33 40 48 51 50 49 46 43 42 44 46 55 65 75 89 99 103 106 111
41 45 50 51 50 55 48 42 39 38 40 39 40 41 41 41 38 35 24 23 18 23 21 22 26 27 26 26 26 28 28 25 20 18 21 26 33 41 48 52 55 56 53 53 52 51 51 55 65 75 83 95 103 109
40 44 48 49 51 51 42 39 35 37 36 38 40 41 41 43 39 32 31 25 21 22 22 24 32 35 35 39 35 35 37 34 32 27 28 25 26 33 38 44 48 51 55 57 57 58 56 56 57 62 71 74 79 89
39 42 45 45 49 43 37 33 36 35 35 35 37 41 42 37 39 29 25 27 29 31 31 35 40 42 43 42 38 34 38 36 32 32 32 33 33 29 28 35 41 42 47 53 56 59 61 61 61 59 60 62 67 72
38 40 43 42 45 37 31 33 34 32 32 36 39 43 45 41 35 36 40 30 25 24 30 35 39 42 40 37 34 34 36 32 31 29 29 31 34 34 30 27 29 35 41 45 47 52 58 61 64 64 64 61 61 60
38 39 40 41 42 35 32 33 30 33 34 38 45 51 53 49 42 38 43 42 39 41 41 44 45 47 44 33 24 24 27 28 29 29 28 26 28 29 28 27 26 27 32 39 41 43 49 53 56 58 61 63 63 61
37 39 38 40 39 32 30 33 31 38 40 44 49 54 53 47 41 41 38 41 45 46 46 48 48 50 49 46 42 37 30 26 24 25 24 21 21 24 26 26 25 26 27 30 35 38 40 43 49 53 56 58 62 63
37 39 37 40 35 27 29 30 30 31 37 42 47 47 45 39 37 43 49 45 44 45 46 49 52 53 51 49 44 42 38 32 30 28 27 24 18 21 25 27 27 27 27 26 25 31 38 40 41 44 48 52 55 60
37 37 39 41 32 26 24 25 34 37 38 40 44 45 46 47 50 45 46 47 48 50 51 51 49 47 45 42 39 37 34 31 27 24 25 27 24 19 17 20 22 25 27 28 29 28 31 36 36 38 41 43 48 51
37 35 40 38 27 26 24 23 30 32 34 37 39 43 46 48 49 49 48 50 51 51 51 49 45 43 40 37 35 33 31 29 25 22 21 20 24 26 26 22 17 19 24 27 29 28 26 29 31 34 38 39 41 45
34 38 39 29 25 24 20 21 24 28 33 36 41 46 51 53 52 53 54 54 54 53 50 47 44 41 38 36 34 33 32 31 28 23 17 14 14 19 25 30 26 20 20 23 25 25 23 22 24 26 29 33 38 39
37 38 27 24 23 22 20 20 23 29 32 36 41 47 52 57 59 58 56 55 55 54 51 47 44 42 38 35 34 33 32 31 29 27 24 18 12 7 11 19 27 29 24 19 18 22 22 19 19 20 23 27 31 33
35 26 22 22 19 18 13 18 23 33 37 39 43 47 53 58 59 59 60 59 59 56 53 48 45 41 37 37 36 35 34 33 32 32 30 26 22 17 13 12 16 21 25 25 22 18 16 17 18 18 20 22 23 26
27 21 20 20 18 15 15 20 29 34 38 41 45 48 53 57 61 63 63 61 58 56 53 49 46 43 41 40 38 36 36 34 32 30 30 29 26 25 22 19 16 14 15 17 18 16 13 14 16 16 16 18 19 20
23 19 18 19 18 14 17 23 30 34 38 42 43 45 51 57 63 63 64 62 60 56 52 48 46 42 39 39 37 36 35 33 31 30 30 30 26 23 21 19 15 13 12 11 11 10 9 8 10 12 12 12 14 16
17 17 17 18 18 12 16 24 29 32 37 39 40 46 50 57 63 66 67 65 62 57 52 49 44 40 35 33 32 30 30 31 31 29 27 26 25 25 23 21 19 17 14 13 11 10 8 7 7 7 7 8 10 11
14 14 16 18 15 16 18 22 26 31 35 35 38 44 49 53 60 67 68 67 63 58 53 49 44 41 38 36 35 35 34 34 34 35 34 32 28 25 24 23 21 19 16 14 12 11 10 9 7 6 5 5 5 6
12 13 14 16 20 23 25 27 30 32 33 34 36 42 46 52 56 61 65 66 64 60 56 52 49 46 42 40 39 39 38 36 34 33 33 32 30 29 27 26 24 22 21 19 17 16 13 12 11 10 9 7 5 4
13 14 17 20 23 25 26 30 34 36 36 35 36 41 46 51 55 59 63 66 65 62 58 53 50 47 44 41 38 36 34 32 33 35 34 33 32 30 29 28 27 25 24 23 22 20 19 17 16 14 13 11 10 8

GFSWCAN_250_spd_051.txt.gz
Wind_Speed
88 92 99 97 98 83 79 77 75 68 57 53 48 42 35 30 28 28 30 32 34 36 40 41 44 49 52 53 45 37 30 19 13 7 4 3 8 13 20 26 35 42 52 62 71 84 94 104 105 109 111 112 107 106
87 92 97 95 98 83 78 76 74 69 57 51 47 43 39 33 30 30 30 31 34 33 35 37 39 44 48 49 42 35 31 31 15 15 13 9 10 15 19 23 31 40 50 58 71 79 91 98 100 104 108 109 108 106
86 92 96 94 99 80 77 75 74 69 58 51 46 42 38 35 34 34 34 33 34 34 37 35 36 37 43 47 45 37 33 26 19 23 22 18 14 13 17 24 29 41 51 60 69 78 89 93 96 100 106 105 106 104
86 90 93 94 95 74 76 75 73 69 57 50 46 42 38 35 31 32 33 36 37 35 34 31 29 24 30 36 42 39 29 23 25 29 25 24 20 17 15 17 23 36 48 59 69 82 91 95 95 100 104 104 103 101
82 89 91 92 92 74 74 73 73 67 55 50 45 41 37 35 33 32 31 31 33 33 31 30 21 19 18 22 31 35 34 19 23 26 24 28 21 18 20 23 26 34 45 54 66 80 86 91 94 101 105 103 101 97
82 86 90 91 90 73 72 73 71 64 55 50 44 41 38 34 32 31 30 30 29 28 27 23 17 15 14 14 20 26 26 30 18 21 22 20 22 20 19 22 30 38 45 53 62 76 83 90 95 98 101 104 100 96
79 83 87 89 87 71 71 71 70 64 54 48 47 43 38 35 33 30 29 27 25 26 25 21 20 11 12 9 10 17 22 24 19 8 15 19 18 23 27 26 33 41 47 50 57 72 82 89 90 91 94 98 99 96
77 82 86 88 81 69 70 71 69 63 54 46 48 46 38 33 32 30 28 28 30 29 26 22 21 16 9 9 9 8 12 17 16 16 8 11 19 20 25 32 35 41 49 56 59 59 74 74 82 88 90 93 97 97
75 80 84 84 75 66 69 70 70 64 55 48 48 50 43 35 33 30 27 24 21 20 19 18 17 17 11 9 12 12 10 10 13 11 12 8 9 14 21 27 34 44 49 54 60 59 62 80 86 88 90 90 91 96
74 79 80 85 69 63 66 70 69 62 56 51 52 48 46 39 35 31 26 21 16 13 14 15 17 17 14 9 9 14 17 15 11 11 9 5 1 3 15 21 28 41 55 59 64 69 73 85 90 94 94 96 99 98
74 77 79 80 60 60 62 66 66 57 53 51 50 51 46 43 35 29 25 24 22 21 22 21 20 18 15 14 10 10 15 21 21 18 15 12 9 7 9 14 27 30 49 63 69 75 82 84 94 97 98 97 100 105
72 72 78 72 54 58 60 61 61 52 49 48 48 48 45 44 43 31 27 24 23 22 23 24 24 25 23 22 19 16 14 14 20 25 25 25 22 19 15 18 25 30 38 50 63 73 77 82 87 97 101 102 105 106
69 72 78 59 52 55 57 58 54 46 43 45 44 45 46 44 43 38 28 24 22 21 22 22 26 29 30 30 28 26 23 20 20 22 25 32 32 31 30 25 23 26 36 46 48 60 73 78 83 95 100 104 105 107
66 70 76 52 51 53 55 57 49 41 39 40 40 43 44 43 41 39 30 21 19 22 22 16 21 24 24 27 29 33 31 28 26 25 28 31 32 35 37 36 34 32 32 40 45 53 61 68 75 79 93 103 107 106
67 71 69 48 49 51 53 55 46 40 42 37 37 39 42 40 35 33 30 28 23 22 25 27 30 30 33 35 33 34 37 37 33 28 27 29 33 37 37 37 39 40 39 40 43 50 53 61 67 74 82 92 101 106
66 71 50 46 47 49 51 51 41 40 38 37 39 39 43 38 30 28 31 26 23 23 27 29 33 37 40 41 42 40 39 35 34 31 31 31 32 34 36 38 37 39 42 42 43 47 51 58 64 69 72 79 89 98
68 57 44 44 47 48 49 44 38 34 35 39 41 47 47 44 35 28 26 29 29 26 25 25 29 36 40 37 37 36 36 35 34 34 36 37 34 33 30 32 36 38 37 41 46 49 52 53 58 63 68 72 77 84
66 44 41 43 46 45 47 39 36 33 38 40 43 45 46 44 41 34 30 32 32 32 33 34 35 34 38 39 39 37 33 32 34 35 35 36 34 33 28 27 31 37 38 36 40 48 53 56 58 60 63 67 71 75
48 37 39 41 44 43 45 35 33 32 36 39 41 44 44 45 45 41 39 39 42 42 40 39 39 42 45 43 41 36 32 26 29 29 32 33 32 33 30 25 27 30 35 37 38 40 45 51 55 60 62 65 68 72
35 34 38 41 42 43 41 30 30 35 38 41 41 44 43 42 42 44 44 44 44 45 44 43 43 44 43 42 38 35 31 27 23 24 26 28 29 31 33 31 25 25 29 30 34 39 39 40 46 52 59 64 66 68
31 35 38 40 40 44 34 29 31 32 37 36 37 38 45 49 48 48 47 47 46 47 47 46 45 45 42 38 35 32 30 28 27 26 27 28 28 26 27 30 29 25 24 25 26 30 34 35 38 43 49 56 60 64
31 36 38 39 41 40 29 27 25 30 31 33 35 41 47 51 53 51 51 52 52 50 47 45 43 39 36 34 33 31 29 27 26 25 25 28 29 28 25 24 27 27 24 24 25 26 29 32 34 35 40 46 50 54
32 34 36 39 41 29 27 24 24 28 30 33 36 41 46 51 54 55 55 56 53 52 47 43 39 36 35 33 31 30 28 26 24 23 22 23 25 27 27 21 20 22 25 26 23 20 22 28 30 30 33 38 42 45
32 34 34 39 29 25 26 22 22 25 31 35 37 40 46 52 56 59 60 58 57 52 48 45 40 37 34 31 29 26 24 23 21 20 20 21 22 25 29 30 25 18 16 20 22 22 21 22 23 26 30 33 36 39
31 31 35 30 23 22 22 19 21 28 30 34 37 40 45 52 58 62 63 62 59 54 49 45 41 38 35 31 30 29 27 24 22 20 20 19 17 19 22 27 31 28 20 13 10 13 17 19 21 23 26 29 31 33
29 32 32 24 21 19 18 15 22 28 32 34 35 39 45 50 55 61 64 63 60 56 52 49 43 39 35 34 33 32 31 31 29 27 24 23 21 19 18 21 24 25 24 18 11 7 10 14 17 20 22 24 25 26
29 32 26 22 20 17 15 16 23 30 32 35 37 41 45 50 55 59 64 64 62 59 54 51 45 41 38 37 37 36 33 31 31 29 28 27 24 22 20 18 18 18 18 17 13 8 6 9 13 15 18 20 21 21
29 29 23 21 19 18 15 19 26 30 31 34 35 40 44 50 55 60 65 65 63 61 56 52 47 43 40 39 39 39 38 36 33 31 30 29 28 27 25 22 19 16 14 12 10 9 7 6 6 9 11 14 15 17
27 21 18 18 19 17 16 21 23 25 28 32 34 37 42 49 53 58 64 66 63 62 58 53 48 44 42 42 41 39 36 34 33 32 30 27 24 23 22 20 19 17 15 12 10 9 7 4 3 4 6 8 10 12
16 13 13 15 15 17 18 20 21 23 28 33 38 40 42 47 52 58 64 67 67 65 61 55 51 46 40 38 37 35 34 35 34 32 31 29 26 24 23 22 19 17 16 14 12 11 10 8 5 3 2 3 5 8
11 10 12 13 14 16 18 17 18 22 27 34 40 44 45 48 52 57 62 67 69 66 64 58 52 47 42 39 38 39 38 37 35 34 34 32 30 29 27 26 24 22 20 18 16 14 12 11 9 7 5 3 2 3
8 10 11 13 16 19 22 24 25 27 29 32 36 43 47 48 51 55 59 62 67 67 64 60 54 50 46 42 41 42 40 36 34 35 35 34 34 32 30 28 26 24 23 21 19 18 16 14 13 11 10 9 7 5
10 11 14 18 19 22 27 29 29 30 31 33 35 39 45 47 48 50 54 57 62 65 64 60 56 52 48 44 40 40 38 36 35 35 35 34 34 33 32 31 29 28 27 26 25 23 22 20 18 16 14 11 10 8

GFSWCAN_250_spd_054.txt.gz
Wind_Speed
83 87 89 92 93 96 100 104 81 80 75 66 57 50 43 38 35 32 32 32 34 37 39 38 34 31 31 35 40 40 31 24 13 10 8 7 6 8 13 19 24 30 36 44 50 55 64 73 79 92 106 105 116 118
81 86 88 90 90 94 98 99 84 80 76 67 58 50 44 40 36 34 31 32 32 33 36 37 33 28 27 31 38 45 31 23 15 7 4 2 2 3 8 14 20 27 34 39 44 56 65 69 78 84 104 105 114 119
79 84 86 88 89 93 97 97 82 78 75 66 56 51 46 40 38 35 32 31 31 30 32 33 30 24 23 23 28 35 27 24 21 11 13 9 10 8 9 13 16 23 30 39 47 57 64 71 75 84 101 105 113 118
79 81 84 86 88 92 95 95 76 76 72 65 56 51 49 39 35 34 31 30 30 28 29 30 27 22 19 20 24 30 31 29 25 19 15 18 14 12 12 15 19 19 26 37 46 52 60 67 73 88 101 102 110 118
76 79 81 83 86 89 91 95 73 75 72 66 57 55 47 41 33 31 29 27 26 25 27 25 25 23 13 14 19 23 28 31 26 20 16 20 20 16 14 14 18 23 25 34 45 54 62 64 73 90 98 103 108 115
74 75 77 80 83 88 89 92 70 73 72 66 58 54 47 43 35 32 30 27 26 27 29 25 23 21 14 13 15 18 21 25 27 19 14 12 17 19 18 15 15 19 24 32 38 47 56 60 77 95 102 101 110 114
71 73 74 78 82 86 89 88 70 72 72 65 58 54 49 44 38 31 29 28 27 27 30 29 24 21 16 11 12 14 18 22 22 21 19 13 9 18 22 23 20 20 24 31 38 43 50 56 73 93 99 95 108 113
68 70 72 76 80 82 87 81 69 71 70 64 56 53 51 45 39 34 30 28 28 25 24 23 23 20 20 15 13 13 13 16 19 20 18 14 5 8 16 19 21 19 24 31 38 44 51 57 75 94 99 103 107 111
65 67 71 74 77 79 83 71 66 68 68 62 56 54 51 47 42 34 29 25 23 19 17 18 19 20 19 17 15 15 15 14 15 14 13 11 10 1 10 19 21 23 27 34 37 46 53 59 73 89 98 102 104 108
63 65 69 72 74 78 79 62 64 65 66 57 53 50 48 49 42 37 31 25 21 20 19 18 19 20 19 20 19 18 16 16 17 17 16 11 2 1 4 13 19 25 31 37 41 45 52 56 64 84 94 98 100 105
59 65 67 71 71 77 74 58 61 62 62 53 51 46 47 48 45 40 31 28 25 24 24 22 23 25 26 23 22 20 18 17 17 17 19 20 15 7 5 11 15 25 29 36 44 47 53 59 67 85 95 98 100 104
59 63 68 69 72 74 68 57 57 59 56 50 46 43 42 44 43 39 31 27 26 24 24 22 24 26 28 26 28 29 27 24 21 20 20 20 23 22 16 13 17 23 30 35 43 49 51 56 67 81 95 96 99 102
58 63 66 68 68 72 58 55 54 55 48 43 41 42 43 42 39 36 33 33 29 27 27 26 28 30 31 31 32 28 27 28 28 27 22 22 22 22 28 27 22 24 31 39 39 44 53 56 69 83 96 101 101 101
57 63 65 65 66 64 51 53 52 52 44 38 41 43 46 45 39 37 34 31 32 33 31 31 33 34 34 34 34 37 37 34 33 32 29 22 22 26 25 26 31 30 33 41 49 49 48 49 59 68 87 100 105 107
59 61 62 63 67 51 50 50 50 50 42 40 40 43 42 41 39 36 33 31 33 34 33 34 35 38 38 37 38 36 37 33 33 33 32 29 24 24 26 29 29 32 36 39 45 51 55 54 54 55 68 92 103 105
57 61 58 61 56 45 47 49 50 46 38 38 42 42 41 41 39 37 33 31 29 29 28 30 31 31 33 32 40 40 33 33 29 29 29 30 28 24 21 24 27 30 36 40 46 49 49 54 57 57 60 70 94 104
56 56 57 57 41 43 46 48 50 41 37 39 41 38 39 41 42 39 37 38 39 38 39 38 36 35 35 36 38 40 39 32 30 28 28 28 28 28 21 21 24 27 32 37 44 50 54 55 56 59 61 65 73 86
52 55 59 41 39 43 46 46 45 37 37 38 39 38 41 45 46 47 44 45 44 43 43 42 39 39 38 37 37 37 37 34 31 27 26 29 28 25 24 23 20 24 28 32 38 44 50 57 60 61 61 62 65 73
52 58 43 35 39 43 44 46 36 34 32 35 38 39 41 44 47 48 48 49 47 46 46 43 41 40 39 37 35 32 30 28 26 26 27 26 25 24 25 24 22 21 24 27 32 35 41 48 54 60 65 65 65 67
53 47 32 35 39 42 43 40 32 30 29 34 36 38 40 43 47 50 52 54 52 49 48 44 41 38 36 33 32 29 28 27 25 25 26 26 24 22 21 21 21 18 17 23 27 32 37 40 46 52 59 64 68 68
47 30 31 34 38 40 42 29 27 24 28 33 35 36 38 44 49 53 56 55 53 52 49 44 41 37 34 32 30 29 28 28 28 26 26 26 25 24 21 19 19 21 20 18 24 28 33 37 41 47 52 56 61 66
30 28 31 34 38 41 30 27 23 24 29 33 33 35 40 46 49 52 57 58 55 52 48 44 39 36 33 30 29 28 27 26 27 27 27 27 28 28 26 21 17 16 18 16 16 22 27 31 34 38 45 50 52 55
25 29 31 34 37 36 27 24 22 24 29 34 37 37 40 43 47 52 56 57 54 52 46 41 37 34 31 31 30 28 28 28 26 27 28 28 28 28 28 24 18 14 12 17 18 18 22 27 31 33 35 39 43 48
25 28 30 32 36 28 24 23 20 24 30 35 37 36 40 43 48 53 58 57 54 51 46 43 38 36 33 31 29 29 26 26 25 24 22 22 22 23 24 25 22 16 10 9 12 15 17 22 26 28 31 32 34 38
26 27 28 33 28 22 22 21 19 24 30 35 35 36 39 43 49 55 57 56 56 53 49 44 40 37 35 33 32 30 27 25 24 23 23 23 22 19 19 20 20 18 13 7 9 15 16 18 21 25 27 27 30 33
24 24 28 28 20 19 20 18 18 24 29 33 33 35 38 41 46 52 57 58 59 57 51 46 42 38 35 34 32 30 29 29 28 27 26 25 24 23 22 20 17 15 13 8 6 11 15 16 17 18 19 22 25 29
24 24 27 19 17 18 17 15 19 24 27 28 31 33 35 40 46 52 60 62 63 59 54 49 45 40 36 35 33 33 31 31 31 30 30 30 29 28 25 23 20 16 13 10 6 5 8 12 14 14 15 16 18 20
23 27 19 15 15 15 14 17 19 19 21 27 32 37 40 42 46 52 56 60 63 60 56 51 48 43 39 39 39 38 36 35 34 34 34 33 30 28 25 22 20 18 16 14 10 6 4 6 8 10 11 13 15 16
25 16 11 11 11 14 14 13 12 17 23 27 32 37 41 45 46 49 53 57 61 62 58 55 51 46 44 43 40 38 36 37 36 35 32 31 30 29 28 27 25 22 19 16 13 11 7 5 3 4 6 9 11 13
10 7 7 8 9 9 10 13 16 19 22 25 29 33 39 44 47 49 50 53 58 61 60 57 54 50 46 42 40 39 37 37 36 35 35 34 33 31 28 27 25 24 21 19 16 13 11 9 6 4 2 3 5 7
6 5 4 5 5 7 10 14 16 18 21 23 26 32 38 43 47 50 50 51 55 59 61 60 56 53 48 44 40 39 39 37 37 36 35 34 34 33 32 30 28 25 23 21 19 18 16 14 12 9 7 5 3 3
1 6 8 6 7 9 10 13 16 20 24 26 28 32 36 41 45 50 53 52 53 56 59 59 57 54 50 46 42 39 37 36 35 35 34 35 34 33 33 32 31 30 28 27 25 23 21 18 16 15 13 11 9 7
6 7 1 7 12 12 16 20 22 24 27 30 33 35 37 39 41 46 51 53 53 52 55 57 57 55 52 48 45 42 39 36 34 34 33 33 33 32 32 32 32 32 31 30 28 26 25 24 23 21 18 16 13 11

GFSWCAN_250_spd_057.txt.gz
Wind_Speed
76 77 76 77 78 83 86 90 93 96 101 89 79 73 64 58 48 40 33 32 30 30 28 26 23 19 13 14 18 28 31 27 28 26 23 21 17 17 17 18 19 25 31 39 45 55 62 64 71 80 84 95 103 111
79 75 75 76 77 82 85 88 91 95 100 85 77 73 65 57 49 41 34 33 31 30 28 27 26 22 11 11 17 26 30 29 31 22 19 14 11 8 8 11 15 21 27 32 39 48 52 59 67 77 81 90 100 109
74 71 72 75 76 81 83 88 89 93 98 81 77 74 65 59 50 42 35 32 29 27 28 28 28 24 15 12 14 22 30 30 28 25 25 15 8 3 3 7 13 17 23 26 31 38 47 53 61 65 74 84 94 106
69 69 71 72 75 79 82 86 89 92 94 79 76 73 66 59 50 43 35 31 28 21 21 26 25 24 13 11 14 21 27 33 33 28 25 20 7 4 4 6 10 13 15 18 23 32 41 51 63 65 68 77 89 99
67 67 69 70 74 77 79 85 87 90 90 76 74 70 65 60 53 45 36 30 27 23 23 24 23 22 15 10 12 16 23 26 31 28 25 16 15 12 10 10 8 11 13 18 25 33 40 47 52 58 70 79 87 96
63 63 65 68 71 74 78 83 84 88 85 73 72 68 64 57 55 47 37 33 28 25 26 26 24 20 18 14 13 15 19 22 25 26 20 19 14 12 12 17 15 11 10 11 22 30 37 42 49 55 62 74 86 96
57 60 63 65 68 72 77 81 81 85 79 70 70 65 62 57 52 46 38 33 30 28 28 26 25 25 24 22 18 16 15 18 21 23 24 18 13 9 8 19 14 13 10 9 13 23 30 37 44 52 61 74 88 94
52 55 59 63 67 69 76 77 80 81 72 67 67 61 58 57 54 47 39 33 28 26 25 22 20 20 20 19 19 18 17 17 17 18 20 21 13 7 5 10 14 9 13 19 18 22 29 36 45 54 66 79 90 94
47 54 55 61 66 69 74 80 74 76 67 64 63 56 54 54 52 46 40 35 29 27 26 22 19 21 20 18 17 16 15 14 15 16 15 15 13 9 7 2 6 11 12 17 20 20 25 32 45 56 68 81 95 107
47 52 54 60 65 68 73 73 75 72 63 60 59 53 52 52 50 45 43 33 33 31 28 26 26 27 28 27 23 22 18 14 11 12 14 14 15 11 11 11 11 11 22 23 23 24 29 35 44 62 72 80 95 109
47 52 54 60 65 67 71 71 72 62 60 59 56 49 49 50 48 46 42 39 32 30 31 31 30 28 28 30 31 27 24 21 17 11 10 12 15 15 13 12 11 14 16 27 36 38 37 36 44 60 76 86 95 106
45 50 54 61 63 68 68 69 61 57 57 58 49 47 48 47 45 43 40 37 34 34 35 35 34 34 35 35 32 30 28 27 26 23 19 13 13 17 19 19 17 17 25 23 30 35 38 42 45 57 73 84 94 102
48 50 55 58 62 66 65 64 54 54 54 55 44 46 46 44 46 43 41 39 36 35 34 33 33 36 35 33 32 33 33 30 27 26 25 25 18 17 22 25 28 27 23 27 28 33 41 43 47 56 69 81 91 96
47 50 54 58 62 66 63 59 51 53 53 50 43 44 44 45 48 43 39 37 35 34 32 32 31 33 33 33 33 36 37 37 36 27 25 27 27 26 23 26 30 33 33 31 31 35 38 44 49 53 65 78 86 95
47 50 56 58 63 62 60 47 48 51 52 43 41 41 42 44 45 41 40 41 42 41 39 36 36 37 38 37 37 36 38 39 38 32 27 28 30 31 27 26 30 35 34 39 38 38 41 43 45 49 60 73 86 92
47 52 52 58 58 61 53 44 47 49 49 38 38 39 41 42 42 43 45 47 48 46 43 42 41 39 38 39 39 36 36 35 36 33 28 26 29 29 28 26 25 30 34 39 44 44 43 44 46 48 54 71 83 94
46 52 53 54 56 60 40 44 46 49 39 36 36 38 42 40 41 45 49 50 53 52 47 46 44 41 39 37 36 33 32 31 28 28 27 24 24 25 24 23 24 29 31 37 41 44 45 46 47 51 52 56 72 90
49 49 52 52 58 40 39 43 45 45 35 33 34 39 41 41 43 47 49 53 54 53 49 46 44 40 37 34 31 30 29 28 27 26 27 24 21 20 21 22 25 25 27 32 38 42 45 51 48 50 55 59 63 70
46 45 49 53 45 37 41 41 45 36 33 30 34 40 41 41 43 47 51 53 54 52 51 46 40 36 33 31 29 28 28 27 26 26 27 25 22 20 19 19 22 24 26 30 32 38 41 43 50 52 52 57 65 71
43 45 51 52 35 37 39 41 41 34 30 30 35 40 43 42 43 47 51 54 51 48 46 40 37 34 32 28 27 28 27 27 25 23 24 27 23 20 16 15 17 22 25 28 31 34 40 42 44 49 55 58 57 62
43 48 53 36 35 37 37 41 34 29 26 30 38 43 44 42 44 48 52 52 50 48 44 42 38 33 28 26 26 27 27 24 24 25 22 18 20 20 18 15 12 17 22 25 29 33 36 39 42 44 49 52 57 58
45 51 39 31 34 36 38 36 28 26 27 32 38 43 43 42 45 48 51 52 51 50 48 43 39 35 34 33 32 32 31 30 28 27 27 27 25 24 21 16 13 9 15 21 23 28 35 36 37 40 42 46 49 52
48 37 28 30 33 34 37 31 25 25 27 32 39 43 39 40 41 46 52 55 52 51 48 44 39 36 34 32 32 32 32 31 30 29 29 27 25 22 22 21 19 13 11 16 20 24 26 28 30 33 34 38 42 44
37 26 28 30 31 35 33 26 24 24 28 34 39 35 36 40 41 45 51 56 54 52 48 42 37 35 35 34 33 31 30 30 27 26 26 26 23 21 21 19 17 15 12 14 17 20 20 24 27 27 28 32 35 38
24 26 27 29 31 33 26 24 23 22 28 32 29 32 37 42 43 46 50 53 54 53 49 45 41 38 36 34 32 31 29 27 26 23 23 22 21 19 16 13 12 11 11 9 13 17 17 15 17 21 24 27 30 33
23 25 27 28 31 24 23 22 21 23 25 22 29 35 40 43 44 44 46 52 55 56 52 47 44 40 39 38 35 33 32 31 30 28 26 24 23 22 20 16 12 11 9 8 8 10 12 12 12 13 16 21 25 28
23 25 26 30 22 19 18 19 19 17 19 25 27 31 35 41 45 46 47 51 56 57 55 52 47 44 40 38 36 35 35 34 33 32 30 28 26 24 22 20 17 14 13 10 9 8 7 7 7 8 10 13 18 22
22 24 27 18 16 18 17 16 16 17 22 24 27 30 33 38 44 50 53 52 54 57 56 52 49 45 42 39 38 38 38 37 36 34 32 31 28 26 24 22 19 17 15 14 12 10 7 5 4 5 6 8 11 16
21 24 15 14 15 13 14 16 18 20 24 26 27 29 32 36 41 46 51 55 54 54 57 56 52 48 45 42 39 37 35 33 33 35 34 32 32 30 28 26 23 22 20 17 15 13 11 9 7 6 5 5 7 10
19 13 12 11 8 10 15 19 21 22 23 25 26 30 33 36 39 43 47 52 56 55 54 55 53 50 48 45 42 39 37 35 33 33 32 31 31 31 30 28 27 24 21 19 17 15 14 11 10 8 6 5 5 6
10 11 6 4 8 12 14 17 20 23 27 29 32 35 38 40 41 42 44 47 51 54 55 55 56 53 50 49 46 42 39 36 35 34 32 31 30 30 29 28 27 25 24 23 20 18 15 13 11 10 8 7 6 6
7 4 4 5 9 8 11 16 23 26 29 32 35 39 43 44 46 47 45 45 48 51 54 54 54 54 51 49 46 43 41 38 37 35 34 32 30 29 29 28 27 25 25 24 23 21 19 17 15 13 11 10 8 7
3 4 4 6 5 6 8 15 23 29 32 34 37 41 44 47 48 50 48 46 45 46 48 51 52 52 52 49 47 45 42 40 39 37 35 33 32 30 30 28 27 26 26 25 24 24 22 20 18 16 15 14 13 11

GFSWCAN_250_spd_060.txt.gz
Wind_Speed
94 84 65 62 67 70 74 78 81 83 89 95 99 97 79 72 61 57 44 32 25 22 18 18 15 12 11 6 7 8 17 21 19 20 23 25 28 26 23 20 22 27 34 42 51 59 62 66 74 80 82 90 104 111
93 85 67 60 65 65 73 75 80 82 89 94 97 94 79 72 62 55 46 35 26 22 20 19 14 12 7 3 4 10 19 25 23 22 20 22 27 26 23 19 17 19 27 37 43 47 52 59 68 71 74 81 92 103
86 71 55 56 60 64 70 72 78 81 88 92 93 91 77 70 61 55 45 37 29 21 16 18 18 19 10 5 6 11 18 22 25 24 23 21 21 19 18 15 11 15 20 25 32 37 45 51 57 60 63 72 87 94
80 63 49 53 59 63 68 70 76 81 85 90 91 80 74 68 59 57 45 36 29 23 20 20 20 20 13 7 7 11 16 20 28 29 22 22 21 22 14 6 6 9 13 20 25 30 37 45 50 56 62 71 84 86
73 50 46 53 55 62 65 68 76 81 83 86 88 77 72 66 60 58 45 36 29 23 22 22 20 18 16 11 9 11 13 16 19 23 26 18 21 22 19 7 5 4 7 15 22 28 33 42 47 52 58 67 75 84
56 41 44 51 55 61 64 66 73 80 82 84 85 72 69 61 60 55 44 36 30 30 29 26 22 20 19 18 15 13 12 13 17 19 22 22 20 22 20 18 5 6 8 9 14 22 29 32 39 43 49 58 65 76
47 38 46 49 54 59 63 67 73 76 80 82 82 69 66 58 58 54 47 38 31 27 24 24 24 21 18 19 19 19 16 14 12 13 17 21 22 16 15 15 13 6 4 6 9 14 19 23 28 35 42 51 59 70
43 38 45 46 53 58 62 66 73 74 79 81 72 67 62 56 53 52 47 39 36 28 28 26 24 24 24 22 17 16 16 16 16 13 10 12 16 16 14 14 11 7 4 2 3 5 14 22 25 33 39 46 55 65
34 37 42 44 53 58 61 68 70 75 77 77 65 63 56 54 51 51 48 43 34 28 26 26 26 27 26 28 29 23 18 20 16 15 12 11 12 12 11 10 9 7 2 7 5 5 8 14 19 27 39 50 56 65
32 38 39 46 53 57 63 66 70 73 76 71 63 59 50 50 49 51 46 42 37 36 37 35 33 29 28 28 29 32 27 25 24 19 16 15 15 15 12 11 10 10 8 11 16 12 12 11 18 28 38 46 55 62
33 35 43 46 53 58 61 64 67 71 73 59 57 55 47 46 47 49 46 43 39 42 45 42 39 37 34 33 29 33 33 28 27 25 21 20 17 15 18 19 16 12 12 17 19 18 20 16 22 34 37 42 51 57
31 40 41 48 55 57 61 64 69 71 67 58 55 49 43 44 45 45 44 43 33 51 53 56 43 36 32 41 34 34 37 36 38 32 29 24 21 20 21 22 26 22 19 21 24 27 27 21 35 41 44 43 48 57
33 40 44 51 52 57 60 65 67 68 57 54 53 43 39 42 43 44 42 41 19 27 52 61 49 43 35 30 28 34 41 40 41 36 37 30 25 23 26 27 27 29 30 27 27 30 32 30 38 50 49 48 56 58
38 41 48 49 52 58 63 63 65 61 52 52 50 41 38 41 44 43 44 40 34 35 43 51 49 44 43 38 37 40 43 37 39 39 37 34 32 28 26 29 30 32 34 37 32 35 37 39 39 50 57 60 61 67
40 40 48 48 52 59 58 60 62 55 51 50 44 40 39 43 45 46 47 37 61 60 60 58 55 51 46 41 38 36 39 39 39 37 34 35 34 28 29 27 29 30 35 37 39 36 40 43 45 49 58 64 64 70
40 45 46 49 56 52 56 61 58 48 48 49 42 38 39 44 50 48 44 37 48 57 60 59 57 51 45 39 36 34 32 31 31 32 30 31 31 27 25 27 26 27 29 36 37 39 40 43 47 52 57 62 66 70
35 44 43 52 53 53 57 60 48 47 47 45 39 36 38 41 25 39 49 52 56 59 60 58 55 49 42 36 33 31 29 28 27 26 28 27 26 26 23 23 25 27 27 31 34 38 40 42 42 49 55 62 71 78
37 43 48 53 51 54 56 53 44 45 47 40 36 37 40 42 45 45 49 54 61 64 61 56 49 41 36 34 31 29 27 27 25 24 24 23 22 20 20 22 23 25 25 27 33 36 37 39 42 44 53 60 65 78
40 44 47 49 51 53 58 41 43 44 45 38 35 38 43 42 45 48 48 51 55 56 53 48 42 37 34 32 32 30 29 29 29 28 26 25 24 21 19 20 21 24 26 25 28 31 35 37 38 44 49 56 62 68
41 43 47 48 52 57 44 39 40 44 40 37 35 38 43 44 41 48 48 51 55 54 49 45 40 36 34 31 28 27 25 23 22 23 23 22 22 22 22 19 18 21 26 26 26 29 32 35 37 41 45 49 56 66
41 44 44 50 55 48 37 38 39 40 38 37 38 37 41 44 47 46 47 51 55 54 51 46 42 38 35 32 30 29 28 28 27 26 27 26 24 23 19 18 14 17 22 27 28 26 29 30 33 37 37 41 48 56
40 42 47 50 53 37 37 36 38 31 30 18 22 37 38 43 47 48 48 52 56 55 52 49 43 37 36 33 31 31 31 30 29 29 29 29 27 21 20 18 16 14 18 22 25 28 22 27 26 30 33 38 41 47
38 43 46 51 37 35 36 37 36 31 28 24 23 29 36 40 43 45 46 50 53 53 50 46 43 41 40 38 36 35 33 31 29 28 29 29 28 27 24 19 15 16 14 15 20 23 22 22 23 24 27 30 35 38
39 42 48 38 33 35 35 37 29 27 23 16 32 33 35 39 43 47 49 49 51 53 53 50 45 40 36 34 30 28 29 32 31 29 26 27 27 25 23 22 19 17 15 12 15 18 18 15 14 21 23 23 30 34
40 43 37 31 32 33 34 27 25 27 24 23 30 33 35 38 42 45 49 52 54 56 57 54 50 44 40 37 34 32 30 29 28 29 29 27 25 24 22 19 17 16 15 13 12 13 15 12 12 15 18 21 24 25
41 35 28 29 30 29 24 23 11 21 26 30 33 37 37 40 42 45 47 50 54 55 57 57 55 50 44 41 38 36 33 32 32 29 28 28 27 26 24 20 18 17 15 13 11 8 8 9 10 13 14 16 19 21
33 25 25 26 23 17 17 24 28 28 31 33 34 34 38 39 42 44 47 50 52 55 56 57 58 54 50 46 41 36 34 33 31 30 31 30 28 26 24 22 20 18 15 13 11 9 6 4 5 7 11 13 15 16
21 22 23 19 15 14 17 22 26 27 29 28 30 32 36 41 46 48 49 50 52 54 55 56 56 56 53 49 44 42 40 37 35 33 30 28 29 28 26 24 22 20 18 15 12 10 8 5 3 3 5 8 11 13
19 20 18 12 10 8 10 21 26 30 28 27 31 36 40 43 47 50 52 51 50 50 53 55 55 54 55 52 48 43 40 39 36 34 33 32 31 29 27 25 24 23 21 19 17 14 11 9 6 3 2 3 5 8
17 16 8 9 11 10 10 16 19 21 26 32 35 38 41 44 48 51 52 53 52 48 50 52 53 54 54 54 50 47 44 41 38 36 34 33 31 30 29 28 26 24 23 22 20 18 14 12 9 7 4 3 2 3
13 6 5 8 9 9 7 17 18 25 31 34 36 38 40 43 46 50 51 51 51 51 48 49 51 51 51 53 52 49 46 43 41 38 35 34 33 32 31 29 27 26 25 24 22 20 18 16 14 12 10 7 5 4
5 4 5 1 4 2 13 19 23 29 28 33 37 41 44 46 49 50 50 47 49 50 50 47 48 48 49 49 51 49 47 45 43 40 38 37 35 34 32 31 30 28 27 25 23 21 19 17 16 15 13 12 10 8
4 4 3 4 8 8 10 19 26 27 28 33 37 40 44 46 50 50 45 45 46 48 50 48 43 44 44 45 46 48 47 46 44 42 40 39 37 36 34 33 31 29 28 27 25 24 22 20 19 17 15 14 13 12

GFSWCAN_250_spd_063.txt.gz
Wind_Speed
102 104 104 95 81 55 53 60 65 71 72 80 88 91 95 98 81 65 59 42 30 25 18 17 17 19 16 9 3 4 7 10 14 16 17 21 23 24 20 21 20 24 33 40 44 49 64 72 76 82 85 90 98 100
96 101 101 97 68 52 52 58 65 72 70 79 86 89 94 93 79 65 58 44 34 27 22 21 15 14 8 2 3 5 9 13 17 21 19 17 15 20 27 20 15 14 20 28 36 42 51 62 66 67 75 82 95 100
97 102 95 88 64 49 52 56 64 68 73 80 85 88 92 86 77 60 56 43 30 22 17 15 14 15 9 4 6 8 11 14 17 22 28 25 25 23 22 21 16 14 15 20 27 36 43 50 54 59 63 71 81 92
105 101 91 74 66 48 52 56 62 68 72 80 84 87 88 79 72 60 55 45 34 27 21 20 18 17 13 8 10 12 14 15 15 17 18 22 18 25 22 17 13 9 11 16 21 27 33 40 47 53 58 66 72 80
102 91 85 72 59 45 51 51 60 68 71 79 83 84 88 76 68 59 55 44 32 26 22 21 20 19 17 14 11 12 15 18 19 19 19 18 19 15 18 20 6 7 6 10 18 23 27 34 39 45 52 57 64 73
96 92 81 58 44 42 46 52 59 67 71 77 80 83 81 72 64 56 52 46 35 25 26 28 26 24 20 19 18 18 18 18 18 19 20 18 17 20 17 19 16 9 3 5 10 16 25 31 37 39 43 49 55 61
91 88 63 48 37 41 45 50 56 64 71 77 77 82 74 66 58 52 50 44 36 36 41 38 41 39 38 36 30 20 19 20 18 22 22 20 19 17 16 18 18 15 9 3 4 13 17 24 30 36 40 45 50 56
87 68 55 36 37 43 46 52 57 64 70 71 78 77 66 64 52 50 50 44 29 45 50 45 49 50 57 57 41 32 28 26 21 21 20 23 21 22 19 15 17 18 16 5 3 7 13 15 22 28 35 42 47 52
68 57 40 34 39 42 48 52 59 62 69 75 76 71 64 57 48 46 45 41 38 47 52 49 47 54 59 65 53 52 49 33 35 26 24 21 22 22 23 24 17 17 18 14 12 5 5 8 18 23 30 38 43 47
55 48 35 33 38 42 50 55 59 65 71 71 73 64 58 49 43 45 42 38 38 45 47 44 47 50 58 60 57 56 55 53 47 44 34 30 22 24 23 21 25 21 17 18 17 14 16 15 13 18 26 30 37 42
50 38 32 30 38 43 48 57 57 64 65 70 69 57 56 45 43 45 39 29 34 37 39 36 40 50 58 67 53 40 43 47 49 53 51 40 26 24 27 27 21 24 24 22 21 21 25 23 18 18 20 27 32 38
40 29 26 32 40 44 52 55 59 61 63 67 61 56 51 42 40 36 30 30 39 41 25 21 26 53 65 62 45 35 36 49 54 50 50 43 30 25 23 28 32 29 24 26 27 26 25 25 24 22 23 24 28 35
29 31 31 36 40 43 52 54 58 58 65 65 53 51 43 36 33 31 30 24 16 38 41 51 60 67 68 51 41 37 36 42 42 43 44 40 37 35 24 23 30 33 34 32 29 32 32 30 29 28 27 26 30 36
30 35 32 37 40 46 46 52 56 61 62 59 51 48 35 35 34 25 19 32 42 44 53 56 57 57 49 44 38 33 32 31 31 34 36 33 32 33 34 23 21 31 36 37 33 32 36 36 33 35 36 36 37 40
29 28 30 34 39 46 50 55 59 60 59 49 48 43 31 30 29 27 22 37 46 50 55 59 61 56 51 45 39 33 29 26 25 27 29 31 32 29 32 30 24 27 29 33 33 31 30 36 38 43 46 45 46 46
25 30 32 37 47 45 49 55 59 62 52 48 47 39 34 37 43 41 43 51 52 54 60 65 64 57 48 42 36 30 29 28 26 26 27 26 26 28 28 28 26 27 27 26 28 29 29 30 38 39 43 46 51 51
26 28 30 33 41 47 50 54 59 59 45 46 40 35 32 38 49 51 47 54 60 61 64 63 56 47 41 36 34 34 32 30 28 27 24 22 23 25 26 27 28 27 27 24 25 25 28 29 34 41 41 47 50 54
20 28 37 42 44 47 49 54 59 45 43 38 33 30 27 42 55 54 56 53 53 57 62 59 50 43 38 35 33 31 29 28 28 29 30 29 27 26 25 23 26 28 27 27 25 26 26 28 31 37 41 45 48 53
28 31 36 36 42 47 49 54 50 42 39 30 28 24 22 27 54 54 55 54 54 58 55 49 46 43 40 38 35 31 28 24 22 23 23 23 20 21 22 23 21 26 26 26 27 24 26 29 28 30 38 43 46 54
30 33 34 37 41 46 49 52 38 38 35 24 20 21 14 30 44 50 53 55 51 51 55 53 48 43 40 39 37 35 33 32 30 30 30 30 30 28 25 25 21 22 23 25 28 24 23 26 25 28 30 37 46 51
25 33 32 39 41 46 51 38 37 36 27 18 16 19 26 37 40 46 51 55 55 56 57 53 47 45 42 37 34 33 32 32 32 33 33 34 33 31 27 24 23 20 22 23 24 23 22 21 22 28 29 33 42 47
28 29 32 38 44 47 37 33 33 28 24 21 18 25 36 43 45 48 52 54 59 59 57 56 53 49 42 38 36 32 33 34 33 33 33 32 31 30 30 25 18 18 20 17 17 22 19 16 18 22 23 28 33 38
26 30 36 42 43 36 31 32 27 16 21 20 27 28 34 37 38 41 43 48 51 54 55 55 54 51 51 49 44 40 38 34 32 31 30 29 28 28 27 26 26 21 16 12 13 15 13 17 17 15 20 27 29 31
28 32 38 37 37 29 29 25 17 16 28 31 30 33 33 36 40 45 49 50 49 49 53 54 56 55 49 43 40 36 34 33 32 31 31 31 31 28 26 25 24 24 23 21 16 13 13 12 12 13 14 19 23 28
29 35 36 39 26 27 24 13 17 26 27 28 29 33 37 42 45 51 53 55 54 54 55 55 56 56 53 50 46 43 41 38 36 34 34 33 31 30 29 27 25 22 19 18 17 15 12 9 8 11 14 14 20 25
34 35 39 24 23 21 10 8 15 23 28 31 32 35 39 44 50 53 55 55 55 55 54 55 56 57 58 53 50 47 43 42 40 37 34 33 32 30 29 28 27 26 22 17 15 14 12 10 9 8 9 12 15 18
31 36 25 19 20 10 7 8 8 13 25 29 32 37 41 43 46 48 52 54 51 55 56 55 55 55 56 58 55 50 47 44 42 41 39 38 35 32 30 29 27 25 23 20 18 15 11 8 6 6 6 8 11 13
34 23 16 17 10 3 5 16 16 15 23 32 34 40 47 50 51 53 55 52 52 55 60 58 57 55 54 55 55 52 49 46 45 44 40 36 35 33 31 29 29 27 25 22 19 17 14 11 8 6 5 4 7 10
18 14 14 6 2 5 6 17 18 19 26 31 27 33 47 51 56 55 57 51 50 51 54 55 53 55 54 53 54 52 49 46 44 43 41 38 35 34 33 31 30 29 27 25 23 22 19 16 14 11 8 6 5 7
12 11 5 5 5 4 8 11 16 22 31 34 30 33 43 43 53 59 59 55 50 52 55 57 56 56 50 48 48 51 51 49 47 45 44 41 39 36 35 33 32 30 29 28 26 23 21 18 15 12 10 8 6 5
11 8 9 11 7 8 4 8 13 22 21 34 38 40 43 42 48 54 56 55 52 54 56 58 57 54 42 44 45 48 50 49 48 46 44 43 41 39 37 35 34 33 32 30 28 26 25 23 20 17 14 11 9 7
10 7 12 9 5 10 13 14 11 13 13 29 30 36 38 44 50 55 56 52 52 54 55 56 54 52 37 39 41 43 46 48 48 46 45 43 42 40 39 37 36 35 33 32 30 28 26 24 23 21 19 17 14 12
4 7 6 2 4 6 11 15 14 14 14 9 19 40 37 37 45 50 53 49 50 51 54 54 51 45 32 33 36 39 41 45 47 46 45 43 42 40 39 38 38 36 34 33 32 30 29 27 25 22 20 19 17 15

GFSWCAN_250_spd_066.txt.gz
Wind_Speed
92 97 97 97 101 103 87 73 52 51 58 66 69 77 81 86 87 71 61 58 42 32 24 19 19 19 14 8 2 5 8 9 11 14 17 19 23 22 21 30 36 37 40 42 48 52 56 69 80 87 92 97 100 107
95 100 99 103 101 93 76 58 50 50 57 64 67 75 79 84 82 71 58 57 39 31 26 22 19 16 9 5 4 6 10 14 16 19 18 15 15 19 19 24 27 25 26 33 39 44 49 52 62 72 78 84 89 94
96 100 101 95 93 82 73 52 44 51 56 63 66 74 76 82 77 66 56 51 35 27 26 23 26 23 22 16 12 13 16 19 21 22 23 21 20 18 18 19 18 17 16 22 28 35 39 44 49 57 65 74 78 84
94 97 98 90 90 78 65 47 45 50 55 60 65 72 77 79 68 61 51 46 33 25 23 21 24 33 33 25 21 19 20 22 23 24 24 25 27 24 23 19 20 15 14 15 20 25 29 34 41 47 56 64 68 73
93 95 88 89 81 67 58 41 44 48 55 62 68 70 72 75 62 56 48 40 27 26 22 24 29 32 30 30 34 33 27 23 26 26 23 22 23 27 28 25 20 19 16 13 18 20 22 26 32 39 48 55 59 62
90 82 87 86 73 62 46 37 39 46 58 65 63 66 70 67 59 51 47 41 33 31 23 23 29 38 41 46 50 50 46 56 29 25 25 26 25 22 26 27 26 28 21 14 14 18 22 25 27 32 40 48 53 57
83 80 84 77 64 53 36 37 40 49 56 60 67 65 68 62 57 47 44 38 30 32 36 30 31 39 40 46 49 51 57 64 48 28 25 25 21 25 24 28 29 25 24 23 19 19 17 22 25 28 33 39 47 52
82 81 81 66 57 42 33 35 42 51 57 61 61 67 68 58 55 46 44 36 29 35 41 44 45 49 47 51 52 53 61 65 56 49 36 32 25 25 25 25 31 31 23 22 20 19 19 20 23 26 30 36 40 48
73 74 65 58 49 34 32 36 47 51 53 57 63 66 63 54 48 43 37 28 34 37 35 40 43 44 48 50 57 62 64 59 51 53 48 39 39 30 26 26 31 33 29 28 25 24 21 21 21 24 26 32 38 40
63 57 56 45 38 27 34 36 46 48 50 56 64 65 56 52 44 39 33 29 32 36 39 47 57 59 60 61 59 58 50 46 46 48 50 47 42 34 21 27 30 34 35 30 32 30 29 24 26 25 26 31 37 38
53 48 48 39 28 28 34 41 45 48 52 58 64 61 50 49 41 37 29 31 31 38 45 54 58 64 62 62 56 46 43 38 43 49 46 44 45 30 15 19 32 33 33 34 33 34 35 34 29 31 29 29 34 36
40 44 35 29 26 29 32 43 44 48 54 58 63 55 49 42 37 41 39 39 39 35 46 53 50 51 55 54 48 44 39 35 32 36 40 42 40 37 30 28 26 28 31 35 37 36 37 38 34 31 32 32 30 33
36 36 28 25 31 27 34 41 47 49 54 57 60 45 44 36 35 39 44 42 44 45 45 50 53 51 47 42 39 34 33 33 27 29 32 35 34 33 33 32 25 21 29 35 36 37 38 35 34 31 31 34 31 31
32 26 24 24 24 28 37 40 44 50 53 58 50 43 36 28 28 45 54 58 60 58 56 56 54 51 45 41 35 31 27 31 31 22 24 28 29 29 28 29 26 20 25 31 31 30 25 27 37 33 31 33 32 33
24 19 21 22 25 28 33 37 48 50 53 54 42 42 36 28 29 41 54 65 66 66 59 58 56 49 44 39 35 33 31 27 25 25 25 26 27 28 28 27 26 26 23 25 29 31 23 25 33 33 31 31 34 34
17 17 16 18 22 32 40 43 47 50 54 41 42 38 29 26 27 35 49 65 66 66 63 61 57 51 45 40 37 34 32 32 30 28 25 23 23 24 25 27 27 28 27 25 26 27 24 24 27 29 34 32 32 38
13 10 13 17 27 34 38 43 44 51 44 40 38 30 22 21 27 37 50 59 62 65 63 58 55 49 41 37 36 34 33 32 31 29 28 26 27 28 28 28 25 26 28 25 25 22 22 21 24 27 33 33 33 38
12 13 16 21 30 35 34 40 45 49 36 37 29 27 21 22 25 38 50 56 59 60 59 58 57 50 45 40 36 34 32 31 29 28 26 25 24 24 24 24 26 28 31 29 21 16 18 18 24 25 29 33 34 36
14 15 19 23 25 30 35 42 47 39 33 22 23 33 30 22 33 46 47 48 49 50 49 49 52 51 47 45 42 39 36 35 34 33 33 32 29 27 23 22 21 21 22 22 21 19 15 13 18 20 28 29 31 34
11 15 20 22 26 30 40 45 39 31 25 15 20 29 37 36 38 42 41 41 41 42 50 53 52 50 48 43 42 41 39 37 35 33 33 33 33 32 29 26 25 27 24 21 21 17 11 11 14 19 24 26 29 33
11 16 20 25 26 35 40 39 30 19 15 22 27 30 31 30 35 41 43 44 50 53 50 50 52 53 49 48 44 39 36 35 35 36 36 34 34 35 33 29 25 20 23 24 18 16 14 6 7 16 20 22 26 31
9 19 21 24 28 36 37 31 23 8 19 28 27 25 28 33 41 48 51 52 54 54 52 54 55 56 55 52 49 49 46 42 39 38 37 36 34 31 31 31 27 23 16 18 19 13 12 9 8 11 16 18 21 25
13 17 21 25 31 35 33 22 10 8 14 20 23 29 36 43 48 54 53 49 50 54 54 52 54 56 57 58 57 53 49 46 42 38 34 33 33 32 30 28 26 23 19 18 16 13 12 10 4 7 11 14 19 21
15 21 24 28 33 31 24 8 7 9 14 21 27 32 37 44 52 55 57 53 51 53 57 58 58 55 54 54 53 51 47 44 42 40 39 37 35 33 31 29 27 25 22 19 16 12 10 11 9 5 10 14 16 18
15 23 27 30 29 24 19 8 6 14 18 19 23 32 40 44 50 57 60 60 53 55 57 61 63 60 54 54 55 52 50 46 43 41 39 38 35 33 31 28 27 25 24 21 15 13 10 7 6 6 6 7 8 10
22 25 26 28 26 19 16 7 5 10 17 22 24 27 36 45 51 53 60 62 59 57 58 61 64 63 59 54 53 54 51 48 45 41 39 39 38 36 34 31 27 25 22 20 21 21 18 13 9 7 5 4 5 7
20 22 26 30 18 15 8 3 7 8 17 25 26 25 31 41 47 51 56 60 59 55 60 60 59 61 58 55 54 56 56 53 49 47 45 43 40 37 35 33 30 29 25 21 17 13 10 9 8 7 5 3 3 5
23 25 29 18 16 13 11 4 9 12 17 24 22 23 34 38 43 45 52 58 59 57 61 62 59 56 51 46 48 51 54 54 51 47 44 43 40 39 36 32 31 29 27 26 23 21 18 16 15 14 12 9 6 3
26 30 17 15 13 12 10 3 8 14 15 20 22 19 31 39 47 51 53 57 59 55 60 66 65 56 46 39 40 43 47 50 50 46 44 43 42 39 36 36 35 32 30 29 27 25 22 20 17 14 13 11 8 6
23 13 13 14 13 10 3 1 6 15 18 20 28 30 31 37 48 50 53 54 58 55 54 60 62 52 43 35 38 40 43 47 49 48 45 44 42 41 41 39 36 35 35 33 30 28 26 23 20 18 16 13 10 9
8 12 17 13 15 13 8 12 15 17 21 22 26 28 24 36 46 45 51 52 57 58 55 58 61 57 45 38 37 40 42 44 47 48 47 46 45 43 41 40 39 38 37 36 34 33 30 28 26 23 21 18 15 13
10 13 13 10 9 8 10 14 16 19 19 21 23 26 36 41 40 46 51 52 52 55 52 55 59 59 53 45 40 38 40 41 42 45 45 45 44 43 42 40 39 38 38 37 35 34 32 29 27 25 24 21 20 18
2 3 3 4 6 7 8 11 14 14 15 16 20 28 34 38 41 44 49 52 53 54 52 51 53 56 57 53 45 41 37 38 39 41 43 44 44 43 42 40 39 37 36 34 33 33 32 31 30 28 26 24 22 21

GFSWCAN_250_spd_069.txt.gz
Wind_Speed
89 95 97 98 98 93 89 83 78 60 49 47 56 63 67 70 79 73 64 54 47 32 25 22 20 19 16 13 8 4 4 9 12 17 18 19 21 23 28 34 40 45 51 57 60 68 76 88 97 101 102 103 105 111
91 98 94 94 93 90 89 82 74 55 48 46 56 63 67 71 76 68 63 53 46 35 26 25 23 20 17 14 10 5 6 10 14 18 19 22 23 24 22 22 30 37 39 42 45 51 59 69 74 81 89 95 96 98
94 96 93 96 95 88 80 80 63 51 45 47 54 63 67 69 73 64 58 48 37 27 23 28 18 19 23 22 18 15 18 27 13 12 13 15 19 24 26 24 22 26 34 36 37 42 47 54 59 62 70 78 83 86
89 94 93 93 92 85 76 77 58 48 45 46 57 61 64 68 70 60 56 48 42 26 17 18 28 23 15 20 19 14 15 23 31 13 18 18 18 18 21 27 28 27 26 26 26 30 33 42 48 53 55 59 66 73
86 84 89 87 88 78 70 65 50 42 41 49 57 57 60 67 66 55 53 46 35 22 24 18 24 35 36 31 29 30 34 41 30 28 27 19 20 21 21 20 21 23 26 24 23 25 28 31 38 43 48 51 55 60
84 82 86 85 79 70 65 56 42 39 40 52 54 54 61 65 64 54 48 44 35 32 31 33 35 47 48 48 48 46 46 42 41 33 24 18 22 21 20 21 20 25 26 29 29 24 24 26 27 33 40 44 49 54
77 81 82 78 72 62 56 48 38 37 40 50 52 53 60 62 59 53 46 45 41 40 39 39 40 50 52 54 53 49 45 41 40 38 34 26 19 23 22 23 22 22 25 29 32 27 27 25 26 31 35 37 45 50
82 77 78 72 57 50 45 40 31 36 42 44 48 55 61 60 51 48 44 43 41 41 48 46 46 51 54 57 56 52 46 37 34 36 36 35 25 25 29 26 27 27 28 33 38 32 28 30 30 30 32 35 41 44
69 67 61 47 39 38 37 33 31 31 39 47 51 56 57 56 46 39 39 45 49 48 51 45 41 46 53 53 54 48 41 35 34 34 34 34 39 34 32 29 30 30 32 35 39 37 32 32 33 33 34 37 39 42
51 45 45 35 32 32 33 26 26 30 45 47 49 53 57 50 43 31 36 46 54 58 57 56 49 47 51 53 55 50 41 41 36 33 37 35 29 29 33 27 21 26 27 38 40 36 35 34 36 36 38 39 39 41
31 36 33 28 29 31 26 29 32 36 43 44 51 55 54 44 39 32 31 45 50 56 61 60 60 55 55 47 41 43 39 35 31 26 28 33 32 31 31 29 25 29 33 34 37 41 42 41 41 39 38 38 38 37
29 30 27 25 29 28 26 23 30 34 37 46 51 55 45 44 41 36 34 41 47 58 63 62 62 57 51 41 35 32 31 32 27 26 23 24 24 27 28 28 29 29 28 30 37 42 45 45 41 37 34 33 32 36
26 20 20 24 25 22 22 25 33 35 42 50 52 55 42 40 37 35 36 40 49 58 61 62 62 58 49 40 34 31 30 29 23 21 23 23 24 24 25 25 25 24 24 25 33 39 41 40 36 34 35 33 32 33
19 18 19 20 18 18 18 26 33 39 45 49 53 46 42 38 34 28 32 42 49 59 57 59 59 55 48 41 35 30 26 22 21 21 21 22 23 23 26 28 29 28 27 24 26 31 33 35 36 34 32 31 34 33
18 19 19 19 16 16 18 28 36 42 43 48 47 39 28 31 28 34 41 44 53 54 54 52 53 52 48 41 36 31 28 26 26 25 23 22 21 22 22 23 25 27 26 26 25 26 28 30 32 35 33 29 34 32
17 17 16 15 20 19 19 31 36 37 43 44 37 30 23 37 38 38 38 48 49 48 46 46 47 50 47 42 38 33 29 26 26 24 23 22 22 23 25 27 27 27 26 25 25 25 24 25 29 32 32 28 29 31
13 12 9 9 12 18 27 29 32 39 43 34 30 23 29 35 37 38 44 46 43 43 44 46 46 48 48 45 39 35 33 30 26 25 25 24 23 21 20 20 22 26 29 32 27 19 15 21 27 33 32 24 26 28
15 11 14 19 16 20 24 27 36 40 31 28 16 26 31 29 33 38 43 43 46 49 45 46 47 50 49 45 44 40 37 35 33 30 28 26 25 24 22 21 22 21 21 22 22 23 20 21 25 28 31 26 24 26
16 11 12 12 15 21 27 30 37 36 27 19 22 25 28 34 39 40 41 43 47 51 51 50 48 45 48 49 46 43 42 38 35 33 31 29 27 26 25 22 20 22 23 22 18 16 13 15 24 26 27 29 25 23
14 12 10 14 18 25 25 31 35 32 19 15 18 25 31 38 45 48 48 45 47 50 52 55 53 51 49 51 48 44 40 37 36 35 33 30 27 24 23 23 22 20 20 20 17 12 14 16 20 23 22 24 22 22
8 9 9 15 21 21 28 31 32 23 11 14 20 24 31 38 44 49 55 56 51 55 56 59 58 57 50 49 50 45 41 39 38 36 35 34 33 32 30 28 24 22 20 19 21 16 12 14 16 20 18 20 21 18
11 11 10 14 22 25 31 31 27 17 9 9 17 26 32 38 43 49 55 58 57 57 60 59 59 59 56 52 52 52 47 44 43 41 39 37 36 32 30 28 25 21 21 19 15 15 14 12 13 14 13 12 15 15
13 10 11 17 23 28 30 29 20 4 2 8 16 24 32 37 42 48 53 57 58 55 60 62 61 57 55 53 52 54 51 47 45 43 39 37 35 33 31 30 28 24 20 16 15 13 12 11 11 11 11 12 12 13
16 13 12 22 27 27 31 21 12 7 6 15 18 22 29 35 40 44 47 53 59 57 57 63 61 56 51 49 49 51 52 49 46 44 42 40 37 36 35 33 31 28 24 20 16 15 12 9 7 7 9 10 9 9
13 11 16 23 25 28 25 16 12 14 14 17 16 21 27 32 38 43 48 51 56 60 56 61 63 57 47 44 46 48 51 50 48 46 43 39 39 38 37 35 33 31 28 24 19 14 11 11 7 3 2 5 8 7
14 13 20 22 26 30 20 13 10 14 11 13 10 17 22 31 39 41 46 51 53 58 56 61 62 55 44 41 45 45 49 51 49 46 43 42 41 39 38 37 34 31 29 25 22 20 17 13 10 8 6 2 3 4
15 14 23 23 28 29 18 5 3 5 10 15 19 15 20 28 37 41 45 52 52 56 56 59 64 59 48 44 46 46 48 52 52 50 47 45 44 41 38 36 34 31 29 27 24 20 16 12 11 10 9 7 4 0
16 21 22 24 29 19 14 13 12 14 14 12 21 24 23 31 39 39 41 50 53 55 58 56 59 65 60 53 49 48 49 50 53 52 50 48 44 42 41 38 36 35 32 30 27 24 21 19 15 12 10 8 6 4
21 22 24 25 19 15 12 10 11 10 13 16 18 23 29 30 37 40 41 45 51 55 57 57 58 59 63 62 54 49 47 46 47 49 49 47 45 43 40 38 38 37 35 34 32 28 26 24 21 18 14 12 10 8
22 24 22 15 15 14 8 11 11 15 20 22 24 28 29 31 35 37 38 40 45 54 61 62 58 56 56 56 58 53 49 47 45 46 47 47 45 44 42 40 39 37 36 34 33 30 28 25 22 20 19 17 14 12
19 15 10 12 15 9 9 11 14 16 19 20 20 22 24 27 34 38 32 37 43 51 57 60 61 55 52 53 52 54 56 51 44 43 43 46 46 44 42 42 40 36 35 34 33 31 30 28 27 24 21 19 18 16
11 10 10 10 9 7 8 9 8 11 13 13 16 22 26 29 33 32 28 36 41 44 46 50 55 54 50 50 51 51 51 54 53 48 43 41 44 46 45 43 41 38 36 35 35 33 32 30 27 25 23 22 21 19
6 5 6 5 6 7 10 12 13 16 18 20 24 25 29 35 36 31 34 40 44 50 51 50 50 49 49 46 47 48 49 49 50 52 48 42 42 43 43 40 39 39 36 34 34 33 32 31 30 29 28 25 23 22

GFSWCAN_250_spd_072.txt.gz
Wind_Speed
79 80 83 73 79 84 86 89 83 79 65 55 51 51 57 62 65 72 61 53 47 36 33 32 29 19 12 9 7 7 2 6 13 21 28 32 36 42 48 52 60 67 73 80 84 87 91 95 98 101 101 105 114 118
86 84 82 82 79 83 86 87 82 76 64 52 49 46 58 59 60 68 58 46 40 31 20 26 23 20 15 10 10 11 10 3 9 16 21 26 29 32 33 36 41 47 54 61 72 81 86 93 97 99 100 99 101 103
87 87 85 85 77 82 84 81 78 68 54 45 45 47 54 57 62 64 53 43 36 25 26 16 15 19 14 9 2 2 2 4 2 8 17 27 32 35 36 36 37 38 40 48 56 61 67 74 81 87 90 95 97 98
89 82 88 89 81 81 78 76 65 49 43 41 46 45 53 56 63 61 50 42 32 29 23 26 27 17 16 13 9 7 10 11 10 15 16 20 27 30 33 36 39 41 41 43 46 50 55 62 65 69 71 76 82 87
82 82 80 77 81 74 76 62 45 38 39 36 40 47 47 57 58 57 47 39 34 28 31 31 30 28 27 25 26 27 25 23 21 19 22 23 22 26 31 34 36 38 41 44 45 45 45 48 49 50 57 62 65 69
79 86 90 79 76 75 60 46 34 35 35 35 36 42 54 53 56 53 44 38 34 35 38 40 40 37 37 37 37 38 36 33 30 25 27 26 28 26 28 36 37 39 39 42 45 46 47 48 50 48 45 48 53 58
88 91 90 68 62 56 45 30 30 33 30 32 34 44 52 55 55 52 41 34 34 39 42 47 47 45 43 41 40 40 39 36 33 32 32 29 27 25 30 35 34 40 42 41 42 42 41 43 40 41 42 43 46 48
100 88 75 52 45 38 27 26 29 29 30 32 35 47 50 55 56 51 43 37 37 42 45 47 53 51 49 49 47 47 43 38 29 28 30 28 30 26 25 34 33 37 39 40 42 41 41 46 45 44 43 43 45 47
87 77 57 36 31 23 23 24 27 26 32 31 38 43 50 55 56 49 44 38 38 42 43 50 57 54 54 48 44 43 45 35 34 26 27 28 28 24 27 27 28 31 32 35 45 45 46 46 47 44 42 45 45 46
58 49 40 34 23 21 21 25 24 28 27 34 38 45 49 54 53 46 38 36 36 40 45 53 60 56 50 45 41 35 32 35 35 31 27 25 27 25 18 21 26 29 29 32 39 39 45 41 43 47 47 46 45 46
42 34 29 25 20 20 23 25 23 25 30 36 42 48 51 51 43 37 36 34 38 45 51 60 58 52 51 47 38 31 26 26 27 27 27 26 27 27 25 23 23 26 26 30 32 33 38 45 46 45 46 46 42 42
29 23 20 19 17 20 19 16 20 23 30 36 43 46 49 42 32 30 32 33 41 50 53 56 52 50 52 48 39 32 27 26 26 25 25 23 24 25 25 25 25 25 26 29 32 33 35 37 39 43 46 44 39 35
18 14 17 17 18 18 13 19 18 24 30 39 43 47 41 32 29 29 33 40 45 46 47 48 45 47 49 48 40 34 29 26 24 22 20 20 21 21 22 25 26 26 26 28 29 32 35 35 37 41 39 36 36 32
12 14 16 18 19 19 14 21 24 27 34 42 44 40 32 30 30 30 32 38 39 44 44 43 43 43 45 44 40 36 32 28 25 23 22 20 19 20 20 22 24 25 27 28 29 30 31 32 34 38 38 35 33 30
12 14 16 17 16 15 17 19 23 29 36 39 41 28 28 28 27 29 31 33 37 43 46 45 44 41 42 43 40 37 33 29 27 26 24 23 23 22 22 23 24 24 25 26 27 29 31 33 34 34 36 35 32 27
14 14 12 13 9 10 13 17 26 30 35 41 33 24 22 25 27 31 31 35 41 44 47 47 45 42 41 44 43 40 36 33 29 27 25 24 24 24 24 26 29 30 30 29 28 30 29 30 30 29 30 32 30 27
12 10 8 7 11 18 18 20 27 29 36 36 23 15 18 25 32 37 38 36 42 49 48 48 45 44 41 45 47 44 40 36 33 30 27 25 24 22 21 22 24 26 27 29 31 31 29 32 32 33 28 28 26 24
11 9 8 11 13 13 17 21 27 30 33 23 13 14 23 29 33 39 45 45 43 48 53 55 52 48 46 44 47 46 42 40 39 36 33 31 29 27 25 23 22 23 27 28 27 26 25 29 31 31 29 22 22 22
11 12 14 16 12 15 17 21 27 31 26 16 10 14 22 29 34 38 42 46 47 50 56 60 59 51 46 43 46 48 46 43 41 38 35 33 31 30 28 26 23 22 23 25 24 24 21 24 26 28 28 24 17 17
10 11 12 12 14 14 18 23 27 29 18 12 10 18 23 26 33 38 42 45 48 50 53 59 60 53 46 45 47 50 46 42 38 36 35 34 31 29 27 25 23 23 24 23 22 21 21 22 23 21 21 20 16 14
11 11 11 13 13 14 21 25 26 25 11 9 13 19 21 30 36 41 43 47 51 52 55 62 62 53 43 43 46 49 49 46 44 41 39 37 35 33 32 29 28 27 25 22 20 17 17 19 20 17 15 13 12 12
12 11 10 13 13 16 23 27 29 18 9 8 12 19 17 26 32 39 44 48 53 54 56 63 62 48 39 42 46 48 49 47 45 43 42 40 39 36 34 32 30 29 28 26 24 19 18 18 16 14 13 11 11 11
14 12 14 13 11 20 26 27 24 13 9 10 10 14 20 28 32 37 44 48 52 55 56 59 64 50 43 45 46 46 48 48 46 45 43 43 40 38 37 36 35 33 29 26 22 21 19 16 14 12 10 9 9 10
16 14 15 16 12 20 25 26 19 12 6 10 16 16 19 29 33 36 41 47 51 57 58 58 59 62 57 52 47 46 46 48 48 46 46 43 41 40 39 38 36 35 33 29 25 23 21 19 17 15 12 9 6 7
16 14 14 12 14 21 23 19 19 12 12 16 19 15 18 25 30 34 38 41 47 54 60 62 62 60 62 63 57 50 46 47 48 48 47 46 43 41 41 40 38 35 33 30 27 23 20 19 16 14 12 11 9 6
17 12 13 14 15 21 19 21 18 12 9 11 16 20 12 22 32 34 37 37 41 48 54 56 59 60 58 57 60 59 51 47 47 48 49 47 46 44 42 40 39 37 33 30 28 27 24 21 18 16 14 12 10 8
16 14 16 16 18 22 23 22 14 10 8 14 17 13 15 26 30 32 35 39 42 47 49 49 53 58 55 57 57 58 60 55 50 47 49 48 47 46 44 42 40 37 36 33 32 30 27 24 21 19 17 14 11 8
17 16 17 19 24 25 22 15 12 10 11 12 14 20 26 28 28 30 35 39 35 41 44 47 50 53 56 54 54 56 56 58 58 51 50 49 48 47 45 41 39 37 35 34 33 31 28 27 25 21 18 17 15 12
18 18 19 22 24 23 16 13 12 12 13 15 20 20 21 21 24 29 35 30 29 37 42 43 45 49 52 54 54 52 54 55 56 57 52 50 49 47 45 43 38 37 35 34 33 32 31 29 28 26 24 21 18 16
17 17 22 25 22 16 14 13 12 9 13 17 17 16 17 21 26 29 32 25 30 35 41 45 47 48 51 53 55 53 51 52 52 52 53 53 48 45 43 43 42 40 39 37 36 36 34 31 27 25 23 22 21 19
18 21 22 20 15 15 14 12 9 11 14 13 14 16 21 27 31 31 29 30 32 39 42 45 52 51 50 50 51 54 50 48 48 49 51 51 51 45 41 40 39 39 37 37 37 36 35 32 29 27 25 23 22 19
20 18 14 16 17 14 10 8 9 12 14 18 23 25 29 31 34 32 32 36 39 42 39 47 53 57 52 48 48 48 50 46 45 46 47 48 49 48 44 39 38 37 37 37 36 36 36 35 33 29 25 23 22 21
10 12 12 11 9 7 7 9 11 15 18 21 25 28 30 33 34 36 37 38 40 44 44 49 54 57 51 48 46 45 46 48 45 43 44 46 47 46 44 43 38 36 35 34 34 35 35 36 35 33 31 28 25 23

GFSWCAN_250_spd_075.txt.gz
Wind_Speed
80 84 82 79 84 81 79 90 89 83 77 60 43 43 39 44 48 56 60 62 46 35 25 20 24 26 19 11 3 4 12 19 24 29 36 43 50 56 60 66 71 73 74 77 78 81 84 88 94 101 107 110 112 114
84 77 93 85 87 79 87 91 83 75 68 43 35 37 36 43 45 55 58 59 44 33 25 17 17 11 11 4 3 5 5 11 17 22 27 33 40 46 52 59 65 69 73 77 79 80 81 84 87 90 94 101 108 113
90 85 93 91 83 80 100 87 71 56 40 32 32 33 35 39 48 53 54 55 44 35 29 25 23 17 12 11 10 12 12 10 13 15 22 29 33 38 43 49 54 60 66 71 74 78 81 85 87 89 91 92 95 99
90 89 92 87 85 86 87 74 58 38 29 27 30 32 31 37 46 50 54 52 41 34 32 33 30 28 22 14 15 14 18 25 16 21 24 27 30 35 40 45 48 52 57 62 65 68 74 78 81 85 87 90 94 97
91 96 95 85 85 83 74 56 35 28 24 26 28 32 35 38 43 47 53 49 41 37 35 35 34 32 32 28 23 20 18 18 25 26 28 31 33 37 39 40 44 50 53 57 57 58 61 65 70 75 79 83 87 90
94 99 84 81 82 68 55 35 25 21 21 25 30 31 34 39 41 49 53 47 40 36 35 37 36 36 40 35 30 29 27 25 29 29 29 32 33 37 37 42 45 46 50 54 58 62 63 63 65 68 70 74 79 81
94 78 76 73 69 55 40 24 20 19 20 23 27 31 37 39 44 51 51 45 36 33 36 37 40 40 41 40 35 31 30 32 31 28 32 32 33 33 35 44 43 46 52 52 54 56 57 60 64 67 69 69 69 70
82 74 67 58 51 40 28 19 18 18 19 23 28 32 38 43 46 50 47 38 34 34 36 42 44 42 44 43 37 33 31 30 30 23 24 27 28 30 34 38 39 39 48 56 53 56 57 59 61 62 62 63 65 66
85 60 54 43 36 28 21 19 19 17 18 24 27 34 38 44 48 50 41 35 34 36 42 44 43 46 47 45 38 35 30 28 26 24 22 21 25 28 31 34 36 37 43 50 54 54 58 59 59 59 60 59 59 62
54 45 38 33 24 20 20 18 16 16 19 23 28 36 40 44 49 46 37 32 33 40 40 43 44 43 44 42 40 36 30 27 25 23 23 24 25 27 29 31 34 36 37 41 44 52 54 56 56 60 62 62 63 62
43 34 28 21 20 17 15 15 13 17 19 22 29 36 43 46 49 39 36 34 34 35 40 44 44 44 43 40 39 33 29 25 24 23 23 25 26 27 28 29 28 30 34 36 40 45 52 51 54 55 55 58 56 55
30 23 20 18 16 14 15 12 12 17 19 24 32 39 43 47 37 34 31 32 32 34 38 41 43 43 40 38 38 35 29 26 25 24 24 24 24 25 27 28 27 28 30 33 35 38 39 43 44 46 49 51 50 50
21 18 18 15 14 14 15 11 15 19 22 27 34 38 44 35 30 31 29 27 31 36 39 42 40 40 38 37 38 37 33 30 27 25 23 23 24 25 25 27 29 30 31 32 33 36 38 39 38 41 44 46 46 45
14 14 17 14 12 12 12 12 14 17 23 31 33 38 33 29 30 28 27 25 31 38 42 44 41 40 38 36 36 38 35 32 31 28 26 23 21 22 23 25 27 28 30 32 34 36 37 38 38 38 40 41 41 40
14 11 11 10 7 9 8 8 12 19 26 30 33 32 26 25 25 24 24 26 31 37 43 46 47 42 38 36 39 39 34 31 29 29 28 28 27 26 24 24 26 28 28 29 30 31 33 34 33 32 34 36 36 35
17 10 8 5 4 5 9 13 16 22 27 28 31 24 21 22 23 24 29 31 33 38 46 49 48 42 37 37 39 40 36 33 31 30 28 26 25 26 27 27 27 27 27 28 28 28 29 29 27 28 29 30 31 33
11 9 6 5 3 8 9 12 17 21 24 27 25 19 17 22 24 29 33 36 37 41 49 51 46 37 34 37 40 42 40 37 32 31 30 29 27 24 23 24 24 26 28 29 29 28 28 28 28 26 26 27 25 25
11 8 7 6 6 8 12 16 17 19 23 26 19 15 22 20 24 30 36 40 43 45 52 54 45 35 35 39 40 44 43 42 40 38 36 33 30 28 26 25 24 25 26 26 25 25 26 26 26 24 24 23 23 22
9 7 8 9 9 10 12 16 17 23 23 20 14 13 19 19 25 31 37 43 46 48 54 58 46 38 39 40 40 43 44 42 41 39 37 34 33 31 30 28 27 26 24 24 23 22 22 22 19 20 20 18 16 14
9 8 8 9 10 11 12 16 19 25 22 15 11 15 20 22 27 31 38 44 48 52 55 54 56 53 49 44 42 44 47 46 43 41 39 37 35 33 32 29 27 25 24 23 20 17 16 16 16 16 15 12 11 14
12 11 12 10 8 10 11 18 22 26 19 12 12 15 18 19 26 29 33 38 46 54 52 53 52 55 58 56 49 46 47 48 47 44 42 40 38 38 36 31 28 27 25 23 22 18 14 13 13 13 12 12 12 13
12 13 11 6 7 9 12 17 22 24 15 11 7 12 14 22 25 27 32 37 44 49 50 51 53 55 54 56 59 56 51 49 49 47 45 44 41 40 38 35 32 31 29 27 22 21 20 18 16 13 12 11 10 10
11 12 12 10 11 11 14 18 23 20 16 9 8 12 15 20 26 28 33 37 42 43 44 45 52 52 53 54 54 58 59 53 51 50 47 46 45 42 41 39 38 36 35 33 30 23 20 17 15 12 11 10 8 6
12 14 14 12 12 14 15 21 24 20 16 9 10 16 19 19 22 30 34 37 39 38 40 41 45 52 54 53 54 54 56 58 52 52 50 50 49 45 43 40 39 38 36 34 31 28 24 22 20 18 15 11 8 6
12 16 14 12 12 13 14 19 23 23 17 13 15 16 19 11 25 28 30 35 36 36 40 39 41 44 49 51 54 52 52 53 57 53 51 50 50 49 45 43 41 39 38 36 33 29 25 22 20 18 16 13 10 7
14 15 14 12 13 13 15 21 25 20 14 12 12 12 10 21 26 27 27 33 33 33 37 41 42 42 42 46 51 53 49 50 52 56 55 51 49 49 47 46 46 44 42 39 35 32 30 27 23 19 17 14 11 8
16 18 16 14 15 15 17 23 25 17 14 11 10 10 17 20 21 24 27 32 26 29 35 41 45 45 43 43 46 49 51 49 49 52 54 54 51 50 48 47 47 46 44 41 38 35 33 32 30 28 25 21 17 13
12 16 17 17 16 16 20 25 22 17 16 14 14 16 20 22 19 24 30 28 27 32 39 43 45 45 45 44 44 46 47 50 49 50 51 53 53 52 49 47 45 45 44 42 40 38 36 33 31 28 27 25 21 17
13 14 15 16 16 18 24 25 16 16 16 14 16 17 18 18 20 25 29 33 33 34 37 40 43 44 45 47 47 46 46 46 48 50 48 50 51 51 50 48 46 44 43 42 40 37 34 32 30 29 28 26 25 23
16 16 15 14 17 23 25 18 15 16 15 14 15 16 18 21 26 30 32 34 36 37 39 40 41 41 42 49 50 48 46 46 46 46 48 47 49 50 50 48 46 43 41 39 39 37 36 35 33 31 29 27 25 23
16 14 13 17 24 21 15 15 17 16 15 14 12 15 20 25 29 32 35 34 35 38 40 44 46 41 40 47 48 48 47 47 47 46 45 45 44 47 48 48 48 46 41 38 36 36 36 36 35 34 32 29 27 25
8 13 20 17 15 15 13 11 10 9 10 12 15 19 22 26 29 33 36 36 39 41 42 44 43 41 42 46 46 47 47 49 48 47 47 42 42 43 46 46 46 46 41 36 35 34 34 35 34 32 31 29 27 27
12 11 11 9 6 4 3 4 7 9 11 14 18 21 25 28 30 33 36 39 40 41 41 41 43 46 44 45 45 48 50 52 49 45 45 43 41 42 44 44 44 43 39 36 32 33 33 32 32 31 32 31 29 27

GFSWCAN_250_spd_078.txt.gz
Wind_Speed
75 79 79 85 92 98 108 102 92 79 79 60 33 25 26 31 34 39 44 46 50 45 38 35 34 27 23 21 14 5 10 18 26 34 41 46 51 58 63 64 65 67 68 70 74 78 87 95 101 105 105 109 112 112
79 83 88 94 94 99 106 95 82 74 65 38 24 21 25 30 34 39 43 47 48 38 36 34 28 24 21 17 17 18 12 8 15 24 31 39 46 52 57 62 67 69 70 71 72 75 78 83 91 100 104 108 110 112
89 96 99 97 99 99 90 76 70 63 49 24 19 20 26 29 33 41 41 45 47 38 33 31 27 25 23 22 17 17 21 23 20 20 24 32 39 46 52 57 62 65 69 73 75 75 77 79 82 85 91 99 104 109
96 98 100 105 97 96 80 70 56 45 30 20 16 20 25 28 34 38 43 46 45 37 33 30 30 27 27 27 22 18 19 25 31 33 31 30 32 38 45 50 55 59 63 67 71 74 78 80 81 83 86 90 94 99
100 94 99 98 89 79 74 54 42 32 23 21 17 19 24 28 36 38 43 46 43 34 32 32 32 32 35 32 28 22 20 22 25 32 38 40 39 38 38 41 45 52 56 60 65 67 70 73 76 81 86 89 91 93
98 101 103 80 75 70 50 35 28 25 22 19 18 20 25 29 37 39 45 45 40 33 29 33 35 38 37 34 29 27 25 25 28 31 33 44 43 46 48 46 41 43 47 51 57 61 64 67 70 73 76 81 86 91
106 109 92 69 61 46 35 26 23 23 20 19 17 21 25 32 37 42 46 45 37 34 34 37 39 38 37 34 32 29 27 28 31 33 35 35 37 46 50 54 49 49 48 50 53 58 60 63 67 69 71 74 76 81
99 85 71 60 45 33 25 21 21 23 18 19 16 20 30 34 40 46 46 38 34 34 36 39 38 39 40 38 35 31 28 28 27 28 28 27 31 35 38 44 47 43 45 50 52 51 54 59 62 64 71 73 75 75
87 74 58 44 34 24 19 18 22 18 17 14 18 22 30 36 44 47 44 36 35 36 37 37 39 40 41 39 38 34 32 30 24 22 21 22 25 29 32 35 39 38 40 43 48 52 54 55 59 63 65 67 70 73
56 52 41 33 22 17 16 18 16 15 16 16 19 26 35 39 45 46 37 38 37 31 32 34 37 39 39 38 36 34 35 30 26 22 20 20 22 25 28 32 36 42 45 44 43 47 53 56 57 58 61 62 62 66
45 37 26 20 17 15 16 16 14 15 14 17 23 31 35 41 45 36 37 35 28 28 34 38 41 41 38 36 34 33 33 30 25 24 22 20 20 21 23 27 30 34 37 38 40 44 48 52 55 59 58 56 59 60
37 23 17 15 14 14 14 13 14 10 16 20 27 32 38 41 34 34 37 32 27 32 35 39 43 41 37 34 31 32 33 28 25 22 22 23 22 22 22 24 26 28 30 32 34 39 44 45 47 52 53 53 54 59
28 17 13 13 13 14 14 12 9 8 17 24 28 35 37 35 30 35 34 32 31 31 36 43 44 41 34 31 31 33 33 29 27 25 24 22 21 21 23 25 26 28 29 30 31 34 38 41 44 46 48 49 50 51
23 13 12 12 13 12 10 8 4 11 17 24 29 32 33 27 30 29 28 30 32 34 41 44 43 35 29 28 31 36 36 32 29 27 26 24 20 18 20 22 24 26 28 29 31 32 34 35 38 40 42 43 46 48
15 13 11 11 10 9 6 4 9 12 19 25 26 30 23 25 28 24 29 31 30 37 45 45 38 29 28 30 32 36 36 34 30 29 28 26 24 22 20 19 20 22 25 25 27 29 32 34 36 37 37 39 40 44
14 13 12 10 9 5 4 6 10 14 21 22 26 22 19 23 22 26 29 30 37 42 47 49 39 31 31 30 32 36 37 35 34 32 30 27 26 26 25 24 23 23 23 23 24 25 28 29 30 31 32 36 37 37
15 14 13 11 7 4 4 9 15 19 19 22 23 16 17 22 21 27 27 35 41 43 43 45 46 40 36 34 34 37 39 38 36 35 33 31 29 27 26 25 24 23 23 24 26 26 25 25 25 28 28 29 30 31
13 15 12 10 8 4 6 10 15 16 21 25 18 13 13 18 22 29 27 37 42 44 44 43 45 47 47 43 38 37 39 42 41 39 37 35 33 30 29 28 26 24 24 25 25 25 24 23 22 22 24 23 25 25
10 11 9 7 8 8 10 13 15 16 22 25 13 11 14 21 22 24 30 36 39 43 43 44 44 46 47 48 48 43 42 43 42 40 39 36 34 34 32 32 30 28 26 24 24 22 20 20 20 18 18 18 19 22
11 10 9 9 9 10 11 12 13 17 23 22 13 11 16 18 21 26 30 35 38 39 40 41 42 43 45 47 49 51 48 46 46 45 44 41 37 38 37 35 33 29 25 22 19 17 16 15 16 16 15 15 18 20
14 14 13 11 11 11 10 12 14 19 24 18 14 12 14 18 22 27 30 33 38 37 40 40 41 42 44 46 47 48 50 53 51 49 47 46 42 41 41 40 37 31 28 26 23 19 16 14 13 12 12 13 14 15
15 14 14 11 11 9 9 11 13 21 24 18 11 9 13 20 20 23 31 31 34 35 39 40 42 42 42 45 48 47 50 51 53 54 51 49 46 43 44 43 40 34 32 30 28 24 21 20 17 14 11 11 12 12
15 16 13 14 11 9 12 14 16 22 23 21 15 13 15 20 21 17 27 27 31 31 35 40 46 46 43 40 43 47 49 51 52 53 54 52 48 45 44 44 42 39 36 34 32 30 27 22 18 16 16 14 11 10
12 14 13 15 16 13 13 14 14 19 23 22 19 16 17 17 15 22 28 25 31 29 27 38 45 48 47 42 40 43 46 49 51 51 52 53 51 49 45 44 44 42 39 36 35 34 32 27 23 18 15 13 11 10
11 11 15 14 14 13 14 13 14 18 24 22 18 15 16 15 19 21 26 26 31 28 29 38 41 44 46 43 41 43 46 48 50 50 50 51 52 51 49 46 43 42 42 40 38 35 33 31 29 25 22 19 17 14
13 11 12 15 13 12 13 14 16 19 25 23 16 11 11 12 16 21 25 25 29 33 37 37 38 43 44 45 42 42 45 47 48 48 48 47 49 50 50 50 47 43 41 41 40 37 34 31 28 26 23 20 17 15
13 12 14 15 15 13 15 17 17 21 27 22 17 15 15 18 21 24 22 26 31 35 39 39 36 39 45 43 41 41 42 44 47 49 49 47 46 48 49 49 50 47 42 40 40 40 38 34 30 27 25 22 20 18
10 11 14 16 17 16 16 16 19 24 27 21 19 16 16 18 20 22 23 28 31 35 37 36 37 40 45 43 40 38 40 43 45 48 48 48 45 46 47 48 49 48 45 42 40 39 39 39 37 33 28 25 22 19
10 10 11 13 15 15 15 16 22 27 22 21 21 17 15 16 18 23 27 30 31 36 37 39 42 42 44 42 41 37 38 40 44 50 48 45 45 45 45 47 49 48 46 43 40 39 37 37 36 34 29 26 25 22
12 12 12 14 14 14 16 21 27 22 19 20 19 15 14 16 20 24 27 30 33 36 40 41 44 45 41 39 40 38 40 40 44 47 45 45 44 43 44 46 47 46 45 43 40 38 37 37 36 34 30 27 25 24
17 17 16 14 13 16 23 25 22 21 17 12 9 12 15 18 21 25 29 31 34 38 40 43 42 40 42 43 42 42 41 41 44 45 44 44 45 44 44 45 45 44 42 41 38 36 36 35 35 35 34 31 29 26
15 10 9 14 19 21 19 17 14 9 8 9 10 12 16 20 25 29 33 36 38 39 36 39 39 40 42 44 46 47 48 48 48 46 45 45 46 46 45 43 42 39 39 38 35 33 32 32 33 34 34 32 30 26
9 12 16 15 13 12 10 9 11 11 13 14 15 18 23 27 30 34 36 36 37 40 38 37 41 44 43 43 44 44 45 44 43 45 48 49 47 44 42 40 39 37 34 33 30 28 28 29 30 31 33 32 31 28

GFSWCAN_250_spd_081.txt.gz
Wind_Speed
89 92 93 87 86 86 92 102 88 86 73 49 34 26 17 20 26 31 37 41 45 49 47 36 32 26 20 21 20 15 9 8 17 28 35 39 46 53 58 60 61 62 63 69 73 77 83 82 96 101 102 106 109 112
91 94 84 85 91 94 105 95 81 75 65 34 29 22 19 19 25 31 38 41 45 47 45 36 34 29 22 20 20 18 17 14 11 18 26 34 42 48 56 60 63 65 67 68 71 74 74 80 90 94 100 102 106 111
81 81 82 86 92 104 95 78 74 65 38 26 23 21 22 17 25 31 38 41 43 44 42 36 31 30 25 27 26 21 18 18 20 21 21 28 36 42 49 55 62 66 68 71 72 72 76 78 83 89 95 99 103 108
85 94 92 98 107 102 79 71 61 41 27 23 22 23 21 18 23 32 38 42 44 44 36 32 32 30 31 29 29 25 23 22 24 27 29 29 29 33 41 49 56 61 66 72 75 74 76 77 80 84 87 92 98 102
84 95 100 109 107 82 69 60 41 25 23 21 22 21 19 19 25 31 38 44 46 41 33 33 35 34 33 31 32 27 24 24 26 29 32 35 38 41 41 43 49 55 60 65 70 73 78 81 82 84 85 87 90 95
98 105 107 110 90 71 57 43 28 20 19 21 20 20 20 19 28 32 41 46 44 35 38 35 34 34 35 36 35 32 28 27 26 29 33 38 41 41 44 47 48 49 51 56 60 66 70 75 80 84 87 87 88 90
105 110 109 100 84 60 44 31 21 16 18 19 19 20 19 23 29 37 44 46 36 36 35 32 34 36 37 37 36 32 30 26 25 27 30 33 36 39 42 45 47 47 48 49 50 55 60 65 69 73 79 84 89 92
107 111 104 88 63 44 32 20 15 15 16 17 18 20 20 25 37 39 42 38 35 37 35 32 35 37 40 39 37 34 30 26 24 26 26 26 29 32 35 40 43 46 51 52 50 51 53 53 58 64 69 73 78 83
108 100 76 61 43 32 21 14 14 16 16 16 18 19 23 31 37 41 38 33 35 35 33 35 38 39 42 40 38 35 30 28 26 25 23 22 23 26 29 34 38 43 47 51 54 58 58 57 58 60 62 65 70 74
98 80 58 42 32 21 14 11 14 16 14 13 17 19 27 33 40 38 29 33 35 35 35 35 40 44 45 40 34 30 31 30 30 24 21 21 21 22 25 30 35 39 43 45 46 48 51 54 56 59 59 62 67 72
83 57 39 33 23 16 11 12 14 14 12 13 17 23 29 37 37 25 29 33 35 34 35 39 43 43 38 32 27 28 31 33 31 27 24 21 21 21 23 26 30 34 39 42 43 45 49 54 55 56 57 58 59 60
55 42 32 24 20 13 11 13 14 12 10 15 18 25 32 34 26 27 32 34 37 34 38 43 41 35 29 25 26 27 31 28 26 24 22 21 21 21 22 24 26 28 32 36 41 44 46 48 50 52 54 56 55 55
44 32 25 18 16 10 10 12 12 10 10 14 23 28 31 29 23 29 33 36 36 37 40 45 40 35 29 27 28 31 33 30 27 24 23 21 20 20 20 21 23 25 26 28 32 37 42 45 48 51 53 54 54 54
33 26 17 15 12 10 11 10 9 9 11 18 24 28 29 20 24 27 30 34 37 41 41 43 44 41 36 33 30 32 33 31 29 27 24 23 22 21 20 21 21 23 24 24 26 30 34 38 42 45 47 49 50 51
30 18 12 12 12 12 11 5 4 7 13 21 25 26 22 16 23 27 30 32 40 43 42 43 42 42 43 40 35 33 35 33 31 31 29 25 23 22 21 22 21 20 21 23 25 25 27 30 34 37 41 43 45 47
21 14 13 14 13 12 8 4 5 10 17 20 22 24 14 16 23 24 29 35 40 40 42 44 43 42 41 42 40 37 37 35 33 33 30 27 26 24 23 23 23 23 21 19 20 23 25 28 30 32 35 37 39 41
14 14 16 15 12 11 7 7 6 11 18 19 25 17 11 14 20 24 28 33 38 38 42 41 42 43 41 40 42 45 43 40 37 36 34 32 31 29 26 25 23 21 20 22 24 26 27 25 24 26 28 31 33 35
10 15 16 14 12 12 9 8 9 13 16 19 25 15 12 15 19 21 28 31 36 36 39 41 42 43 43 40 39 40 43 46 44 41 38 36 34 32 29 27 26 25 24 24 25 27 27 25 22 23 23 24 25 27
9 12 14 13 14 14 12 9 12 15 16 21 23 17 10 15 15 20 27 32 34 34 37 41 44 46 46 43 40 41 43 46 47 44 40 38 38 36 34 32 30 29 28 27 26 24 24 25 23 21 20 20 21 23
12 12 14 14 11 11 9 12 14 14 14 22 23 17 11 14 18 24 26 30 31 31 33 37 43 45 48 47 42 41 43 44 44 47 47 44 42 39 38 36 33 32 31 28 25 23 20 19 19 17 17 17 18 20
15 15 15 13 11 12 15 13 13 10 13 24 23 20 14 16 16 22 24 23 29 30 32 31 42 43 45 47 45 43 42 43 44 44 45 46 44 44 42 40 38 36 34 31 26 24 20 16 14 14 14 14 15 16
19 17 16 15 11 12 13 13 15 14 14 21 22 20 16 17 17 15 16 26 30 32 32 29 38 40 45 44 47 45 45 44 43 44 44 44 47 47 45 42 41 40 39 35 31 27 25 22 20 19 15 11 10 12
19 17 16 15 14 15 12 13 16 16 15 19 23 24 15 14 13 17 19 23 28 31 32 35 38 38 40 44 45 46 43 44 43 44 46 45 45 46 47 46 43 41 39 38 35 32 29 26 23 20 19 18 17 14
21 18 17 16 16 17 12 13 15 15 14 17 24 23 17 15 16 16 18 21 27 28 31 34 36 38 39 45 49 46 45 42 43 43 43 45 46 46 46 48 47 43 41 39 37 35 31 28 25 22 19 17 15 13
20 16 14 14 16 21 21 20 17 17 17 17 24 23 19 16 14 16 17 23 28 28 32 34 34 36 41 45 48 51 47 44 42 44 45 44 44 45 46 47 48 48 44 40 38 36 34 30 28 28 27 24 22 19
19 15 12 13 16 17 15 16 16 15 17 17 22 23 20 14 16 20 22 25 25 27 31 33 36 38 39 43 49 49 45 44 43 42 43 42 44 46 47 48 49 49 46 43 39 37 36 34 30 27 24 24 23 22
19 18 15 13 16 15 16 16 18 18 16 19 22 24 19 21 19 18 21 22 23 27 30 34 35 39 41 44 45 44 42 42 42 42 42 39 42 46 47 49 51 50 47 44 41 37 37 36 34 29 26 24 24 23
18 16 15 15 18 20 20 20 21 19 18 21 26 24 20 20 18 18 19 22 25 28 31 35 38 40 43 44 43 43 43 40 39 41 39 39 41 46 50 50 50 49 46 43 41 37 36 36 35 33 31 29 26 24
15 14 12 12 14 17 18 19 19 18 21 27 29 23 22 18 17 18 21 25 27 32 36 38 41 43 42 41 42 44 44 43 42 40 43 42 43 47 51 53 51 47 43 43 40 36 33 34 34 34 32 30 27 24
14 11 12 12 13 14 16 18 17 21 26 28 25 25 23 18 17 19 22 26 30 35 37 40 41 42 40 38 42 48 50 49 48 46 47 45 45 48 52 52 51 48 45 42 39 34 30 30 31 34 35 33 30 26
18 18 17 16 16 17 17 18 21 26 27 24 20 19 19 17 16 21 27 29 33 35 39 42 42 39 41 44 45 46 50 50 50 49 48 48 48 50 52 52 48 45 43 39 36 31 28 27 28 29 31 31 29 27
16 18 19 20 18 17 18 22 24 21 16 15 16 18 20 16 15 24 31 33 35 36 38 31 31 29 35 51 53 51 52 53 54 51 49 50 51 52 52 49 46 43 38 34 30 25 23 22 25 27 29 30 30 28
12 11 10 11 16 18 19 18 16 15 15 14 13 18 22 24 28 33 36 37 39 41 43 41 36 38 42 49 52 55 56 56 55 52 49 49 50 52 49 46 44 39 34 30 27 22 20 19 20 23 26 28 29 28

GFSWCAN_250_spd_084.txt.gz
Wind_Speed
80 87 88 89 95 102 96 95 101 85 76 52 38 29 22 23 22 21 24 31 39 43 45 39 30 26 20 18 20 17 5 4 13 25 29 34 38 43 48 51 55 61 64 66 70 74 82 82 92 97 101 102 103 104
84 88 90 93 101 99 92 105 105 75 56 40 29 25 22 20 23 25 27 30 38 46 47 33 29 27 25 22 18 16 15 9 9 15 26 34 38 43 47 52 57 60 61 64 69 68 69 75 82 92 100 104 105 105
89 93 95 99 104 92 105 113 95 70 42 30 24 21 21 20 22 25 29 33 39 48 45 31 30 27 26 23 20 17 15 15 16 15 20 27 37 43 47 53 58 61 64 69 69 70 71 72 79 87 92 98 102 102
92 99 100 104 96 106 108 109 86 50 34 24 21 18 18 19 23 24 31 38 43 45 37 34 32 27 27 27 25 24 23 19 17 21 24 27 29 37 47 52 57 61 68 69 71 71 73 75 76 80 86 89 95 100
96 101 102 101 97 95 100 88 64 40 27 21 17 17 19 21 22 25 35 38 43 40 34 33 30 27 29 31 32 30 26 22 19 21 25 29 30 41 40 46 55 59 65 70 73 71 75 76 78 81 85 88 90 96
98 99 82 89 100 103 86 79 47 32 22 18 17 18 22 21 24 28 38 41 43 34 32 32 30 31 33 36 37 37 29 22 21 22 25 28 32 35 40 46 50 52 59 66 70 75 80 80 81 81 83 85 88 92
96 88 88 93 101 85 81 52 38 22 17 17 16 18 18 22 23 33 37 44 34 32 31 32 33 34 36 36 43 42 32 27 24 22 22 26 30 31 37 43 46 51 56 60 64 68 75 76 81 83 84 85 86 88
87 87 98 99 103 79 54 42 27 17 15 15 16 16 18 21 29 33 41 34 29 34 35 33 35 35 36 42 41 32 28 25 21 22 22 23 26 31 34 37 40 43 47 53 58 61 66 71 73 78 81 85 89 91
87 94 95 100 78 60 41 31 20 14 15 15 14 15 18 25 30 37 37 29 31 34 33 36 37 36 37 31 28 22 22 24 24 23 23 22 21 22 27 31 34 38 43 48 52 58 64 65 67 70 74 80 82 86
87 88 95 82 57 41 33 22 15 14 14 15 13 16 20 28 33 38 26 29 33 34 33 36 40 33 28 26 24 25 26 29 28 26 23 21 20 20 21 26 29 32 37 41 45 50 52 58 64 65 67 71 74 78
84 83 86 60 40 32 28 16 13 14 15 16 12 16 25 30 35 32 26 30 35 36 37 38 39 36 30 27 26 27 29 31 30 27 26 24 22 20 20 22 25 28 32 34 38 43 47 51 55 59 64 70 72 74
88 75 56 41 32 28 20 14 12 14 14 15 13 19 26 33 34 24 26 32 36 36 37 37 38 40 38 33 30 30 32 33 32 28 25 22 22 22 22 21 21 23 27 31 35 39 42 46 49 53 56 59 62 67
84 56 39 34 30 23 16 12 12 12 13 11 15 20 28 30 27 21 26 28 36 36 37 39 41 38 39 39 37 36 34 34 34 31 26 20 16 17 19 21 21 21 22 25 30 34 37 41 44 47 49 52 55 58
59 41 35 30 27 17 12 11 11 8 6 12 17 25 26 29 16 19 25 29 34 34 36 39 39 41 37 37 40 42 41 38 36 35 31 29 28 27 24 21 18 20 22 22 25 28 32 35 38 41 44 48 50 52
38 32 28 27 20 14 11 11 7 4 6 13 20 22 28 18 13 20 25 31 34 33 37 40 43 43 41 39 39 38 41 40 37 35 33 32 29 27 26 24 23 21 19 19 21 23 26 29 33 38 40 43 44 50
31 28 26 19 15 14 11 8 7 4 8 15 19 23 26 12 13 17 22 28 34 33 35 42 43 44 45 42 40 40 40 43 43 41 39 38 35 32 31 29 27 25 24 21 20 21 23 25 29 32 36 39 41 42
26 25 17 15 16 14 10 11 11 9 8 15 19 23 24 11 9 11 18 27 32 31 31 35 42 43 43 46 46 47 44 43 41 43 44 43 40 36 34 33 32 29 26 25 25 24 24 24 25 24 24 29 33 36
24 16 12 16 16 13 12 11 8 8 10 15 18 23 22 16 14 13 21 24 27 31 35 36 34 42 43 44 45 45 49 47 43 42 41 44 44 43 38 35 34 32 30 28 27 28 29 28 24 22 21 21 24 27
15 12 14 18 16 15 15 13 10 9 14 13 18 19 24 18 15 16 19 23 24 28 30 31 33 38 39 44 44 45 46 47 44 45 43 41 42 44 43 41 39 37 34 31 30 29 28 28 27 26 23 21 20 21
13 12 12 18 15 15 16 13 10 14 14 12 16 20 24 19 16 17 20 21 22 25 29 32 35 37 38 42 46 49 47 48 50 47 46 43 42 43 44 43 42 39 38 37 34 32 29 26 25 24 23 21 20 20
17 16 15 16 15 12 10 9 15 13 15 12 16 19 24 21 14 11 19 20 22 24 27 30 30 33 33 42 46 48 52 50 52 49 47 42 41 40 41 44 46 44 41 38 36 35 32 31 27 22 20 20 19 20
19 16 17 18 16 11 10 13 13 14 16 17 16 16 23 25 17 14 15 20 23 26 28 30 31 34 37 40 44 47 50 53 49 51 50 48 44 43 44 45 46 48 44 42 39 36 34 31 29 27 24 20 17 16
21 19 20 18 16 15 13 13 13 15 12 16 19 20 22 26 20 16 17 20 21 27 31 30 32 30 34 37 39 45 48 52 50 48 49 47 45 42 44 48 50 49 49 46 43 39 37 36 33 30 27 25 21 18
23 22 21 18 16 15 16 18 15 14 15 19 19 18 20 18 31 20 18 19 24 32 38 33 33 34 34 35 38 43 45 47 47 47 49 46 44 43 45 50 52 55 52 46 44 44 41 38 36 32 28 24 22 21
24 24 22 20 18 17 18 18 20 21 21 16 18 18 20 21 20 21 25 16 18 35 43 36 36 35 37 40 40 40 43 44 44 43 43 43 42 43 45 48 53 53 56 52 48 43 39 37 36 35 33 29 24 21
24 22 21 17 14 15 17 15 12 13 14 14 15 16 15 21 2 39 35 22 16 22 27 31 34 37 40 41 43 40 38 40 39 39 43 46 47 48 50 51 54 56 56 55 49 46 42 37 36 35 34 32 27 24
22 20 17 15 12 11 15 18 15 14 17 18 17 18 18 20 8 11 17 20 21 30 28 30 34 39 43 44 45 44 40 40 41 44 49 55 56 55 54 53 56 58 58 56 52 47 42 38 35 34 34 31 28 24
20 17 17 16 15 15 14 15 18 20 20 19 16 21 26 26 11 3 13 28 33 34 29 31 36 39 42 46 46 40 37 43 48 50 55 59 59 58 59 55 55 57 59 56 51 47 41 37 34 34 34 32 30 26
19 19 16 14 14 13 17 17 18 19 16 14 14 13 20 31 26 24 25 27 29 30 29 33 37 40 44 42 44 41 45 53 59 60 64 66 60 58 60 58 56 56 56 54 49 43 38 34 31 31 32 32 30 27
18 15 13 11 10 9 11 13 15 17 17 16 20 23 24 22 20 16 21 25 26 43 34 36 39 40 43 42 38 34 41 45 57 60 61 62 61 59 61 59 55 55 54 50 46 40 36 31 28 28 29 33 33 30
16 16 14 13 14 14 15 16 18 17 17 21 24 20 17 17 17 22 31 34 34 37 41 43 44 44 46 48 43 45 46 53 56 60 62 62 62 62 62 58 54 53 51 47 43 36 32 29 26 26 27 28 30 29
14 14 15 17 19 18 20 18 16 18 20 15 13 16 14 8 11 29 42 43 42 43 45 46 45 48 51 49 46 46 49 54 55 57 59 61 60 60 56 53 49 48 44 42 39 32 29 26 22 22 23 26 28 28
12 13 14 14 13 12 15 19 20 14 10 8 19 30 33 30 27 32 38 42 46 47 47 49 52 55 54 51 50 50 50 51 52 54 56 55 53 51 48 45 42 39 39 37 36 29 25 23 21 20 20 22 24 26

GFSWCAN_250_spd_087.txt.gz
Wind_Speed
74 78 83 88 92 96 100 103 108 94 93 80 53 34 25 21 20 21 24 25 31 39 43 45 32 28 23 19 15 9 4 8 16 23 27 31 32 36 38 48 49 52 60 69 77 83 85 85 91 93 100 102 101 100
79 80 84 89 95 99 102 105 97 93 94 70 42 30 22 20 20 21 24 27 36 37 45 42 31 28 22 16 13 12 11 8 14 20 26 32 38 39 41 47 51 51 55 62 66 71 73 74 80 90 95 100 105 105
78 84 86 91 98 101 102 108 98 93 80 54 35 27 19 20 22 24 24 28 39 41 46 39 33 27 22 17 14 12 12 11 13 18 24 29 36 40 44 46 52 54 58 60 64 63 63 70 77 82 87 96 105 104
80 84 88 92 97 101 100 99 88 84 70 42 28 21 18 20 23 22 25 32 37 43 39 35 31 27 25 22 19 20 19 18 16 18 22 27 29 40 47 49 52 53 62 63 66 67 67 69 70 74 79 86 91 99
81 86 90 94 94 100 87 93 91 78 49 33 22 18 17 21 21 22 29 33 39 38 32 33 28 27 26 27 26 25 26 26 18 18 21 26 32 39 43 47 51 54 60 65 67 69 71 73 75 79 81 81 83 87
84 89 93 96 98 96 84 88 85 49 35 22 17 16 16 17 19 25 31 36 37 33 33 31 29 32 33 32 32 32 32 24 19 18 20 26 30 36 42 47 49 55 61 63 65 69 72 77 79 80 82 82 81 85
88 92 93 95 99 85 84 82 62 41 28 18 16 15 15 16 21 28 32 36 34 33 28 28 31 33 31 30 32 28 26 22 17 16 20 23 25 29 36 42 44 53 57 60 65 67 71 76 78 80 82 85 84 85
92 95 95 81 84 85 81 79 53 34 23 16 15 14 14 18 23 31 34 33 31 28 26 26 29 33 29 24 19 19 19 18 18 19 21 22 24 26 29 32 35 42 49 55 59 62 68 72 73 79 81 83 86 86
91 91 78 75 79 79 77 74 39 26 19 17 14 14 15 19 28 33 34 30 29 30 25 26 29 31 24 20 19 20 19 20 20 19 17 17 20 20 23 29 33 36 40 44 51 60 65 64 68 73 78 81 84 89
92 79 82 78 79 78 78 47 32 22 17 15 15 12 15 22 28 33 30 25 29 30 27 28 27 30 32 27 23 22 21 22 23 22 18 16 15 13 14 20 25 29 31 35 41 48 57 63 67 70 72 77 82 86
91 81 79 79 72 75 45 33 24 17 15 15 15 11 15 23 29 32 27 24 29 30 30 28 30 30 31 33 33 31 30 29 29 28 25 22 18 15 13 14 17 21 25 29 33 38 44 50 55 63 69 73 77 80
80 74 78 67 70 51 34 26 18 13 13 13 10 12 19 24 29 27 20 25 27 27 31 32 32 33 35 36 36 37 37 35 32 30 27 23 21 18 17 18 16 16 19 22 26 30 34 38 43 47 52 60 66 72
88 79 73 70 55 35 27 22 12 12 11 7 8 15 20 25 25 15 19 24 28 27 32 34 37 39 39 40 41 40 38 40 40 37 32 29 27 25 24 21 19 19 19 19 22 25 27 30 35 38 43 48 54 60
65 61 60 50 35 27 24 14 11 9 6 4 9 15 19 24 17 14 16 20 27 26 29 34 39 38 39 40 43 45 44 41 41 38 39 36 32 28 25 24 22 20 19 20 19 21 23 25 28 33 38 41 45 50
53 53 46 32 27 25 17 12 10 8 6 5 10 13 19 22 16 15 16 23 24 28 27 31 35 38 43 43 43 42 45 46 43 41 38 38 37 35 33 30 27 24 21 20 20 20 20 22 24 26 30 35 40 43
49 38 27 24 25 18 11 12 10 11 6 5 9 13 20 19 14 11 17 21 24 30 29 28 31 32 37 42 44 47 48 50 49 49 45 41 39 38 38 36 33 31 29 27 24 22 22 22 23 25 28 31 34 36
30 26 23 22 18 12 13 11 14 14 10 6 12 12 17 18 16 12 13 20 24 26 28 32 34 32 35 43 48 49 52 51 49 49 49 43 39 38 38 39 39 36 34 32 30 27 25 24 23 24 24 26 29 32
23 22 22 19 12 13 15 13 14 12 7 7 10 14 15 20 13 10 10 15 21 22 27 31 32 35 35 40 45 48 50 54 58 52 54 52 48 42 41 41 42 41 38 34 33 32 30 29 28 28 27 25 24 26
20 20 19 14 13 17 14 16 13 10 7 10 8 11 16 21 18 9 9 16 18 22 23 26 28 31 36 38 40 43 49 51 57 57 52 50 47 44 43 43 42 43 42 40 37 33 32 31 30 28 27 27 24 22
18 18 14 12 15 17 15 17 13 9 9 8 8 10 15 21 19 11 9 12 14 16 20 27 28 31 33 35 37 39 46 50 53 53 56 55 53 49 46 46 46 47 45 44 42 40 35 33 31 30 27 25 25 24
18 14 15 11 17 16 14 14 12 11 8 9 8 10 14 19 19 12 9 10 15 20 21 26 28 35 41 41 43 42 43 46 48 48 48 47 49 50 48 49 47 49 52 50 48 44 40 36 33 31 28 25 22 21
16 15 18 14 16 15 14 15 13 11 9 9 10 11 14 14 15 19 18 18 17 20 21 21 29 38 45 46 45 44 45 45 42 43 43 42 46 47 50 55 56 54 56 56 51 48 44 41 36 33 31 27 24 22
14 18 20 16 16 18 16 13 10 8 10 8 6 13 11 12 10 13 20 20 18 17 21 23 26 35 43 53 50 49 46 49 47 42 42 41 42 52 56 58 61 62 61 60 59 56 49 44 38 36 35 32 29 25
15 21 22 17 17 17 15 14 13 13 13 11 14 14 10 12 9 15 15 15 19 10 16 19 33 31 42 48 46 47 46 50 50 45 38 45 49 49 56 61 61 61 63 61 60 59 54 46 43 39 37 36 31 24
19 25 24 19 17 15 15 13 14 14 16 17 11 9 6 8 9 15 26 22 27 29 22 22 30 38 41 42 46 46 47 47 50 49 41 45 54 58 60 62 63 62 61 63 62 59 57 50 43 36 36 35 32 28
22 26 24 20 17 16 13 13 16 17 12 10 10 13 12 7 10 12 19 14 15 23 24 33 29 37 42 40 44 48 49 50 49 53 51 54 56 59 63 62 66 62 63 62 63 57 54 48 42 37 35 35 33 29
23 24 22 19 16 14 9 10 13 15 13 14 15 17 13 12 12 15 17 17 23 28 34 34 36 40 41 39 43 44 47 46 49 52 51 58 60 61 65 69 72 68 65 62 63 56 52 47 41 36 33 33 33 31
22 21 19 16 14 11 9 11 17 17 17 18 20 19 13 10 12 17 17 26 31 32 36 37 45 47 38 36 43 47 51 53 54 53 56 60 56 59 63 65 67 65 62 64 58 52 47 44 38 34 31 31 32 31
20 18 16 15 12 11 11 15 16 15 14 18 17 14 14 17 15 18 13 32 39 34 35 36 38 42 41 45 48 52 53 53 56 59 60 58 59 61 64 64 62 61 62 59 55 47 43 41 34 31 29 29 30 29
20 18 16 13 11 11 11 13 15 16 17 16 17 16 20 23 23 25 31 35 30 26 28 31 36 42 46 49 53 60 59 57 60 60 57 55 57 59 59 58 59 59 56 54 49 41 40 37 30 28 27 28 27 29
18 15 13 12 11 11 12 12 12 13 14 15 19 19 21 19 19 22 27 30 33 35 39 41 45 47 53 57 62 64 62 62 62 59 57 56 57 57 56 55 55 53 49 48 42 37 37 34 28 25 24 25 28 29
13 13 12 10 11 12 14 17 18 18 18 17 17 15 20 23 26 29 30 33 36 40 43 46 49 55 59 62 62 62 62 62 60 59 58 57 57 55 53 50 47 46 43 40 37 35 34 32 26 23 22 23 24 26
9 8 10 12 14 16 14 12 13 16 18 18 21 24 27 31 34 36 39 42 45 47 47 49 52 56 58 59 61 62 62 61 60 59 56 53 51 49 46 44 42 40 37 35 33 30 29 30 26 22 19 18 20 22

GFSWCAN_250_spd_090.txt.gz
Wind_Speed
60 66 71 73 76 81 86 92 98 102 104 99 92 63 34 26 22 20 21 23 23 30 35 41 36 31 27 21 19 16 11 11 12 19 23 24 28 33 39 40 44 53 62 71 79 95 106 98 94 95 98 96 95 96
61 67 70 72 77 84 90 96 99 102 90 97 84 56 30 22 21 22 21 20 26 33 38 39 30 30 25 18 15 15 12 11 13 18 23 29 31 33 36 40 44 48 56 64 74 83 88 95 107 104 96 99 99 98
61 65 70 74 80 88 91 95 97 91 84 82 74 47 28 21 20 21 20 25 31 35 39 36 34 34 28 22 18 14 15 11 14 18 22 28 37 40 39 41 42 47 51 56 61 69 77 88 95 95 100 99 98 97
63 66 71 76 81 88 93 93 94 93 87 84 66 40 25 21 19 20 21 28 34 39 37 37 36 32 28 25 25 20 20 17 16 19 22 31 33 37 44 46 44 47 51 54 57 61 74 86 87 87 91 95 98 102
64 68 72 79 82 87 87 93 90 89 82 78 48 30 22 20 19 19 24 32 36 40 37 37 34 29 29 30 29 26 23 23 21 19 22 28 31 37 41 45 50 54 57 59 60 60 63 70 76 86 92 89 90 92
68 69 74 78 85 91 97 92 86 79 80 67 38 24 21 20 18 21 28 33 37 39 37 36 28 30 30 30 26 22 22 20 14 15 20 25 29 35 40 44 48 53 60 61 64 66 69 70 72 75 79 81 81 84
66 72 77 82 85 90 87 84 76 76 72 47 29 20 21 20 17 23 31 36 37 35 33 30 29 28 31 25 20 15 12 13 11 12 13 18 26 31 34 38 43 48 53 59 64 67 71 75 78 80 79 78 78 81
73 77 82 85 87 86 88 81 81 74 62 37 24 19 19 17 17 26 31 34 33 32 30 27 25 25 28 25 20 16 14 14 15 15 17 18 20 22 24 29 34 39 43 50 57 60 66 71 75 80 84 84 82 83
75 82 85 85 86 84 85 84 72 64 44 30 19 18 18 13 19 27 31 31 30 28 26 25 23 21 23 25 26 24 19 16 12 11 12 13 15 18 20 21 25 30 34 38 43 51 57 60 68 75 78 83 83 83
81 82 87 85 87 85 80 73 58 48 29 21 16 15 12 13 20 27 29 26 23 23 25 24 23 26 25 27 27 28 29 27 23 19 16 15 12 10 11 14 19 23 25 28 32 38 44 51 56 63 70 78 82 84
82 88 92 91 88 79 80 60 51 32 23 16 11 10 10 15 21 27 22 20 19 20 21 23 24 27 31 32 33 31 31 30 31 29 25 20 17 14 11 10 12 16 20 23 26 28 33 39 46 53 57 64 72 79
89 92 88 85 83 78 68 50 36 24 16 13 9 7 10 16 21 22 17 18 19 18 23 27 31 31 33 36 37 36 38 36 35 34 33 31 28 25 22 17 12 11 13 15 19 25 28 31 35 40 47 54 58 64
88 88 89 81 75 65 50 38 25 20 14 10 7 6 11 15 19 16 13 16 19 21 20 23 28 32 35 38 44 47 45 43 40 37 34 33 33 31 28 25 23 20 17 14 16 17 21 25 29 33 36 42 49 54
87 87 77 69 61 50 37 26 21 16 13 11 7 5 7 12 15 14 10 14 17 20 19 22 26 32 34 37 45 47 49 48 47 43 39 35 33 33 34 33 31 28 25 21 16 15 17 18 21 26 31 35 40 45
83 70 65 54 48 35 24 21 17 15 13 12 6 6 6 12 15 11 6 13 16 20 23 24 22 25 30 35 39 43 47 49 48 45 41 38 34 36 39 38 36 34 30 26 23 20 18 17 19 21 24 28 33 38
65 57 51 45 33 26 20 16 16 16 16 13 7 6 8 12 12 7 4 8 14 16 17 23 26 31 34 35 37 39 41 45 47 46 42 41 39 40 44 43 40 38 36 33 30 27 24 22 20 20 22 25 27 31
51 38 41 33 25 22 17 15 18 17 19 13 9 8 9 9 11 6 5 8 11 12 16 23 25 28 33 35 39 39 41 43 45 44 42 41 42 44 44 45 43 44 41 39 37 34 32 29 26 24 23 23 26 28
38 34 30 22 20 19 14 21 18 22 18 13 9 8 6 8 11 8 6 4 5 10 14 17 19 25 31 34 39 40 43 45 47 48 43 39 39 39 40 41 44 49 48 46 46 43 39 37 33 30 28 28 27 27
26 21 19 18 18 14 18 20 19 20 16 12 10 8 5 5 11 12 9 8 5 6 9 14 17 24 30 35 39 42 45 46 50 48 43 38 37 40 44 46 51 51 52 51 53 53 45 40 39 35 31 30 30 29
16 17 16 17 15 15 23 20 21 18 16 11 10 9 3 7 12 13 9 6 5 6 11 15 21 24 30 32 36 43 45 47 49 53 51 38 37 42 42 43 47 54 55 56 58 56 57 51 46 40 33 31 30 29
15 15 15 15 15 17 24 21 22 20 19 13 13 7 7 10 12 10 2 3 5 8 10 14 22 25 25 33 35 45 49 50 50 51 51 54 41 41 44 45 47 52 58 55 56 63 63 62 51 44 39 35 30 27
14 14 14 14 15 21 20 20 21 19 17 16 16 15 10 8 8 6 2 6 6 6 10 17 25 28 27 35 36 46 49 50 51 53 54 52 52 46 47 52 54 53 57 60 59 63 63 68 56 50 43 37 32 27
14 14 13 18 18 22 21 20 20 19 18 13 13 10 8 10 10 9 4 1 4 9 16 20 23 26 24 31 36 45 47 51 49 52 54 56 58 58 55 57 59 60 60 60 60 59 62 63 57 50 43 38 33 27
14 14 14 22 22 23 24 23 23 21 17 13 15 10 12 13 11 11 10 11 15 18 20 19 23 25 27 29 35 41 44 50 48 51 54 57 59 62 62 60 58 59 59 59 62 61 61 61 56 50 45 40 37 33
16 16 17 25 24 24 25 24 22 19 18 17 15 14 13 11 13 16 17 16 19 23 21 16 26 35 36 39 39 39 41 49 50 54 53 58 62 62 65 65 63 60 58 61 63 61 60 59 55 48 45 40 34 35
17 18 20 28 26 24 24 22 21 19 19 16 14 15 14 12 14 16 17 17 19 22 19 22 24 35 34 46 45 44 49 44 45 52 56 58 61 64 67 68 66 61 59 59 61 59 60 55 51 45 42 36 31 29
17 20 25 30 26 23 21 19 18 19 22 23 19 16 19 19 22 19 16 18 21 20 19 23 25 30 38 42 44 53 51 48 55 57 58 63 64 67 69 70 67 61 58 57 56 55 54 51 45 43 40 34 30 31
19 22 26 28 26 22 19 17 14 17 17 16 14 17 18 19 20 19 21 24 25 28 25 24 26 33 33 32 46 54 56 59 61 60 61 65 68 69 68 66 64 61 59 56 52 50 48 47 42 40 38 32 28 27
19 23 25 24 20 18 16 13 12 16 18 18 18 19 21 24 24 24 26 30 32 31 32 31 34 41 41 37 40 46 53 57 59 62 65 67 68 66 65 62 61 58 54 50 47 44 43 41 38 37 34 29 26 26
22 23 22 19 16 13 11 12 14 17 19 21 24 26 28 29 28 26 28 30 31 33 34 35 38 41 44 46 48 53 57 58 60 64 67 68 66 63 62 58 55 51 45 43 41 39 38 37 34 33 31 28 25 24
22 19 16 14 11 10 10 9 11 15 17 17 21 25 26 27 29 30 32 30 28 30 34 38 41 46 49 51 53 56 60 62 64 64 65 65 61 57 53 49 44 42 39 36 35 34 34 34 32 29 28 25 24 24
18 15 12 11 12 12 12 13 15 19 21 24 28 27 28 30 32 33 31 30 32 35 41 48 50 51 52 55 57 59 61 61 60 59 56 53 51 48 45 42 39 36 34 33 30 29 29 29 29 26 26 22 21 21
14 14 14 13 13 15 17 20 22 23 23 23 24 26 25 24 26 28 31 36 41 46 50 52 54 57 58 60 60 59 57 54 51 49 47 45 44 41 38 35 34 33 31 30 29 28 27 26 26 23 23 22 19 18

GFSWCAN_250_spd_093.txt.gz
Wind_Speed
43 49 53 56 61 63 69 73 80 87 92 96 97 90 83 59 33 26 25 22 20 27 33 37 35 34 35 32 26 23 22 17 11 12 16 21 23 27 34 41 47 62 80 94 89 92 94 94 94 91 91 93 93 97
47 53 54 57 60 65 68 73 80 88 93 97 93 87 80 55 31 28 26 24 24 30 36 35 32 35 35 33 26 25 23 21 18 15 17 20 25 28 31 37 42 49 60 76 96 92 94 94 96 93 97 94 94 97
52 55 57 56 63 65 69 76 82 88 93 96 91 85 74 45 28 26 28 24 28 34 37 33 35 36 33 30 28 26 26 25 22 22 20 21 25 30 32 35 39 45 52 60 71 94 104 97 93 94 97 98 96 96
56 57 57 60 65 68 71 76 84 90 94 97 91 82 59 34 26 24 25 26 32 37 36 36 35 33 29 31 30 30 27 21 22 26 28 25 25 29 34 38 41 45 49 54 63 71 85 104 106 101 96 98 99 102
56 59 61 65 67 71 75 79 83 88 94 93 89 79 49 32 27 24 23 28 34 40 33 36 33 30 29 30 28 24 20 18 17 23 27 30 30 30 34 38 43 45 49 55 60 66 74 81 90 98 107 110 107 102
61 64 66 68 70 75 77 81 85 91 94 93 87 69 40 29 24 23 24 30 36 38 35 35 30 28 26 27 23 19 15 13 12 14 19 25 27 29 34 37 41 45 49 52 57 62 69 77 82 86 90 93 99 104
64 66 69 71 75 76 78 84 90 90 91 91 82 56 32 25 23 19 26 32 37 34 34 29 28 26 22 23 23 17 14 14 14 13 16 20 21 24 29 36 40 44 47 51 55 60 64 69 74 81 87 91 95 96
68 70 72 72 75 79 80 82 86 88 87 85 76 43 26 22 20 20 28 33 33 32 28 25 24 23 20 18 19 20 18 14 11 12 13 15 16 19 24 27 30 36 43 48 51 54 59 65 68 74 79 83 86 88
67 69 70 73 77 80 83 86 86 87 90 79 51 30 20 18 16 22 28 32 29 25 22 20 21 22 23 20 19 19 20 20 17 14 11 10 11 12 13 17 21 27 33 37 43 50 54 59 63 67 70 73 80 84
67 69 72 73 79 78 81 83 85 86 87 61 39 21 15 13 15 22 28 25 24 19 18 19 17 24 27 26 26 25 21 19 20 20 17 14 12 10 8 7 10 15 21 27 32 35 40 47 53 60 65 69 70 71
70 70 71 74 74 77 81 84 86 80 70 46 28 16 14 11 15 21 25 20 19 17 17 17 17 22 31 33 33 31 29 25 22 23 25 25 23 19 14 10 7 7 12 17 21 23 28 33 40 47 53 60 67 70
70 71 71 72 76 78 80 82 79 69 54 32 21 14 13 10 14 20 20 16 16 15 13 17 20 25 28 33 36 35 33 30 29 26 28 30 30 29 26 23 18 12 8 8 13 20 24 26 29 34 40 46 54 60
68 71 73 75 79 80 81 82 75 56 37 24 17 14 12 8 14 19 18 12 10 10 12 15 22 27 28 30 33 37 39 39 33 29 28 31 33 34 33 31 28 25 21 16 12 12 14 16 21 26 30 35 40 47
74 73 76 77 77 79 85 74 63 41 25 22 17 16 12 10 12 15 13 8 6 12 15 17 19 28 33 35 35 36 40 41 42 32 31 33 34 35 36 37 35 32 28 25 24 20 16 14 15 19 23 28 32 37
73 73 73 74 80 74 64 61 43 30 22 20 18 18 12 9 10 12 11 10 5 8 13 16 19 25 31 35 40 41 43 42 39 38 35 36 35 33 32 31 31 33 31 30 28 25 24 21 18 18 21 24 28 31
67 70 70 67 57 55 49 39 31 22 18 21 21 18 12 9 11 12 11 10 5 4 7 12 17 19 23 30 36 42 43 42 44 39 32 29 31 34 33 34 33 32 31 30 32 32 28 26 27 24 22 23 25 28
62 62 55 49 45 40 36 29 22 19 21 22 24 19 8 7 8 10 11 11 5 1 1 5 9 16 21 27 32 37 40 41 43 43 46 43 35 34 38 37 35 36 35 35 35 37 37 37 32 29 27 26 26 28
52 47 43 38 36 32 25 23 19 21 22 24 24 17 13 12 11 9 10 11 10 8 5 1 3 12 18 23 24 29 36 40 41 43 46 44 46 42 42 39 37 37 38 38 40 38 38 39 40 37 32 28 28 28
39 33 30 32 29 24 21 19 18 24 24 26 23 19 13 13 10 7 7 8 13 11 10 8 8 12 18 20 20 26 33 38 41 42 44 46 47 48 49 50 54 50 50 42 41 41 39 40 44 42 39 34 31 29
27 26 29 25 23 20 20 18 23 26 26 27 20 15 17 17 10 12 14 12 13 14 13 12 9 16 16 21 19 23 26 34 40 44 44 42 46 49 53 54 55 58 58 56 51 48 45 44 44 44 42 38 35 31
25 26 22 21 20 18 18 20 27 26 26 23 18 16 15 16 14 14 15 14 15 15 12 10 11 13 16 24 24 22 22 29 40 43 43 47 46 49 54 56 59 61 61 60 57 55 49 50 47 48 46 40 37 33
22 21 19 17 17 18 18 23 25 24 21 21 21 17 19 16 16 16 16 16 16 15 13 9 18 23 21 18 25 28 28 32 39 43 43 48 48 49 53 58 61 65 66 65 62 59 56 55 53 52 48 41 36 32
20 18 17 16 16 19 19 24 25 23 24 25 22 18 18 19 15 16 18 19 12 8 12 16 20 23 22 24 27 36 28 36 46 48 47 50 47 49 59 62 62 67 69 66 63 60 59 56 56 53 48 41 37 32
19 17 16 14 16 21 21 24 22 22 23 23 22 18 16 17 12 15 16 19 19 24 26 21 22 26 26 28 28 31 35 45 48 48 49 48 46 53 62 67 66 68 68 66 65 61 58 56 54 51 47 40 37 30
18 16 14 14 18 23 22 24 23 23 24 23 21 16 20 17 15 16 16 21 22 24 25 25 24 26 30 34 31 34 38 43 49 47 49 53 57 59 65 67 67 69 69 67 65 61 57 54 50 47 44 40 38 33
17 15 15 16 20 25 22 24 26 25 26 23 20 19 17 17 19 19 19 21 24 28 25 26 30 32 31 29 31 33 38 48 56 54 54 58 62 64 63 66 68 70 68 67 64 58 54 50 46 44 41 38 36 31
16 17 20 17 20 26 24 23 24 24 24 23 22 22 21 19 20 21 23 22 25 26 27 30 32 33 31 35 37 35 38 50 53 40 53 67 64 67 68 70 70 68 66 64 58 53 49 45 43 40 37 34 33 29
20 20 18 18 22 26 23 21 21 22 21 22 23 24 26 24 21 22 21 23 25 28 32 34 35 33 30 31 34 40 46 46 49 52 56 63 65 69 71 70 67 65 60 54 49 45 41 40 38 33 33 32 30 27
14 12 15 19 23 24 20 19 20 21 20 20 22 21 20 20 22 25 27 30 32 33 33 37 37 33 31 33 37 40 44 50 55 58 61 65 68 69 68 63 57 51 48 44 40 37 36 35 32 29 29 28 29 26
11 15 19 22 23 21 19 18 19 20 19 20 22 24 26 27 28 29 31 33 34 34 38 39 36 35 36 41 44 49 55 56 57 60 62 61 60 58 54 50 45 41 39 37 33 31 30 29 27 26 27 25 26 24
16 19 20 18 16 17 18 18 17 18 19 19 18 19 22 25 29 33 35 33 33 33 34 35 36 40 42 46 50 52 53 58 60 56 52 49 46 43 41 40 40 37 35 33 30 27 26 26 24 23 25 25 24 22
19 18 15 14 13 14 14 13 13 15 17 19 22 25 27 33 35 34 34 34 33 34 34 36 40 44 47 50 52 54 57 55 50 46 44 43 40 39 39 38 37 35 32 30 28 26 25 24 23 22 22 22 23 22
17 14 12 12 13 14 15 17 18 20 22 25 27 27 27 28 30 34 38 38 39 41 42 41 43 47 50 54 55 52 48 45 44 42 41 40 39 39 37 35 34 33 31 29 26 25 25 25 24 22 20 20 20 20

GFSWCAN_250_spd_096.txt.gz
Wind_Speed
33 37 39 44 49 57 59 61 65 69 75 76 83 86 91 92 88 56 34 30 29 28 32 39 41 35 32 32 27 22 19 17 16 13 13 15 18 23 29 37 47 61 76 89 91 86 88 86 89 91 95 98 98 97
36 38 41 44 52 56 58 63 68 71 76 79 83 88 88 90 81 49 33 27 26 29 35 40 40 36 37 31 27 27 24 22 20 18 15 15 18 22 24 29 38 48 64 79 88 90 86 86 86 87 94 97 96 97
38 41 43 47 54 60 61 67 70 73 76 78 84 83 91 89 70 49 30 26 24 30 38 41 37 38 36 33 30 29 28 26 23 21 20 20 20 23 27 28 32 41 49 62 78 92 91 88 88 88 87 92 92 92
41 43 45 51 58 60 65 69 71 73 76 79 82 86 89 86 64 39 29 26 25 32 39 37 36 35 33 30 30 30 26 22 21 19 20 23 25 24 27 31 34 36 43 50 62 79 94 92 89 88 91 87 87 91
46 46 49 54 61 63 67 68 69 72 75 79 82 87 84 86 56 36 28 25 27 34 35 35 34 31 29 28 27 27 21 17 15 15 16 19 23 27 28 29 34 38 38 43 51 60 75 90 100 99 94 91 90 88
48 49 51 59 63 65 67 67 69 73 75 78 80 84 86 84 49 32 27 25 31 36 32 31 29 28 26 25 24 25 21 16 14 14 14 13 12 18 26 30 31 36 41 42 47 53 60 72 87 98 101 95 95 94
55 55 59 62 63 64 65 67 71 71 72 77 79 86 84 79 46 29 24 26 32 33 31 30 30 30 26 24 23 22 23 19 15 13 13 13 13 14 15 21 28 32 37 43 46 50 59 65 74 86 98 104 102 100
59 60 60 61 61 64 66 69 70 72 74 76 80 83 83 75 40 27 24 27 33 32 30 29 30 27 23 23 20 17 17 18 16 15 14 13 13 12 11 13 18 26 32 37 43 49 53 58 66 74 83 94 105 110
66 64 63 64 67 68 69 71 71 71 74 75 78 81 80 61 31 23 23 27 31 29 27 26 23 24 23 23 21 18 16 17 18 19 16 15 13 11 9 8 11 15 22 29 35 41 47 53 58 63 70 78 87 96
68 66 67 68 72 72 70 71 72 70 75 77 79 85 76 48 26 22 23 27 29 25 21 21 22 21 21 24 24 22 19 17 18 19 21 20 18 14 12 9 5 6 11 17 23 29 35 41 49 55 62 68 74 80
75 73 71 72 73 71 72 73 67 72 71 77 77 77 66 35 21 19 22 25 25 20 15 14 15 19 21 24 27 24 21 18 17 20 23 25 25 24 21 16 13 11 9 9 12 17 22 28 34 40 47 55 62 69
76 75 75 74 71 68 69 67 71 68 73 71 75 73 45 22 18 18 20 22 19 15 10 11 18 21 23 26 26 31 28 24 25 28 32 34 34 32 30 27 25 21 16 11 10 11 15 19 23 27 33 39 46 52
75 72 70 67 63 62 61 64 66 68 70 71 72 60 30 20 16 17 18 19 13 8 7 17 24 27 28 33 35 35 32 28 29 31 33 33 35 37 36 35 32 27 23 19 16 13 11 12 16 21 25 30 35 41
74 68 64 63 58 57 60 61 61 66 67 69 62 38 24 20 17 15 17 16 10 7 6 15 17 23 26 31 33 34 35 34 29 26 26 30 33 34 33 32 34 34 32 29 27 21 17 16 16 18 21 25 30 34
62 58 52 52 55 54 55 54 57 65 60 57 44 28 24 22 18 13 14 16 11 4 12 8 10 12 17 24 28 31 33 34 34 36 36 36 37 37 40 40 39 42 37 34 32 29 27 26 24 23 23 24 26 30
49 51 47 51 52 49 53 52 53 53 50 45 31 26 24 21 18 14 14 14 10 11 13 8 3 4 10 13 17 23 28 30 32 32 33 34 36 37 37 39 41 45 46 45 42 37 34 30 29 28 25 25 27 29
39 41 46 48 45 49 49 50 47 44 40 29 25 22 24 20 17 15 11 11 12 12 16 15 9 8 11 14 13 14 18 23 29 34 37 36 35 35 37 38 43 46 48 50 51 46 44 39 35 35 32 32 32 31
40 40 44 46 46 47 47 42 38 35 26 24 21 23 25 22 16 12 10 10 11 12 15 17 16 14 17 18 17 18 18 20 20 28 34 34 35 39 38 38 44 49 52 51 53 54 51 49 46 40 39 37 34 33
37 39 40 44 45 38 37 33 31 24 23 22 23 25 26 23 18 15 12 14 13 14 18 19 20 19 18 22 22 19 16 14 16 20 29 35 40 39 40 38 42 47 53 57 54 56 58 56 54 48 43 41 38 36
38 39 41 37 34 32 28 27 22 21 21 23 26 27 26 23 17 16 15 14 16 17 20 21 21 21 21 20 19 17 17 18 24 24 26 34 45 47 45 42 40 48 51 55 59 60 59 59 58 55 50 44 40 37
34 33 32 30 24 26 24 21 21 20 21 25 25 25 22 20 19 19 14 15 16 18 20 18 19 19 21 23 26 25 23 26 28 28 27 36 45 44 46 46 46 45 50 56 61 61 63 62 62 58 54 48 43 39
30 26 24 23 22 20 19 20 20 19 23 26 26 26 24 20 16 17 15 17 15 15 17 17 21 21 23 26 28 27 29 29 27 29 28 36 45 49 46 40 46 51 57 62 63 66 67 67 65 60 55 48 43 40
22 20 20 19 18 17 16 18 18 19 25 26 27 26 22 16 16 18 19 14 16 18 17 19 24 25 31 30 28 28 28 31 33 31 32 40 45 51 47 45 53 59 63 66 67 69 71 70 66 59 52 46 41 39
21 19 18 16 16 15 15 17 17 23 25 26 25 23 23 21 18 18 15 14 17 19 19 20 21 26 29 30 33 32 34 33 37 33 35 45 49 51 54 55 59 64 67 69 72 74 74 69 62 55 50 45 40 38
19 18 16 14 15 15 15 17 19 23 25 23 23 23 21 21 15 16 14 13 13 13 15 20 24 29 28 29 30 33 32 35 40 45 46 47 51 50 53 57 64 69 70 73 76 75 69 60 55 51 46 41 38 36
18 16 14 13 14 14 14 19 20 23 22 23 23 22 20 20 17 17 16 16 18 21 23 25 27 25 27 31 33 34 36 38 37 37 42 47 50 50 53 59 68 72 75 76 72 66 59 53 49 45 40 36 35 33
15 14 14 13 14 14 16 22 22 23 22 21 22 21 21 20 21 22 20 19 22 23 23 25 27 29 32 34 35 36 38 37 37 39 44 45 48 51 56 62 68 71 70 66 61 55 50 46 42 37 35 33 31 29
15 15 16 17 17 17 19 25 22 20 21 21 20 20 21 22 23 23 25 25 26 27 29 32 34 36 37 36 38 39 39 39 40 43 47 51 55 58 60 65 67 62 57 54 50 47 44 40 35 31 30 29 27 26
13 16 17 17 18 19 20 23 20 18 17 17 16 17 19 20 21 22 23 25 28 33 35 36 39 41 41 41 41 42 41 42 45 48 53 56 58 61 63 58 55 54 51 47 42 40 37 34 31 28 27 26 25 23
13 14 12 12 15 16 19 19 14 13 13 14 15 17 19 21 22 24 28 29 31 33 37 42 43 43 43 44 43 44 46 47 51 55 57 59 59 56 51 50 49 49 46 42 38 36 33 30 28 26 25 24 23 22
9 11 13 15 16 16 14 12 11 12 12 14 18 18 18 19 20 23 27 32 36 39 38 38 40 42 45 47 47 49 51 52 52 53 54 53 51 48 45 45 42 40 37 33 33 34 32 30 26 24 22 21 21 21
15 15 15 14 12 10 9 8 9 12 14 15 16 18 22 25 29 33 34 33 33 37 44 46 46 46 48 49 50 51 51 51 51 48 47 48 45 43 41 39 36 34 32 32 31 30 29 27 24 22 21 20 19 18
17 14 11 8 5 4 6 9 13 14 17 20 24 25 24 25 28 31 36 42 45 46 46 47 47 46 44 43 44 44 43 43 43 43 44 43 41 40 38 36 33 31 30 31 31 29 27 24 22 21 20 19 19 18

GFSWCAN_250_spd_099.txt.gz
Wind_Speed
41 39 36 35 33 35 39 40 47 54 59 63 66 68 73 79 80 90 87 69 38 33 29 32 38 44 37 34 29 25 21 19 19 18 16 15 17 21 25 30 42 54 65 78 84 80 78 79 77 84 93 96 99 98
39 38 36 35 36 40 42 43 47 55 59 63 65 69 72 79 81 86 90 67 39 35 32 37 44 40 36 32 30 29 23 21 20 20 20 20 20 20 23 26 31 43 55 68 79 85 80 76 76 79 85 88 93 96
39 40 40 43 45 44 44 45 49 56 60 62 65 68 72 77 83 85 91 62 37 33 34 41 44 38 34 32 29 27 25 24 21 18 20 22 24 24 22 25 28 33 43 54 68 77 86 82 77 78 79 83 88 92
38 42 46 46 47 46 49 50 52 58 59 61 66 70 75 74 82 83 88 63 36 32 36 41 38 34 32 31 29 27 26 24 19 15 15 19 23 26 26 24 27 31 34 44 54 66 77 88 84 80 77 77 81 84
49 49 45 47 49 51 55 56 56 58 60 64 68 70 73 75 75 84 83 58 34 32 38 41 36 33 31 29 27 25 24 23 15 12 11 13 17 22 27 28 27 29 33 36 44 52 64 75 85 88 84 80 78 82
53 52 51 53 54 55 58 58 59 59 61 64 68 72 74 73 76 80 83 58 34 33 39 37 33 31 29 27 24 22 21 20 14 9 7 9 12 14 20 27 30 30 31 34 37 43 51 63 74 82 92 89 82 85
58 56 57 58 59 58 59 60 60 59 61 64 68 72 76 74 77 77 79 54 33 33 38 33 31 31 29 27 24 21 19 20 19 13 7 5 4 8 13 17 24 30 32 33 36 39 43 50 58 69 81 90 93 91
63 63 61 61 60 62 61 61 60 62 65 66 68 72 73 67 72 74 71 47 30 33 36 29 28 29 27 26 23 19 17 18 19 17 15 12 9 6 4 9 15 21 28 33 34 36 40 43 50 56 64 76 91 95
70 67 67 68 68 64 65 65 63 65 67 66 65 67 61 71 64 76 66 38 28 32 30 25 25 24 24 24 21 19 19 19 20 23 23 21 18 15 12 8 3 6 12 18 27 33 36 40 44 49 55 61 71 85
73 73 74 74 72 70 68 65 64 64 66 62 63 59 62 64 64 70 53 25 26 30 24 21 18 19 19 20 18 19 21 24 32 35 36 36 35 32 28 24 19 11 4 3 10 17 24 32 37 42 48 52 59 66
48 50 53 59 66 72 69 64 63 60 62 59 57 56 60 55 60 63 37 19 22 25 18 12 14 18 16 16 17 22 24 27 32 33 34 34 36 37 39 37 34 29 24 17 9 3 9 16 24 32 40 46 53 59
52 56 58 53 53 61 64 61 59 58 59 56 55 56 55 53 56 45 24 17 19 18 7 5 11 16 22 20 21 23 25 27 30 32 32 32 34 36 37 35 34 34 33 32 27 21 15 12 13 18 25 32 40 49
57 55 56 53 54 56 57 59 58 52 53 51 51 53 47 49 48 31 18 15 16 11 4 10 13 18 21 23 29 32 28 26 28 31 32 32 33 34 37 38 38 38 38 36 33 30 28 24 22 19 19 22 27 34
58 57 56 55 53 52 53 57 54 54 52 47 51 46 44 46 32 24 16 14 14 10 10 9 7 13 16 21 24 26 25 27 29 29 29 29 28 29 31 34 34 35 34 35 35 34 31 29 29 26 26 25 24 26
58 58 57 56 53 53 53 53 54 50 45 47 48 45 45 34 25 20 18 14 14 12 12 15 9 3 2 6 10 15 19 23 26 26 25 26 27 28 27 30 31 34 38 39 36 36 34 34 33 30 30 30 29 29
60 60 61 59 56 50 45 47 45 43 45 45 45 45 36 27 22 20 21 16 14 14 13 22 15 12 6 5 6 6 10 11 12 16 20 22 25 29 31 32 32 32 35 36 37 39 43 43 42 40 39 37 35 32
63 63 60 58 50 47 41 41 42 43 44 44 45 37 31 23 20 22 22 18 14 11 13 15 22 21 18 17 14 14 17 13 11 10 12 18 22 27 34 35 36 34 34 34 36 39 39 42 45 47 46 46 42 38
67 61 55 48 45 39 39 39 40 42 42 43 37 32 25 21 23 25 21 17 13 11 12 15 20 25 29 29 27 24 24 17 12 10 17 17 18 22 29 34 39 36 30 31 36 40 43 45 47 51 53 54 50 44
50 48 47 42 38 38 37 41 39 40 42 37 30 27 22 23 27 23 20 16 14 13 13 16 19 20 25 28 28 27 20 18 16 17 21 23 24 16 22 32 38 38 32 34 42 43 47 50 54 57 60 60 57 48
43 39 36 34 33 35 36 34 39 38 33 29 27 23 22 26 28 25 19 17 15 15 17 15 18 18 21 23 26 27 23 24 23 25 27 26 26 26 24 29 38 42 41 38 45 46 50 54 59 62 63 64 58 50
31 30 32 32 30 29 32 33 33 26 27 23 23 20 23 27 26 24 21 17 18 18 14 13 15 15 16 19 19 22 25 27 22 21 23 27 29 33 34 32 37 45 51 47 50 52 53 58 64 66 67 66 57 49
33 31 25 26 30 29 30 25 24 24 23 21 20 22 25 26 26 22 21 20 19 13 13 16 14 11 12 14 18 22 26 26 27 27 26 29 30 37 36 35 40 47 54 55 54 58 61 65 69 71 71 64 56 49
26 24 25 27 26 23 22 23 21 19 19 19 20 25 24 25 25 22 22 16 15 16 17 16 15 13 14 16 22 26 27 24 26 28 29 30 34 36 36 38 43 48 54 57 61 64 65 69 74 74 66 58 53 48
25 26 25 21 18 20 21 18 17 17 16 16 21 22 24 25 25 21 16 13 18 17 14 12 11 12 16 20 24 29 31 30 30 33 35 35 36 34 38 44 46 51 55 59 63 66 70 75 75 67 58 53 49 44
22 21 20 17 18 19 16 15 14 14 13 18 21 22 23 24 24 23 21 20 19 17 16 18 19 18 21 22 24 26 29 32 35 37 38 40 40 42 44 45 50 54 56 62 63 67 73 72 64 59 54 50 45 40
21 18 17 19 17 15 12 12 12 13 15 18 18 21 23 24 22 21 21 19 21 20 21 22 24 23 21 23 27 30 33 34 36 38 41 42 43 42 46 50 52 56 62 65 68 71 67 60 55 51 47 43 40 35
17 21 22 17 14 12 10 10 12 13 15 18 19 20 22 23 22 21 22 23 25 27 28 27 28 28 28 31 36 38 39 39 39 40 42 43 44 45 48 50 55 60 64 68 67 60 54 49 47 44 41 37 34 31
23 20 17 13 12 11 10 10 13 15 16 18 19 19 21 22 22 21 23 25 25 27 30 31 31 32 34 38 38 41 44 44 44 45 47 46 46 48 51 56 59 63 63 59 53 49 47 46 41 38 36 32 30 27
14 13 14 15 15 14 13 12 15 19 16 16 18 19 18 18 20 21 22 24 26 28 30 31 35 36 37 40 44 47 46 46 45 47 50 51 53 56 57 57 60 55 51 48 48 47 44 41 37 35 32 28 26 25
13 12 13 13 12 12 12 13 14 16 13 12 13 14 15 18 20 23 25 26 27 30 32 34 37 40 44 48 48 48 50 53 55 54 55 55 58 57 59 56 48 45 43 43 42 41 38 34 33 33 29 27 25 23
9 8 6 6 9 10 11 13 11 10 10 11 13 14 17 20 22 22 23 27 30 35 40 43 47 47 47 49 53 58 59 58 57 56 55 55 53 49 45 43 43 43 41 39 37 37 35 32 30 30 29 27 27 24
7 11 15 16 15 14 10 8 6 8 10 11 14 17 20 23 25 29 32 33 35 37 41 45 49 53 55 55 54 52 50 47 46 44 43 42 40 40 41 41 41 41 40 39 37 35 34 32 30 29 27 26 26 24
20 19 15 12 10 7 5 4 7 9 12 15 18 21 22 24 27 30 33 36 38 40 42 43 43 42 42 41 39 39 39 38 38 38 39 39 39 40 40 39 39 40 40 39 37 35 33 31 31 30 27 24 24 23

GFSWCAN_250_spd_102.txt.gz
Wind_Speed
38 36 34 34 35 35 35 35 37 42 45 47 50 55 56 60 64 67 73 78 81 81 67 39 35 41 44 38 34 30 27 24 22 21 21 22 24 26 30 35 44 56 68 80 76 77 81 84 84 86 91 93 92 97
43 40 41 34 32 33 37 40 40 43 46 49 52 56 59 60 63 66 73 72 79 78 72 40 39 43 40 36 32 29 26 22 21 22 25 25 26 27 28 31 35 44 54 66 80 83 80 81 83 85 86 88 89 92
47 48 45 41 42 44 44 43 42 46 47 50 56 56 57 58 64 68 71 70 76 76 71 41 41 44 38 34 30 27 24 20 19 20 22 23 25 27 29 30 31 35 43 52 63 75 87 86 80 82 84 84 85 88
54 51 51 50 48 44 46 46 48 46 48 52 52 57 60 59 64 67 64 67 72 76 70 41 42 43 37 33 30 26 22 19 20 18 17 17 20 24 28 29 30 33 35 40 50 61 71 79 83 81 81 83 83 85
60 58 55 54 54 51 49 48 48 50 51 53 55 56 55 58 62 62 62 68 70 77 55 39 41 39 33 32 30 27 21 17 19 17 14 15 15 19 24 28 31 32 34 34 40 48 57 66 72 80 82 81 79 81
67 64 63 61 57 56 56 56 55 53 54 55 59 56 53 59 61 62 66 61 70 63 45 38 41 36 32 31 30 26 20 19 17 13 10 10 12 15 17 22 28 32 33 35 37 38 43 52 61 71 79 80 78 77
70 70 70 71 68 61 57 59 56 56 56 55 56 57 55 61 60 56 59 60 64 57 39 37 37 34 31 30 29 20 15 16 16 13 9 5 6 9 13 16 18 25 32 32 34 36 37 40 47 57 69 78 80 77
51 52 52 56 65 65 61 57 55 55 56 57 57 53 55 56 53 56 59 60 55 47 32 34 32 30 30 29 23 16 16 16 18 18 15 12 9 5 4 7 10 14 18 25 29 30 34 36 38 44 52 64 75 82
46 51 54 54 47 53 59 58 57 59 60 62 60 60 59 61 55 56 56 51 55 35 29 30 28 25 26 23 13 15 17 23 26 28 30 29 26 23 19 14 8 2 4 11 18 26 28 29 34 37 41 49 58 71
45 45 46 43 37 40 46 50 56 61 59 58 56 57 55 48 51 52 53 47 55 26 26 25 20 22 22 15 10 13 14 19 26 30 33 34 36 36 37 38 38 32 23 14 4 7 16 24 28 31 36 39 44 52
40 39 40 40 37 35 34 37 41 41 44 44 48 49 49 49 48 48 48 45 38 23 22 19 14 18 13 9 10 19 23 27 32 34 38 40 41 41 41 40 37 35 32 29 26 22 16 6 7 18 26 33 38 43
42 40 41 41 37 36 38 40 40 39 41 42 44 46 45 50 46 47 44 46 24 19 17 12 10 10 8 10 13 22 25 27 30 32 32 33 33 36 37 37 39 38 37 34 31 28 24 18 13 10 5 8 20 32
46 45 45 43 42 43 41 40 41 38 40 41 43 45 45 46 44 43 43 38 19 15 14 8 4 1 8 13 18 21 19 18 21 21 22 24 27 27 27 29 31 28 26 24 26 26 26 25 22 19 15 12 11 13
49 49 48 45 44 44 44 44 42 40 41 41 42 42 44 44 42 42 42 29 18 15 11 14 11 7 3 5 9 11 13 16 17 16 18 18 21 22 20 20 19 20 20 20 21 20 19 19 20 19 18 17 16 16
53 52 51 50 48 48 49 47 45 43 43 41 40 44 45 41 40 43 38 23 21 16 14 15 20 15 10 6 3 6 7 7 6 10 11 12 14 17 18 18 17 17 17 16 18 20 18 18 18 18 21 21 20 20
59 56 53 52 52 51 50 48 47 46 43 40 41 44 40 40 42 41 32 23 21 18 17 14 20 27 21 15 12 9 9 13 14 12 9 10 11 13 12 15 18 18 16 14 15 22 23 22 21 23 24 26 26 26
56 56 53 51 52 49 49 49 47 44 43 43 40 41 40 41 39 35 28 23 24 20 17 14 15 25 30 28 27 25 24 23 26 24 19 13 17 20 22 16 12 15 17 16 17 22 27 28 25 29 31 32 33 34
61 59 56 55 54 53 52 48 46 42 41 39 37 40 41 38 37 29 27 25 26 21 19 16 14 15 20 24 27 29 28 27 22 18 18 20 23 24 21 20 24 24 19 20 24 29 33 35 36 34 37 44 42 44
52 54 56 54 53 51 50 44 44 40 36 36 39 39 39 39 30 26 26 26 27 23 20 16 16 10 11 17 20 23 25 26 21 16 19 23 22 20 22 22 28 33 31 30 31 38 41 45 44 40 43 47 49 44
43 46 48 48 47 45 43 42 38 36 37 40 38 38 38 29 26 24 24 30 26 21 19 18 12 11 11 14 18 14 8 14 20 21 20 19 22 24 26 28 29 33 32 38 37 41 42 49 53 50 50 53 53 50
37 41 40 41 39 41 42 37 36 39 38 35 36 33 27 26 25 24 28 29 21 22 22 17 12 13 15 10 10 14 19 15 14 15 16 20 24 25 28 30 33 34 35 36 41 45 48 51 56 58 57 58 59 59
38 38 37 35 36 34 33 35 33 29 32 32 27 25 23 23 22 24 29 28 26 23 19 16 16 19 18 16 17 17 18 16 17 19 21 23 27 30 32 33 37 38 41 44 47 50 53 57 60 61 64 64 67 59
34 36 37 35 28 29 29 27 29 28 25 24 22 20 20 20 23 26 29 29 24 19 19 17 21 22 22 23 21 19 20 21 22 24 26 29 32 33 37 37 40 40 45 47 51 54 57 60 63 65 67 70 66 59
35 32 28 28 26 23 24 23 21 21 21 19 19 20 20 24 26 28 27 22 21 20 20 21 23 23 23 21 22 22 23 25 23 23 26 30 35 37 38 40 43 45 52 52 51 55 58 62 67 70 71 68 60 55
30 31 28 24 24 21 19 18 18 18 17 17 18 18 22 26 26 26 25 22 22 21 20 24 24 23 23 26 26 27 26 25 26 28 32 35 38 41 42 44 46 49 50 55 55 57 60 65 69 70 64 58 53 47
29 25 21 18 18 15 15 16 16 15 14 14 15 18 21 22 23 26 26 26 25 26 23 24 26 26 29 31 31 32 32 32 33 36 40 42 43 45 46 46 47 50 52 53 56 59 65 66 68 64 59 53 44 39
18 19 20 19 15 16 16 14 12 11 13 15 18 20 20 21 23 25 26 25 24 24 26 27 28 31 33 33 33 34 37 39 41 44 46 47 50 51 50 49 51 54 56 58 60 63 63 63 60 55 50 45 39 37
22 20 16 16 17 15 13 11 10 11 14 16 20 20 20 21 22 23 25 24 25 25 26 29 31 33 36 38 40 40 40 44 46 48 49 53 55 53 53 58 59 59 58 60 60 60 56 53 52 47 40 38 36 34
14 16 19 18 16 15 14 12 11 11 12 13 16 17 17 18 19 21 23 25 27 28 29 31 33 35 36 38 41 44 46 47 50 54 56 56 57 58 62 63 61 58 57 55 53 48 47 46 42 39 36 34 33 32
20 19 17 15 15 15 14 12 11 12 14 13 12 14 17 19 19 20 23 25 27 30 32 33 33 35 39 42 46 49 51 53 55 57 60 61 62 59 56 53 51 49 47 45 44 44 40 37 36 35 34 31 30 29
15 13 12 12 12 10 10 11 12 13 12 11 10 11 13 15 18 21 24 27 30 31 34 37 40 42 44 47 49 53 55 56 56 55 53 51 49 48 47 45 43 41 40 40 40 37 36 35 35 35 34 31 29 27
6 8 11 13 14 15 15 13 10 9 8 9 11 13 15 18 21 24 28 32 35 38 39 41 44 46 47 48 50 50 49 48 47 45 44 44 43 42 41 41 40 39 37 36 36 35 35 35 35 34 33 32 30 27
20 20 19 16 13 10 7 5 5 6 8 11 14 17 20 23 25 28 32 34 35 37 38 41 44 45 45 43 41 40 39 39 40 40 40 41 40 40 39 39 39 38 37 37 36 36 35 34 34 33 32 31 30 28

GFSWCAN_250_spd_105.txt.gz
Wind_Speed
44 43 42 39 39 38 34 31 33 36 38 41 42 43 44 47 49 54 56 57 63 66 68 69 72 58 43 46 41 37 35 31 27 25 22 20 24 32 34 35 41 46 44 79 79 79 89 92 94 94 96 96 93 94
53 51 48 47 44 43 43 42 41 41 40 42 43 43 44 49 50 54 54 56 64 65 62 72 74 53 44 45 38 37 34 31 28 26 24 24 25 28 33 35 42 50 65 64 77 80 84 88 93 97 97 97 95 93
61 60 58 56 53 52 49 48 47 46 45 45 45 47 48 52 51 54 56 56 61 62 67 70 72 52 44 41 37 34 31 28 25 25 24 24 24 25 30 34 37 44 51 54 58 71 82 86 87 93 98 97 96 96
71 68 66 64 62 58 56 52 49 49 50 52 49 51 52 52 52 54 53 57 61 64 68 65 70 49 45 40 36 33 30 26 23 23 22 20 19 19 24 32 36 38 41 44 49 59 70 79 84 83 88 92 93 94
55 57 62 67 69 67 62 57 54 52 49 51 53 51 51 53 53 53 52 56 62 66 65 66 67 47 45 38 35 34 29 23 20 19 17 15 15 16 19 25 32 36 36 36 42 49 56 67 76 82 80 80 83 86
43 44 42 44 47 56 65 61 57 54 56 56 55 52 52 51 52 55 50 56 62 60 63 62 63 43 42 36 35 32 26 21 19 17 15 12 11 12 14 17 23 31 35 37 39 43 47 54 62 69 77 81 77 82
52 50 54 54 49 42 41 48 52 49 55 61 59 51 49 49 51 52 57 57 56 60 59 58 52 41 35 35 34 28 23 20 15 12 9 8 7 5 6 11 14 19 28 35 37 38 40 43 47 54 63 71 80 80
55 54 52 46 43 39 37 37 40 46 48 47 44 45 46 49 52 52 51 52 54 55 57 56 43 37 31 32 26 19 18 14 13 14 15 15 13 10 6 1 4 10 15 21 30 33 33 34 38 42 48 56 65 75
58 57 48 44 48 41 35 35 36 36 30 28 35 43 44 49 50 47 47 47 50 52 52 52 35 33 27 27 18 14 10 10 14 19 22 22 23 26 21 16 10 5 3 7 13 23 28 28 29 33 37 43 50 59
56 51 47 47 40 36 37 35 31 29 28 23 30 37 44 44 41 41 45 45 48 50 47 45 30 28 23 21 14 8 5 12 23 27 30 31 31 30 28 25 23 21 17 12 7 5 9 18 23 23 26 31 36 45
47 47 50 42 39 36 33 30 28 27 23 23 25 28 31 34 37 39 41 44 45 44 45 37 25 23 18 12 7 7 12 19 24 26 29 30 32 34 33 32 30 28 25 22 17 13 10 8 10 15 20 24 26 30
46 46 40 37 35 34 33 32 28 28 26 27 26 27 29 34 36 36 40 41 41 41 42 29 22 19 13 6 3 5 9 14 19 22 21 21 23 25 25 24 23 24 25 24 22 20 17 15 12 9 6 9 16 25
48 43 40 37 37 32 31 31 31 30 30 27 25 25 30 33 34 35 39 40 41 39 39 25 19 17 5 2 4 7 7 10 11 13 13 16 16 16 17 17 17 17 17 17 16 16 15 13 10 8 6 2 3 10
39 39 38 38 37 37 34 33 31 31 31 30 28 30 32 33 33 34 37 39 39 38 35 22 17 15 13 7 5 4 6 8 8 11 13 14 13 14 13 14 15 16 14 13 14 11 12 12 12 12 13 14 15 16
45 43 42 42 43 40 39 37 35 35 35 33 33 33 35 35 35 34 36 39 37 37 29 22 18 18 19 13 9 9 6 7 9 10 13 13 15 15 12 11 13 11 11 9 9 10 12 16 17 19 19 20 21 22
50 51 50 50 47 46 43 42 38 38 38 37 35 36 35 38 36 36 36 36 36 35 26 23 21 20 25 24 22 18 13 12 14 20 25 17 19 14 14 16 17 15 17 16 16 14 15 13 13 14 19 23 27 27
54 55 54 54 55 52 47 44 41 40 38 39 36 37 37 37 36 36 37 37 36 33 25 25 24 21 21 25 29 28 26 27 28 24 21 18 13 16 22 24 21 19 16 20 23 22 21 21 20 21 22 25 30 36
58 60 62 62 60 57 51 47 42 43 42 39 39 41 38 38 36 35 36 35 36 30 24 27 25 23 18 16 23 26 26 26 27 25 22 22 21 23 26 21 18 21 22 25 28 26 25 24 29 32 32 36 38 41
60 58 58 58 55 53 51 48 44 43 41 41 42 39 40 36 35 36 36 36 35 26 25 29 27 24 16 13 17 18 20 21 22 23 22 17 19 23 24 22 23 26 29 29 31 32 34 37 40 39 39 42 47 48
40 38 38 40 41 41 40 41 42 42 40 41 40 39 35 34 35 37 38 37 30 26 27 32 30 20 12 13 17 21 20 18 18 17 20 16 16 20 19 22 24 27 30 33 35 37 38 39 44 49 49 50 54 55
30 31 31 31 32 34 36 38 37 39 36 39 41 36 34 36 37 38 37 29 26 29 32 35 27 19 15 16 19 20 21 20 23 25 22 20 17 19 22 24 28 29 35 37 42 42 43 47 49 54 52 54 56 58
29 31 33 38 40 36 36 38 38 38 37 36 34 36 37 37 37 32 27 26 28 29 32 28 23 22 21 20 23 22 26 27 26 26 24 25 23 23 26 28 29 33 35 36 40 41 44 49 53 54 54 58 60 62
35 36 37 34 31 34 34 31 31 31 32 33 33 34 35 31 28 25 25 25 25 26 27 24 23 21 23 25 26 26 28 29 28 26 27 28 29 30 28 29 33 35 37 40 43 50 51 53 55 58 60 63 64 67
34 33 32 31 27 27 26 28 29 28 29 31 31 27 25 24 24 22 21 21 25 30 27 26 24 23 24 26 27 27 28 27 27 30 32 32 30 32 32 34 37 39 41 43 47 50 52 51 55 59 62 62 66 68
26 25 25 25 26 26 24 22 22 24 26 23 22 21 20 21 21 20 22 24 26 28 27 26 25 25 27 26 28 29 30 31 32 35 35 34 36 40 40 42 45 46 46 49 52 55 54 57 62 65 65 66 65 62
26 25 24 23 22 21 21 22 22 19 19 18 17 18 19 18 17 22 24 25 27 27 25 25 27 27 27 29 29 31 34 37 38 37 39 39 42 45 47 48 51 51 52 55 55 55 57 62 66 66 64 62 56 53
23 22 21 19 19 20 19 17 17 15 13 15 16 16 15 15 17 20 22 25 27 28 27 28 29 31 31 33 36 38 39 41 42 44 46 48 48 48 50 53 54 56 58 59 59 60 63 66 64 60 56 50 49 48
23 21 19 18 18 16 15 15 13 12 12 13 15 15 15 16 16 19 21 24 27 28 30 30 31 32 33 35 39 41 43 45 46 47 47 49 51 53 55 58 60 61 62 63 63 62 58 54 52 49 46 45 44 42
18 18 18 17 17 17 15 12 10 9 8 12 15 17 17 18 18 19 21 23 25 28 31 32 33 36 39 40 41 44 45 45 46 48 52 55 58 60 61 62 62 60 56 52 49 47 46 45 43 42 42 41 40 37
18 18 18 19 17 14 12 13 13 11 11 14 13 13 16 17 19 20 22 24 26 29 31 33 35 37 40 43 44 45 49 51 54 56 58 58 60 59 57 55 52 49 47 45 44 44 43 42 41 39 39 39 38 36
16 16 15 15 15 14 15 14 14 13 13 14 11 10 12 14 17 18 21 23 26 29 32 35 37 40 43 47 50 52 54 55 55 56 57 55 52 51 49 48 46 46 45 44 43 42 41 40 39 39 39 38 37 35
13 13 12 12 10 9 8 9 10 11 11 11 12 13 13 16 18 20 24 26 29 32 36 40 42 44 46 48 49 50 51 53 52 49 48 47 47 47 47 48 47 46 44 43 42 42 42 41 40 39 39 37 35 33
8 14 17 18 17 15 12 10 8 7 8 10 12 14 18 20 23 26 28 30 32 34 36 39 41 43 44 45 44 43 42 42 43 45 46 47 46 47 47 47 45 43 41 40 39 38 38 38 38 37 35 34 34 33

GFSWCAN_250_spd_108.txt.gz
Wind_Speed
51 50 49 49 49 49 47 45 43 42 42 43 43 44 44 44 44 47 50 51 54 54 55 61 66 68 69 67 53 46 43 37 30 26 18 16 23 30 43 36 33 52 68 74 73 73 79 84 88 91 94 96 94 101
58 58 57 57 57 57 56 56 54 51 50 50 48 46 46 49 47 48 49 51 55 54 53 60 66 67 70 67 50 49 44 36 32 28 21 17 22 33 41 50 50 44 58 70 73 76 77 79 82 89 99 100 96 93
66 65 63 63 64 63 62 60 60 60 60 57 54 50 47 48 49 49 48 51 54 54 52 60 64 66 68 66 48 48 43 38 30 25 19 18 21 28 40 46 50 42 54 55 67 79 78 79 88 90 99 96 98 97
57 57 56 50 48 48 42 40 40 41 46 56 61 56 49 48 51 50 48 50 51 53 52 61 62 64 65 59 49 45 40 32 26 22 18 17 19 25 34 42 51 52 59 53 58 65 80 86 96 93 94 98 100 96
54 50 46 43 41 41 41 40 42 46 50 55 50 52 50 49 52 50 49 50 50 52 51 57 60 61 63 52 47 41 33 26 23 20 18 17 16 18 26 34 42 46 52 55 55 59 65 76 86 89 95 96 97 97
45 47 47 41 37 41 46 47 46 47 46 39 34 34 42 47 52 49 44 45 46 46 51 55 56 61 61 46 41 37 29 26 26 22 16 12 11 11 17 24 29 38 46 52 53 55 58 65 67 70 76 92 94 95
50 47 49 49 48 46 47 47 47 44 40 40 32 30 33 42 44 36 38 41 45 42 51 51 55 57 57 42 37 31 30 31 30 25 18 13 8 4 9 16 22 26 33 41 47 49 51 55 55 57 62 68 81 88
48 50 49 50 46 48 49 48 47 39 35 31 30 31 34 33 27 29 34 38 37 43 46 48 53 52 50 37 31 27 27 26 21 17 17 16 14 10 5 3 10 17 22 28 35 40 44 44 43 43 44 49 57 67
51 49 50 51 50 50 53 47 38 36 34 33 33 31 29 27 21 26 32 36 36 39 40 45 48 49 43 30 25 24 22 16 17 20 21 21 21 22 20 17 8 1 8 15 19 24 32 37 37 35 34 36 39 46
49 49 50 53 52 50 40 37 37 39 35 33 30 28 27 20 17 25 31 29 33 38 40 42 45 46 34 23 20 20 15 16 17 22 25 28 30 31 29 27 24 23 18 8 1 7 13 21 25 25 23 26 30 32
49 49 51 52 53 41 37 35 36 32 30 29 26 25 23 20 21 22 23 28 32 35 38 42 43 41 29 18 14 13 12 14 16 19 21 23 25 27 28 28 28 28 25 21 18 15 10 4 4 11 16 19 21 26
49 51 52 51 43 40 36 28 27 30 29 26 23 23 22 22 23 23 24 28 31 34 37 40 38 39 25 14 8 8 8 11 15 15 16 18 20 21 21 22 23 23 22 22 21 20 19 16 13 9 7 8 13 18
53 50 45 39 36 35 33 32 31 29 26 25 25 25 23 23 26 23 24 28 32 35 35 37 36 37 24 14 6 7 6 6 12 16 19 19 20 19 19 20 18 15 13 14 15 15 15 13 12 13 12 10 11 13
49 47 42 34 30 28 30 32 32 31 29 27 24 23 24 27 26 24 26 30 32 32 32 35 33 34 24 16 12 10 8 7 11 12 13 16 17 16 13 11 14 12 13 10 8 9 11 13 10 5 5 7 8 8
47 41 35 36 34 32 31 31 31 31 29 27 25 27 29 29 26 26 29 31 33 30 34 32 30 31 22 19 18 15 15 13 13 10 16 19 16 17 17 13 13 16 13 14 14 15 14 16 13 14 13 14 10 11
46 41 35 36 36 40 39 37 36 35 31 30 30 32 30 29 28 29 29 32 36 33 33 31 30 28 23 21 22 24 22 18 18 20 25 25 20 18 16 14 19 19 17 15 14 18 19 21 19 18 17 18 21 21
49 45 44 43 42 42 44 45 45 43 37 37 35 33 31 31 31 32 33 33 34 34 33 34 28 27 23 23 22 24 25 26 28 28 28 24 19 19 19 18 19 18 18 18 18 21 26 24 25 24 25 27 27 27
53 52 50 49 48 47 47 49 49 45 43 43 38 35 32 32 32 33 35 35 34 33 33 33 31 26 24 27 24 21 21 22 25 27 25 23 21 22 21 20 20 20 18 18 23 25 25 25 27 31 31 29 27 28
58 57 61 55 50 50 50 50 51 49 47 43 39 38 35 35 32 35 37 35 33 34 37 33 32 29 29 29 24 23 21 20 24 25 24 24 24 25 24 23 24 21 17 22 25 28 31 32 35 38 39 38 38 40
58 55 56 58 57 57 60 59 56 54 51 48 44 40 37 37 35 37 35 32 34 38 35 33 34 35 30 27 25 19 22 23 24 25 27 26 28 24 28 27 21 22 24 24 27 30 32 35 38 42 43 42 46 45
54 56 56 52 45 41 39 38 38 38 38 36 33 29 33 36 35 34 31 32 36 34 35 26 43 36 29 25 25 19 13 18 23 33 31 27 29 30 27 28 31 24 25 30 35 37 35 36 42 44 43 49 54 55
47 41 36 32 31 28 28 28 29 31 34 28 31 38 37 30 35 35 35 38 37 39 40 37 35 33 28 31 24 21 22 24 28 30 29 31 32 34 33 33 32 37 38 35 36 38 38 40 44 46 47 53 58 57
30 28 26 26 27 28 29 31 35 35 32 35 36 35 32 35 36 35 36 38 39 36 32 30 31 30 30 30 24 24 28 27 27 32 32 31 31 33 33 34 39 39 39 39 40 41 42 45 48 50 52 55 57 59
25 25 27 30 28 31 35 35 33 33 34 36 34 31 30 32 33 33 33 30 27 27 28 26 25 24 23 19 20 21 19 27 31 31 30 33 34 31 38 38 41 42 43 45 47 46 48 51 53 55 58 60 61 62
28 32 37 38 40 37 28 26 24 21 23 26 28 28 29 31 30 27 24 22 21 21 20 19 23 23 25 23 22 23 22 17 22 30 40 40 40 39 42 44 46 46 47 51 52 52 53 56 57 59 62 63 65 67
32 31 31 28 26 24 23 22 21 20 20 22 24 24 23 21 20 19 16 10 8 10 9 17 24 24 22 20 17 25 28 31 39 42 41 44 44 47 48 49 50 53 53 52 54 57 58 60 63 64 65 66 63 61
28 28 27 25 22 20 19 18 17 18 18 18 17 14 13 14 14 14 13 20 21 20 21 25 21 25 25 27 33 35 37 40 42 45 46 48 48 48 51 52 51 52 54 56 59 62 63 64 64 62 59 55 52 50
25 23 21 19 18 17 17 17 16 15 13 12 12 12 9 7 9 8 14 21 23 24 29 31 30 29 31 35 39 41 41 43 45 46 49 50 52 52 52 54 57 59 61 62 63 63 61 58 54 51 48 46 44 42
19 18 18 17 17 16 15 13 12 11 10 11 11 11 9 9 9 10 13 16 19 21 24 28 32 36 39 41 43 45 45 47 48 49 52 53 55 57 60 61 62 62 62 60 56 52 50 48 47 45 44 42 41 40
19 19 19 17 16 14 12 12 10 9 8 9 10 10 11 12 25 21 20 21 24 26 28 31 33 36 39 41 42 44 46 48 51 53 55 58 60 60 59 59 58 54 51 49 49 48 47 46 45 44 42 41 40 39
20 17 15 14 14 13 11 8 8 10 11 11 13 14 18 17 18 20 20 24 27 29 30 32 34 37 40 43 46 48 51 53 54 55 55 57 58 55 51 48 48 48 50 50 50 50 48 46 44 43 41 40 39 37
17 16 15 12 11 10 11 13 13 13 13 14 15 14 14 16 25 23 25 26 28 30 32 35 39 43 46 49 50 50 52 54 54 51 48 45 45 47 47 48 49 49 49 50 50 50 47 42 39 38 37 37 36 36
10 9 9 9 8 9 10 11 10 9 8 8 10 13 17 19 22 26 28 30 33 36 38 40 41 44 46 47 49 48 44 42 43 43 46 48 48 48 49 50 49 49 49 48 46 42 38 36 33 32 31 31 32 31

GFSWCAN_250_spd_111.txt.gz
Wind_Speed
60 58 55 55 52 51 50 50 52 54 55 56 56 56 58 57 54 52 51 51 47 49 48 47 49 54 56 61 64 64 65 52 41 30 25 22 28 37 40 44 50 56 69 76 71 76 81 88 94 95 94 95 96 101
60 58 58 58 57 55 56 59 57 56 55 51 49 46 47 48 49 54 55 54 48 48 48 47 50 54 55 61 63 66 67 50 43 33 27 24 25 35 44 47 49 57 62 69 69 70 75 85 90 91 92 93 96 102
54 53 55 55 54 49 48 48 46 44 45 38 40 38 41 47 49 53 50 54 49 47 46 46 48 50 55 60 64 64 65 50 43 32 26 23 24 34 42 45 44 48 60 66 67 69 73 78 84 88 90 97 98 100
58 57 54 48 38 39 40 42 42 40 38 39 39 45 47 49 51 48 44 44 45 45 43 43 43 45 53 60 61 63 56 47 37 28 23 21 22 31 37 41 48 51 53 56 61 66 73 78 77 85 89 97 101 100
62 60 52 47 42 39 35 39 42 43 39 39 44 49 50 49 42 37 33 35 39 41 41 37 40 43 53 56 57 64 48 41 30 21 17 15 18 21 26 38 44 50 53 52 56 56 62 76 79 82 86 93 97 99
62 62 58 50 48 43 40 38 34 41 45 44 44 44 42 39 38 33 29 31 35 37 29 32 35 44 49 51 56 55 42 37 23 22 19 12 9 12 19 23 26 28 48 57 56 55 54 53 61 83 87 91 89 90
59 60 55 55 49 49 43 39 43 42 43 43 43 47 38 34 33 32 33 35 34 23 23 30 33 45 45 50 54 43 35 25 22 21 17 20 14 8 6 13 36 34 52 58 58 60 57 57 54 58 71 82 87 86
50 52 51 45 44 45 44 42 44 43 45 44 48 38 32 32 33 32 31 32 21 17 24 29 35 42 44 47 48 33 23 25 21 21 21 22 23 19 10 3 16 31 38 39 46 49 58 61 59 58 57 57 60 63
46 46 46 43 43 42 42 42 42 43 44 48 37 35 36 30 30 28 30 26 17 18 24 23 36 37 41 44 43 26 18 20 22 23 27 29 32 32 27 18 10 5 9 18 23 30 40 47 52 52 52 50 52 50
39 40 39 40 37 39 41 40 40 43 46 41 31 27 29 29 30 27 20 17 18 20 19 26 34 35 39 39 38 23 12 15 17 22 26 27 30 32 33 33 31 25 17 11 6 7 13 21 31 38 42 42 38 37
38 38 38 39 39 36 39 39 41 45 36 31 30 27 25 24 21 20 18 17 19 22 17 31 31 34 34 35 33 20 10 11 17 20 23 24 26 27 28 29 30 30 30 29 27 23 19 14 7 3 10 16 20 22
40 33 33 34 36 38 39 41 44 38 30 27 25 23 21 19 18 19 18 17 20 19 23 29 30 30 30 32 30 17 10 6 13 18 20 19 20 22 24 26 27 24 24 24 24 23 22 23 22 17 13 7 3 6
43 37 38 38 38 38 38 40 40 32 28 26 26 22 22 25 22 21 20 17 21 18 29 28 30 29 30 29 27 17 11 9 9 15 20 22 21 19 17 16 17 19 19 17 16 19 18 15 11 10 10 12 11 9
36 39 40 39 38 37 38 40 33 25 26 25 24 24 22 24 24 19 20 23 22 25 27 29 30 27 29 28 26 16 12 11 11 13 14 16 21 21 20 16 11 15 13 9 11 11 11 10 14 12 10 10 11 11
37 39 40 41 37 34 36 33 29 26 26 25 27 27 25 24 23 21 21 24 25 25 27 29 30 29 28 30 27 18 14 14 13 13 14 16 23 24 20 15 12 15 16 17 13 10 11 12 15 14 10 12 12 13
39 40 40 39 34 35 34 29 30 31 28 26 28 27 24 23 22 23 24 25 27 27 26 26 30 29 29 28 25 19 16 14 15 19 20 23 25 25 21 16 15 14 16 16 14 14 14 16 16 16 15 13 15 20
41 39 40 39 38 38 34 31 29 32 37 35 34 33 32 31 30 25 26 27 27 29 32 25 26 25 28 24 27 23 20 14 15 24 22 20 20 23 23 20 21 22 19 16 16 12 15 15 16 19 22 23 21 23
44 42 42 41 40 39 39 38 35 31 36 39 37 40 40 35 31 30 29 28 32 30 31 32 31 27 29 29 28 26 24 16 16 20 23 19 18 21 25 26 26 26 25 23 20 18 19 20 22 25 30 32 29 30
45 45 45 44 44 43 44 43 43 43 42 38 42 43 41 40 34 33 29 31 33 31 34 34 29 30 30 26 26 22 22 23 19 19 21 17 15 18 23 24 23 27 29 24 22 23 23 24 30 33 33 36 38 38
49 48 49 50 49 49 50 52 52 54 50 43 43 45 43 42 38 37 36 33 31 33 33 29 31 30 28 26 28 25 25 24 22 20 19 15 15 24 34 35 31 32 30 28 31 31 31 33 38 39 38 39 43 47
54 54 55 57 56 55 58 59 55 52 50 51 51 48 45 43 42 41 36 36 37 36 34 28 30 34 30 27 30 27 26 24 20 15 15 17 33 43 36 31 30 30 30 33 31 31 38 46 43 43 43 46 49 52
56 56 56 57 54 50 50 51 50 46 42 40 42 45 45 45 41 37 33 36 35 32 25 32 33 31 33 34 31 30 28 29 22 19 25 32 39 41 43 34 28 26 26 30 29 29 33 42 45 47 47 51 55 55
49 47 46 46 47 45 39 32 28 25 25 28 26 28 32 36 36 30 30 27 28 31 35 38 39 38 38 35 35 33 29 28 25 28 26 27 28 31 32 32 29 31 33 31 36 43 47 49 48 47 49 54 57 57
40 42 42 38 30 24 22 20 23 25 29 28 22 23 23 23 25 29 32 30 32 36 38 37 36 32 29 30 29 26 25 31 31 27 25 29 34 38 34 30 32 37 42 47 49 50 51 53 54 55 56 56 57 61
32 28 24 20 19 22 28 30 26 23 26 26 27 28 25 27 29 30 28 30 32 31 33 30 28 26 21 17 21 24 25 27 26 28 29 34 31 22 27 38 35 38 44 50 54 56 57 58 55 55 58 61 64 67
21 20 23 25 28 28 29 29 28 26 26 26 26 27 28 27 24 25 26 26 26 22 21 18 14 12 14 17 23 26 26 25 26 29 34 36 36 41 47 50 50 54 53 54 56 58 60 60 60 63 66 68 68 67
26 30 31 32 31 29 26 28 26 21 18 16 15 16 17 19 21 21 18 17 17 14 13 17 19 18 20 19 21 25 29 29 29 30 33 38 43 48 51 55 57 58 59 60 62 63 64 66 68 67 67 64 58 53
28 29 29 27 25 25 23 20 17 15 14 14 15 16 14 14 14 14 13 17 30 25 19 15 19 18 20 23 24 27 31 34 37 41 45 49 51 54 57 59 60 60 62 64 66 68 68 67 66 60 55 53 50 48
29 30 29 26 23 20 18 15 15 14 13 14 13 11 11 12 13 14 13 13 16 22 26 23 23 28 31 33 33 36 40 44 48 50 53 55 56 56 58 59 61 63 66 66 66 66 63 57 54 53 51 48 49 49
26 23 21 18 16 13 12 12 12 12 11 8 8 12 14 12 14 12 12 10 13 17 21 24 26 28 30 34 37 40 44 47 49 52 53 55 58 60 61 63 63 64 65 64 58 54 53 52 51 50 48 47 45 46
20 17 13 12 13 13 13 12 11 10 9 7 9 13 15 15 20 20 18 20 23 22 23 27 29 31 34 37 39 43 47 50 53 56 58 59 63 64 62 62 60 55 53 52 51 51 50 49 48 47 46 42 40 38
16 17 15 13 12 11 11 10 9 8 7 8 10 12 15 20 27 28 25 25 27 29 31 32 35 36 39 43 48 51 52 55 57 58 58 57 56 52 52 51 50 50 51 50 50 49 47 45 43 41 38 36 34 32
13 13 13 11 10 9 9 8 5 5 6 8 9 11 14 17 20 24 28 31 33 35 37 39 41 44 45 46 47 49 50 51 49 46 45 45 47 49 48 48 49 50 49 47 46 45 45 43 39 35 33 32 31 30

GFSWCAN_250_spd_114.txt.gz
Wind_Speed
56 54 53 53 54 55 55 53 52 52 50 49 48 50 52 47 45 39 37 42 46 49 51 50 45 44 45 44 44 49 54 62 61 65 45 33 28 31 34 33 35 46 57 63 65 67 78 88 93 100 101 100 101 104
57 58 58 56 52 50 48 47 48 49 44 39 40 42 42 42 38 36 41 44 50 56 50 44 39 38 41 41 41 48 55 59 60 57 45 35 28 30 36 35 33 39 50 58 66 70 72 82 92 97 100 101 101 102
56 56 60 59 57 52 51 49 45 40 37 37 37 39 39 37 38 39 44 46 50 49 41 35 34 33 38 37 39 48 56 56 64 48 46 37 29 29 33 34 36 38 45 51 59 69 73 75 82 93 96 98 100 101
55 54 53 52 54 56 53 50 48 42 40 38 36 38 38 40 39 41 42 42 42 41 36 32 29 32 33 31 41 50 54 57 56 45 40 34 29 26 28 32 40 40 42 46 53 59 66 70 68 74 86 95 99 100
52 51 53 56 54 53 54 51 49 42 41 37 41 42 35 39 38 42 40 40 35 35 32 32 32 29 23 31 42 51 52 58 48 47 31 25 22 21 24 30 38 40 40 42 47 50 54 61 67 71 70 76 91 99
49 48 47 48 50 50 49 48 49 45 41 40 38 40 38 37 40 40 42 36 32 33 36 35 30 20 23 32 43 44 51 49 46 38 24 20 14 14 20 24 29 39 41 41 44 43 45 50 59 63 65 70 73 81
47 49 47 47 45 47 47 47 47 44 40 40 39 37 41 41 41 44 35 29 30 33 32 28 22 17 20 33 36 43 47 39 33 28 22 17 15 12 11 18 28 36 40 46 47 45 44 45 49 56 59 64 69 69
46 44 46 44 41 40 41 43 43 40 38 38 38 39 38 39 41 38 31 27 30 30 26 21 19 19 22 34 35 39 41 33 24 20 20 22 22 17 6 13 18 26 35 34 25 34 42 48 47 46 46 45 45 53
48 46 45 43 39 39 39 37 38 36 35 37 36 36 37 40 37 30 27 25 26 24 18 18 18 17 26 33 33 35 36 26 21 17 17 22 26 28 21 4 15 14 20 24 29 32 32 43 53 50 48 49 49 49
46 47 43 40 38 33 32 35 36 35 34 36 33 34 36 37 28 23 22 23 22 14 15 17 19 17 26 27 28 33 29 22 17 14 19 20 22 26 31 28 18 10 6 9 12 15 20 25 33 45 45 48 48 48
44 43 39 37 34 32 30 32 32 31 33 31 33 35 36 29 24 23 22 23 19 16 16 17 20 17 22 23 26 29 25 14 10 15 17 20 24 24 26 28 29 30 29 30 21 12 8 1 10 19 31 41 46 46
43 41 38 33 33 32 32 29 32 32 32 31 31 36 27 25 22 23 21 18 16 14 14 18 17 19 24 22 23 26 23 14 13 14 13 16 20 22 23 22 23 24 26 25 25 24 24 21 18 12 8 6 11 17
44 40 36 33 33 28 29 30 33 34 33 30 33 32 25 26 23 23 19 19 19 17 18 19 16 20 22 22 22 22 21 11 11 11 12 13 16 19 20 18 14 16 16 16 16 16 16 16 17 15 14 13 10 8
47 42 37 38 36 31 31 33 32 32 30 30 30 26 25 23 20 20 22 21 20 22 20 21 19 22 22 22 19 21 21 11 9 11 11 12 14 16 18 15 13 10 11 11 9 8 6 10 11 12 7 7 8 8
42 38 38 35 35 37 35 35 34 31 29 27 25 25 24 22 20 22 22 22 22 23 21 23 19 20 20 19 17 19 17 15 11 10 9 12 14 16 18 15 12 12 12 12 11 4 3 3 5 6 6 7 8 10
39 39 39 36 36 35 35 34 31 29 28 25 26 25 25 24 23 23 25 23 23 25 23 22 24 21 20 20 16 17 19 19 12 13 9 12 16 17 19 15 14 15 15 15 13 11 10 10 8 7 6 8 11 15
39 42 40 36 34 34 32 28 26 24 25 22 25 29 28 26 24 23 23 23 24 26 25 26 27 24 25 23 20 17 18 17 14 17 13 10 11 13 14 12 14 16 16 17 16 13 13 11 13 14 17 21 21 20
40 39 38 36 34 35 32 30 27 26 28 23 25 26 33 34 33 32 30 27 27 28 27 26 27 28 26 25 20 17 16 16 17 22 19 12 8 9 8 7 10 13 13 18 19 16 13 15 16 18 20 24 27 28
37 38 40 38 36 35 32 32 30 32 30 29 30 28 28 32 34 36 35 32 32 32 28 28 29 31 26 22 17 17 19 19 17 22 24 20 14 12 12 10 11 12 15 17 18 17 17 18 21 24 23 21 25 30
38 38 39 39 38 38 37 37 39 38 35 35 35 37 39 38 35 36 40 38 36 34 31 31 32 30 29 29 23 20 21 20 25 23 25 26 23 20 21 22 21 21 21 22 21 17 18 20 22 29 31 29 35 41
39 39 40 40 40 40 39 40 42 42 44 43 42 46 48 47 49 45 42 38 37 38 35 33 32 30 28 34 24 25 22 25 22 25 27 30 30 32 30 37 24 17 22 29 29 27 26 22 21 28 36 39 43 47
41 41 41 41 42 43 44 45 47 50 52 51 53 56 57 52 47 43 41 40 41 41 37 34 35 34 30 25 23 26 28 30 26 24 30 32 29 29 35 33 31 30 32 35 34 30 27 30 33 36 39 42 47 50
44 45 44 44 46 48 49 51 52 55 56 53 52 51 49 47 45 46 47 45 41 36 33 35 37 35 28 27 27 29 32 26 24 29 32 32 36 32 32 35 40 40 36 34 33 34 36 37 39 42 44 48 51 55
47 46 48 49 51 51 50 48 45 46 44 37 32 28 24 23 25 28 34 37 39 39 34 30 27 25 28 30 33 35 16 39 39 44 46 40 40 38 37 38 40 38 40 35 29 36 40 42 47 50 53 55 58 60
42 39 37 37 35 35 38 39 31 24 21 18 16 15 14 19 26 28 32 37 35 29 25 26 29 31 35 40 39 35 36 38 40 40 38 36 37 38 40 39 38 38 32 36 48 51 50 50 54 57 58 60 62 64
29 29 31 33 33 28 24 22 21 24 25 21 19 19 18 18 21 26 28 29 28 27 28 30 32 34 34 34 31 29 30 29 27 25 25 27 32 37 38 40 43 47 48 46 50 53 56 60 62 63 64 65 67 69
28 27 24 22 21 25 27 25 25 27 25 20 18 19 21 23 25 25 26 29 30 30 29 27 26 25 29 23 19 23 23 23 24 26 30 31 34 39 42 41 42 47 50 53 57 61 63 65 65 65 66 70 69 70
23 23 26 29 30 29 27 25 25 24 22 21 19 20 19 19 19 21 23 24 26 24 22 21 20 17 16 21 22 24 26 27 27 29 31 35 39 41 44 48 52 56 59 61 63 64 65 65 67 68 68 68 65 58
28 29 28 28 27 26 23 24 23 18 15 13 12 13 15 16 16 17 18 18 18 18 20 21 21 19 20 22 25 28 30 33 37 40 43 46 48 50 53 56 59 60 62 63 64 65 67 67 66 66 61 56 56 56
30 28 28 26 21 20 19 18 15 11 11 11 12 13 12 13 12 12 15 15 13 12 14 18 20 22 24 28 30 33 36 39 42 46 49 51 51 53 54 57 59 62 64 65 65 65 65 61 56 55 56 56 55 53
27 26 24 23 21 17 15 11 10 11 12 11 8 8 10 12 15 14 15 21 18 14 16 21 24 25 30 34 37 39 42 44 45 47 50 55 58 58 58 59 60 61 60 58 55 54 54 55 56 56 54 51 49 48
25 22 19 16 14 11 10 10 10 10 9 7 6 6 10 14 17 17 17 18 23 26 29 31 33 38 40 40 42 45 48 50 51 51 50 50 51 52 51 49 48 50 52 53 55 55 55 54 53 51 48 45 44 45
16 15 14 13 11 10 10 9 7 7 8 8 7 7 9 12 15 19 23 24 26 29 34 39 42 44 44 46 46 45 43 43 43 43 42 44 47 48 50 53 52 51 51 50 49 50 50 50 47 45 43 40 37 35

GFSWCAN_250_spd_117.txt.gz
Wind_Speed
57 56 57 56 52 50 51 52 51 47 44 44 42 43 46 44 41 37 40 41 41 37 38 47 51 49 47 35 29 28 35 38 42 47 53 56 51 42 33 28 31 34 40 50 60 63 76 87 92 97 97 99 100 102
54 52 53 54 53 53 51 50 53 53 49 46 42 39 39 40 38 39 40 38 37 39 41 45 45 42 38 31 24 31 33 38 47 54 55 56 47 44 31 26 29 33 38 44 55 64 66 78 89 92 98 100 101 100
51 52 52 50 49 48 48 49 49 54 54 50 45 43 42 40 37 39 36 38 37 38 41 43 41 37 36 29 28 30 32 40 49 49 55 45 44 36 26 20 24 31 37 40 48 57 66 69 77 90 95 97 100 102
48 49 49 50 49 48 50 47 47 47 46 47 46 43 41 40 38 35 40 38 34 39 39 40 39 37 36 31 27 28 33 44 46 52 46 41 40 31 27 23 24 28 35 40 44 51 57 64 68 73 86 94 97 99
51 48 46 45 45 45 46 43 44 46 48 46 48 48 39 39 39 35 34 34 37 39 39 40 37 34 32 27 26 27 34 42 46 49 44 44 41 33 26 22 24 26 31 40 42 45 51 54 58 67 70 80 90 92
50 48 46 46 45 43 43 41 41 43 44 44 44 45 40 40 39 37 37 38 36 38 43 35 32 34 29 24 25 27 35 40 45 40 43 44 42 35 24 19 17 21 24 32 38 41 44 49 53 57 61 66 70 82
47 49 46 43 42 40 40 43 42 43 41 41 40 40 39 38 35 34 37 35 36 42 35 31 29 31 21 22 24 26 34 37 38 33 34 37 39 34 24 12 9 12 16 19 27 37 39 41 45 49 52 56 61 64
48 43 45 43 44 43 40 39 39 41 39 38 39 39 36 36 32 36 37 37 40 40 30 28 26 21 18 22 22 28 30 34 32 26 27 27 31 34 30 17 8 3 7 13 15 22 30 33 36 40 43 47 52 56
46 46 43 44 44 42 42 40 39 39 36 35 35 37 33 32 33 32 32 36 37 30 25 24 19 14 19 22 22 25 26 30 27 19 21 21 21 27 30 28 21 10 3 0 6 14 17 21 24 35 40 43 44 46
50 48 45 46 45 42 40 38 37 37 34 34 33 33 31 31 29 28 33 36 28 23 22 20 18 16 18 18 20 24 24 26 25 18 20 20 15 17 24 26 27 26 18 6 8 14 19 25 29 28 31 36 41 41
48 47 47 43 38 35 35 34 34 31 29 30 32 31 30 30 30 32 34 31 25 22 21 21 17 15 17 17 21 22 23 23 25 20 18 17 15 12 18 21 23 23 24 24 21 13 3 9 13 16 20 25 30 36
46 45 44 39 38 34 33 33 31 29 29 30 31 29 27 28 30 32 30 26 22 21 19 18 18 15 16 17 20 21 21 22 22 21 18 17 15 11 13 14 16 17 18 18 17 17 20 19 14 8 5 8 15 21
50 47 44 39 35 33 31 30 29 30 29 31 28 28 29 29 30 30 25 24 18 14 19 21 17 14 17 18 20 19 17 20 20 19 17 15 12 11 11 12 12 13 13 11 13 13 16 15 12 13 15 15 14 14
56 53 47 43 39 35 33 30 32 31 31 29 30 32 31 30 30 24 23 20 18 18 22 23 19 20 21 19 19 17 17 17 18 17 15 14 11 11 13 15 14 12 11 13 11 7 7 10 9 8 8 7 7 7
60 55 50 46 42 39 34 34 31 30 30 30 32 30 27 28 24 22 21 18 18 22 24 25 23 21 20 18 18 19 16 14 16 13 15 13 10 9 9 12 13 12 8 8 7 7 6 4 4 4 4 6 6 4
49 49 46 44 39 37 35 38 33 31 33 34 34 28 26 25 22 21 20 19 20 23 25 26 25 22 23 21 20 20 20 13 13 12 12 10 9 6 7 9 10 8 7 7 8 6 4 5 3 1 1 1 2 3
39 41 39 37 36 35 39 41 36 35 38 34 26 27 22 22 24 22 22 22 22 25 27 27 24 23 26 24 24 23 20 13 15 13 12 10 10 9 7 9 9 3 0 3 7 9 8 5 5 7 9 9 8 10
34 35 33 35 35 38 40 41 38 40 35 29 23 20 17 20 24 23 22 22 22 22 24 24 23 24 26 26 25 22 19 17 18 17 11 12 15 14 15 10 5 4 3 1 6 11 14 12 12 14 14 16 18 15
30 31 33 35 40 43 41 39 40 36 29 24 22 20 18 18 19 20 27 31 31 31 32 28 28 28 28 27 27 25 19 22 21 22 21 15 15 19 20 22 19 14 13 11 9 10 12 15 17 17 16 18 21 19
28 31 35 41 42 40 38 39 39 32 28 27 26 26 25 24 21 24 26 26 23 23 30 33 32 31 29 26 27 26 26 26 24 23 22 21 18 18 25 28 31 29 22 17 16 14 18 19 20 22 25 27 30 32
32 34 36 40 41 39 39 37 37 36 34 32 33 34 33 31 31 32 31 32 34 35 32 35 38 36 35 29 29 28 28 25 24 25 25 24 23 25 24 27 31 32 33 35 22 20 21 24 24 21 21 24 31 36
35 34 35 37 38 39 38 38 39 37 35 38 38 37 38 39 40 39 38 42 45 44 44 40 36 38 37 34 32 31 30 26 27 28 28 30 29 29 30 31 32 36 38 32 28 30 32 31 30 29 30 31 33 36
34 35 34 36 36 36 37 38 37 38 39 40 41 43 45 46 49 50 51 53 53 48 40 38 39 38 36 33 31 31 28 30 30 29 29 35 38 36 32 29 30 36 39 34 33 36 37 36 39 35 32 35 43 44
34 35 36 36 35 35 36 36 37 39 41 44 47 49 52 57 57 54 53 51 50 48 44 38 37 37 36 36 33 30 35 37 36 37 38 43 44 42 38 40 42 38 40 46 44 40 38 36 40 42 42 46 54 54
35 36 36 37 37 37 39 41 42 42 45 51 50 47 48 45 35 29 26 24 24 29 36 39 37 36 36 32 31 33 34 35 36 38 40 40 38 41 46 50 49 44 42 43 42 41 43 45 46 47 50 52 55 59
37 38 38 38 39 40 42 44 43 38 37 39 34 28 22 15 14 12 11 13 14 19 25 32 36 36 33 32 34 36 36 38 38 37 37 37 37 36 33 31 29 31 32 36 42 44 47 48 47 49 54 58 61 65
34 34 34 32 30 29 29 30 31 28 22 19 17 13 11 10 11 12 15 16 18 20 23 27 29 31 33 34 36 35 31 28 26 25 27 28 28 29 31 31 33 36 37 40 44 47 50 53 57 59 62 66 67 68
21 22 22 24 28 28 25 19 21 24 23 21 19 18 17 14 13 13 15 18 20 21 23 26 29 32 30 28 26 23 21 24 26 29 32 33 35 35 35 37 40 43 46 49 52 56 59 61 64 66 67 67 69 70
22 23 20 18 19 19 19 21 21 17 16 13 11 9 10 11 13 15 17 18 19 21 22 23 25 25 23 23 24 21 23 28 31 31 33 38 42 45 48 49 51 53 56 58 59 61 64 65 66 68 69 70 68 66
17 18 22 25 26 26 23 18 15 13 10 10 10 9 8 8 11 12 10 10 11 13 13 12 12 14 19 23 26 30 33 35 36 38 41 43 44 46 47 49 52 55 58 60 63 65 66 67 66 64 62 60 56 56
30 30 28 23 21 21 14 14 13 9 5 4 4 6 7 9 10 10 10 10 13 16 19 20 20 20 22 26 31 35 37 40 42 45 48 49 50 50 51 53 54 55 57 57 57 57 56 56 56 57 58 57 57 56
27 24 20 18 18 16 14 11 8 6 6 6 6 5 5 6 8 9 11 13 13 14 18 25 30 32 34 36 39 42 45 47 47 46 46 47 48 48 48 48 49 50 52 54 54 54 54 53 52 51 50 49 48 47
25 22 21 20 17 15 12 10 10 9 8 7 7 7 7 7 9 12 15 17 20 24 28 31 32 33 36 38 42 44 46 46 44 42 40 41 42 44 44 43 42 43 46 47 48 49 48 46 45 43 42 40 40 40